<?xml version="1.0" encoding="UTF-8" standalone="no" ?>
<gpx xmlns="http://www.topografix.com/GPX/1/1" xmlns:xsi="http://www.w3.org/2001/XMLSchema-instance" xsi:schemaLocation="http://www.topografix.com/GPX/1/1 http://www.topografix.com/GPX/1/1/gpx.xsd" version="1.1" creator="VisuGPX - https://www.visugpx.com">
  <metadata>
    <name>Saint-Nazaire_Pornichet</name>
    <desc><![CDATA[Parcours pas encore réalisé. Je vous donne des infos plus tard.]]></desc>
  </metadata>
  <wpt lat="47.27124" lon="-2.20647">
    <ele>6.1</ele>
  </wpt>
  <trk>
    <name><![CDATA[StNazPorStNaz]]></name>
    <extensions>
      <line xmlns="http://www.topografix.com/GPX/gpx_style/0/2">
        <color>00FFFF</color>
        <width>4</width>
      </line>
    </extensions>
    <trkseg>
      <trkpt lat="47.2713" lon="-2.20693">
        <ele>6.64951583055</ele>
        <time>2021-05-22T10:25:02.000Z</time>
      </trkpt>
      <trkpt lat="47.27127" lon="-2.20702">
        <ele>6.77542951177</ele>
        <time>2021-05-22T10:25:02.002Z</time>
      </trkpt>
      <trkpt lat="47.27127" lon="-2.20702">
        <ele>7.04042279617</ele>
        <time>2021-05-22T10:25:02.004Z</time>
      </trkpt>
      <trkpt lat="47.27112" lon="-2.20818">
        <ele>7.49492960796</ele>
        <time>2021-05-22T10:25:02.033Z</time>
      </trkpt>
      <trkpt lat="47.27112" lon="-2.20818">
        <ele>7.95773930415</ele>
        <time>2021-05-22T10:25:02.062Z</time>
      </trkpt>
      <trkpt lat="47.27105" lon="-2.2088">
        <ele>8.45734941113</ele>
        <time>2021-05-22T10:25:02.105Z</time>
      </trkpt>
      <trkpt lat="47.27065" lon="-2.2101">
        <ele>8.87061243293</ele>
        <time>2021-05-22T10:25:02.181Z</time>
      </trkpt>
      <trkpt lat="47.27066" lon="-2.21023">
        <ele>9.19563654118</ele>
        <time>2021-05-22T10:25:02.259Z</time>
      </trkpt>
      <trkpt lat="47.27068" lon="-2.21028">
        <ele>9.43967546212</ele>
        <time>2021-05-22T10:25:02.339Z</time>
      </trkpt>
      <trkpt lat="47.27066" lon="-2.21032">
        <ele>9.6348623684</ele>
        <time>2021-05-22T10:25:02.420Z</time>
      </trkpt>
      <trkpt lat="47.27067" lon="-2.2104">
        <ele>9.78162181804</ele>
        <time>2021-05-22T10:25:02.503Z</time>
      </trkpt>
      <trkpt lat="47.27061" lon="-2.21046">
        <ele>9.92481848872</ele>
        <time>2021-05-22T10:25:02.588Z</time>
      </trkpt>
      <trkpt lat="47.27051" lon="-2.21056">
        <ele>10.06677954934</ele>
        <time>2021-05-22T10:25:02.677Z</time>
      </trkpt>
      <trkpt lat="47.27023" lon="-2.2114">
        <ele>9.99870340594</ele>
        <time>2021-05-22T10:25:02.787Z</time>
      </trkpt>
      <trkpt lat="47.27023" lon="-2.2114">
        <ele>9.91705997939</ele>
        <time>2021-05-22T10:25:02.897Z</time>
      </trkpt>
      <trkpt lat="47.2698" lon="-2.21207">
        <ele>9.86128760833</ele>
        <time>2021-05-22T10:25:03.028Z</time>
      </trkpt>
      <trkpt lat="47.2698" lon="-2.21207">
        <ele>9.79653792086</ele>
        <time>2021-05-22T10:25:03.159Z</time>
      </trkpt>
      <trkpt lat="47.26916" lon="-2.21297">
        <ele>9.66480771117</ele>
        <time>2021-05-22T10:25:03.320Z</time>
      </trkpt>
      <trkpt lat="47.26909" lon="-2.21319">
        <ele>9.58175428112</ele>
        <time>2021-05-22T10:25:03.487Z</time>
      </trkpt>
      <trkpt lat="47.26883" lon="-2.21471">
        <ele>9.54185375504</ele>
        <time>2021-05-22T10:25:03.689Z</time>
      </trkpt>
      <trkpt lat="47.2688" lon="-2.21493">
        <ele>9.53018358697</ele>
        <time>2021-05-22T10:25:03.896Z</time>
      </trkpt>
      <trkpt lat="47.26871" lon="-2.21544">
        <ele>9.5548155035</ele>
        <time>2021-05-22T10:25:04.115Z</time>
      </trkpt>
      <trkpt lat="47.26868" lon="-2.21563">
        <ele>9.53090001595</ele>
        <time>2021-05-22T10:25:04.339Z</time>
      </trkpt>
      <trkpt lat="47.26862" lon="-2.21588">
        <ele>9.40789311005</ele>
        <time>2021-05-22T10:25:04.569Z</time>
      </trkpt>
      <trkpt lat="47.26862" lon="-2.21588">
        <ele>9.28528013935</ele>
        <time>2021-05-22T10:25:04.799Z</time>
      </trkpt>
      <trkpt lat="47.26857" lon="-2.21618">
        <ele>9.08978710527</ele>
        <time>2021-05-22T10:25:05.036Z</time>
      </trkpt>
      <trkpt lat="47.26856" lon="-2.21625">
        <ele>8.89710023369</ele>
        <time>2021-05-22T10:25:05.274Z</time>
      </trkpt>
      <trkpt lat="47.26858" lon="-2.21641">
        <ele>8.68298052264</ele>
        <time>2021-05-22T10:25:05.516Z</time>
      </trkpt>
      <trkpt lat="47.26849" lon="-2.21656">
        <ele>8.4150243902</ele>
        <time>2021-05-22T10:25:05.762Z</time>
      </trkpt>
      <trkpt lat="47.26837" lon="-2.21719">
        <ele>8.26349886913</ele>
        <time>2021-05-22T10:25:06.023Z</time>
      </trkpt>
      <trkpt lat="47.26837" lon="-2.21719">
        <ele>8.07747129724</ele>
        <time>2021-05-22T10:25:06.284Z</time>
      </trkpt>
      <trkpt lat="47.26819" lon="-2.21788">
        <ele>7.98355756816</ele>
        <time>2021-05-22T10:25:06.562Z</time>
      </trkpt>
      <trkpt lat="47.26819" lon="-2.21788">
        <ele>7.83249959667</ele>
        <time>2021-05-22T10:25:06.840Z</time>
      </trkpt>
      <trkpt lat="47.26755" lon="-2.22039">
        <ele>7.51281888804</ele>
        <time>2021-05-22T10:25:07.179Z</time>
      </trkpt>
      <trkpt lat="47.26743" lon="-2.22073">
        <ele>7.21927494738</ele>
        <time>2021-05-22T10:25:07.527Z</time>
      </trkpt>
      <trkpt lat="47.26727" lon="-2.2212">
        <ele>6.95344208541</ele>
        <time>2021-05-22T10:25:07.887Z</time>
      </trkpt>
      <trkpt lat="47.26713" lon="-2.22157">
        <ele>6.69986451715</ele>
        <time>2021-05-22T10:25:08.256Z</time>
      </trkpt>
      <trkpt lat="47.267" lon="-2.22177">
        <ele>6.41853452878</ele>
        <time>2021-05-22T10:25:08.631Z</time>
      </trkpt>
      <trkpt lat="47.26677" lon="-2.22223">
        <ele>6.06909845645</ele>
        <time>2021-05-22T10:25:09.020Z</time>
      </trkpt>
      <trkpt lat="47.26669" lon="-2.22215">
        <ele>5.74075514645</ele>
        <time>2021-05-22T10:25:09.412Z</time>
      </trkpt>
      <trkpt lat="47.26637" lon="-2.2227">
        <ele>5.38084960101</ele>
        <time>2021-05-22T10:25:09.820Z</time>
      </trkpt>
      <trkpt lat="47.26637" lon="-2.2227">
        <ele>5.10725031258</ele>
        <time>2021-05-22T10:25:10.228Z</time>
      </trkpt>
      <trkpt lat="47.26603" lon="-2.22329">
        <ele>4.96892542469</ele>
        <time>2021-05-22T10:25:10.654Z</time>
      </trkpt>
      <trkpt lat="47.26586" lon="-2.22366">
        <ele>4.83965610271</ele>
        <time>2021-05-22T10:25:11.090Z</time>
      </trkpt>
      <trkpt lat="47.26566" lon="-2.22398">
        <ele>4.73753042887</ele>
        <time>2021-05-22T10:25:11.536Z</time>
      </trkpt>
      <trkpt lat="47.2656" lon="-2.22407">
        <ele>4.67512272592</ele>
        <time>2021-05-22T10:25:11.985Z</time>
      </trkpt>
      <trkpt lat="47.26559" lon="-2.22414">
        <ele>4.64988419187</ele>
        <time>2021-05-22T10:25:12.435Z</time>
      </trkpt>
      <trkpt lat="47.26556" lon="-2.22424">
        <ele>4.65139748434</ele>
        <time>2021-05-22T10:25:12.888Z</time>
      </trkpt>
      <trkpt lat="47.26549" lon="-2.22429">
        <ele>4.66087439193</ele>
        <time>2021-05-22T10:25:13.343Z</time>
      </trkpt>
      <trkpt lat="47.26531" lon="-2.22461">
        <ele>4.70822172637</ele>
        <time>2021-05-22T10:25:13.808Z</time>
      </trkpt>
      <trkpt lat="47.26518" lon="-2.22477">
        <ele>4.73802487526</ele>
        <time>2021-05-22T10:25:14.278Z</time>
      </trkpt>
      <trkpt lat="47.26507" lon="-2.22491">
        <ele>4.78133875346</ele>
        <time>2021-05-22T10:25:14.753Z</time>
      </trkpt>
      <trkpt lat="47.26498" lon="-2.225">
        <ele>4.8311750337</ele>
        <time>2021-05-22T10:25:15.232Z</time>
      </trkpt>
      <trkpt lat="47.26473" lon="-2.22511">
        <ele>4.85349247943</ele>
        <time>2021-05-22T10:25:15.720Z</time>
      </trkpt>
      <trkpt lat="47.26468" lon="-2.22512">
        <ele>4.90099480119</ele>
        <time>2021-05-22T10:25:16.209Z</time>
      </trkpt>
      <trkpt lat="47.26468" lon="-2.22512">
        <ele>4.96989410296</ele>
        <time>2021-05-22T10:25:16.698Z</time>
      </trkpt>
      <trkpt lat="47.26461" lon="-2.22512">
        <ele>5.04668820985</ele>
        <time>2021-05-22T10:25:17.190Z</time>
      </trkpt>
      <trkpt lat="47.2643" lon="-2.22525">
        <ele>5.12163144384</ele>
        <time>2021-05-22T10:25:17.692Z</time>
      </trkpt>
      <trkpt lat="47.26402" lon="-2.22535">
        <ele>5.27477650417</ele>
        <time>2021-05-22T10:25:18.204Z</time>
      </trkpt>
      <trkpt lat="47.26402" lon="-2.22535">
        <ele>5.43210817102</ele>
        <time>2021-05-22T10:25:18.716Z</time>
      </trkpt>
      <trkpt lat="47.26376" lon="-2.22539">
        <ele>5.65672354481</ele>
        <time>2021-05-22T10:25:19.237Z</time>
      </trkpt>
      <trkpt lat="47.26353" lon="-2.22538">
        <ele>5.90952670304</ele>
        <time>2021-05-22T10:25:19.765Z</time>
      </trkpt>
      <trkpt lat="47.26318" lon="-2.22528">
        <ele>6.14656157903</ele>
        <time>2021-05-22T10:25:20.305Z</time>
      </trkpt>
      <trkpt lat="47.26318" lon="-2.22528">
        <ele>6.40053239611</ele>
        <time>2021-05-22T10:25:20.845Z</time>
      </trkpt>
      <trkpt lat="47.26304" lon="-2.22524">
        <ele>6.68844226781</ele>
        <time>2021-05-22T10:25:21.390Z</time>
      </trkpt>
      <trkpt lat="47.26303" lon="-2.22534">
        <ele>7.01929651679</ele>
        <time>2021-05-22T10:25:21.937Z</time>
      </trkpt>
      <trkpt lat="47.26303" lon="-2.22534">
        <ele>7.30883316127</ele>
        <time>2021-05-22T10:25:22.484Z</time>
      </trkpt>
      <trkpt lat="47.26112" lon="-2.22461">
        <ele>7.56200538561</ele>
        <time>2021-05-22T10:25:23.097Z</time>
      </trkpt>
      <trkpt lat="47.26112" lon="-2.22461">
        <ele>7.83536604918</ele>
        <time>2021-05-22T10:25:23.710Z</time>
      </trkpt>
      <trkpt lat="47.26103" lon="-2.22458">
        <ele>8.12750765966</ele>
        <time>2021-05-22T10:25:24.326Z</time>
      </trkpt>
      <trkpt lat="47.26103" lon="-2.22458">
        <ele>8.39470895058</ele>
        <time>2021-05-22T10:25:24.942Z</time>
      </trkpt>
      <trkpt lat="47.26059" lon="-2.2244">
        <ele>8.84663668658</ele>
        <time>2021-05-22T10:25:25.574Z</time>
      </trkpt>
      <trkpt lat="47.26022" lon="-2.22422">
        <ele>9.06867146232</ele>
        <time>2021-05-22T10:25:26.219Z</time>
      </trkpt>
      <trkpt lat="47.25979" lon="-2.22395">
        <ele>9.23708596819</ele>
        <time>2021-05-22T10:25:26.879Z</time>
      </trkpt>
      <trkpt lat="47.25941" lon="-2.22366">
        <ele>9.344958349</ele>
        <time>2021-05-22T10:25:27.554Z</time>
      </trkpt>
      <trkpt lat="47.25899" lon="-2.22334">
        <ele>9.59538589163</ele>
        <time>2021-05-22T10:25:28.244Z</time>
      </trkpt>
      <trkpt lat="47.25886" lon="-2.22327">
        <ele>9.82776886469</ele>
        <time>2021-05-22T10:25:28.939Z</time>
      </trkpt>
      <trkpt lat="47.25876" lon="-2.22327">
        <ele>10.05948610798</ele>
        <time>2021-05-22T10:25:29.637Z</time>
      </trkpt>
      <trkpt lat="47.25868" lon="-2.22333">
        <ele>10.30370251196</ele>
        <time>2021-05-22T10:25:30.338Z</time>
      </trkpt>
      <trkpt lat="47.25856" lon="-2.2235">
        <ele>10.60209602676</ele>
        <time>2021-05-22T10:25:31.045Z</time>
      </trkpt>
      <trkpt lat="47.25847" lon="-2.22379">
        <ele>10.84568841342</ele>
        <time>2021-05-22T10:25:31.759Z</time>
      </trkpt>
      <trkpt lat="47.25824" lon="-2.22473">
        <ele>10.93690055311</ele>
        <time>2021-05-22T10:25:32.496Z</time>
      </trkpt>
      <trkpt lat="47.25821" lon="-2.22488">
        <ele>11.14064396828</ele>
        <time>2021-05-22T10:25:33.236Z</time>
      </trkpt>
      <trkpt lat="47.25812" lon="-2.22548">
        <ele>11.36769902104</ele>
        <time>2021-05-22T10:25:33.990Z</time>
      </trkpt>
      <trkpt lat="47.25803" lon="-2.22626">
        <ele>11.50790575808</ele>
        <time>2021-05-22T10:25:34.762Z</time>
      </trkpt>
      <trkpt lat="47.258" lon="-2.22666">
        <ele>11.74015354079</ele>
        <time>2021-05-22T10:25:35.543Z</time>
      </trkpt>
      <trkpt lat="47.25809" lon="-2.22761">
        <ele>11.63912965957</ele>
        <time>2021-05-22T10:25:36.346Z</time>
      </trkpt>
      <trkpt lat="47.25806" lon="-2.2277">
        <ele>11.5593829241</ele>
        <time>2021-05-22T10:25:37.151Z</time>
      </trkpt>
      <trkpt lat="47.25795" lon="-2.22779">
        <ele>11.47358550862</ele>
        <time>2021-05-22T10:25:37.960Z</time>
      </trkpt>
      <trkpt lat="47.25781" lon="-2.2279">
        <ele>11.32876284164</ele>
        <time>2021-05-22T10:25:38.775Z</time>
      </trkpt>
      <trkpt lat="47.25781" lon="-2.2279">
        <ele>11.15645589983</ele>
        <time>2021-05-22T10:25:39.590Z</time>
      </trkpt>
      <trkpt lat="47.2572" lon="-2.22834">
        <ele>10.93377435147</ele>
        <time>2021-05-22T10:25:40.427Z</time>
      </trkpt>
      <trkpt lat="47.25697" lon="-2.2285">
        <ele>10.71587305177</ele>
        <time>2021-05-22T10:25:41.273Z</time>
      </trkpt>
      <trkpt lat="47.25685" lon="-2.22863">
        <ele>10.45752338663</ele>
        <time>2021-05-22T10:25:42.124Z</time>
      </trkpt>
      <trkpt lat="47.25678" lon="-2.22873">
        <ele>10.15940985458</ele>
        <time>2021-05-22T10:25:42.978Z</time>
      </trkpt>
      <trkpt lat="47.25669" lon="-2.22897">
        <ele>9.83862674039</ele>
        <time>2021-05-22T10:25:43.838Z</time>
      </trkpt>
      <trkpt lat="47.25665" lon="-2.22942">
        <ele>9.47466127004</ele>
        <time>2021-05-22T10:25:44.709Z</time>
      </trkpt>
      <trkpt lat="47.25658" lon="-2.22941">
        <ele>9.108643115</ele>
        <time>2021-05-22T10:25:45.582Z</time>
      </trkpt>
      <trkpt lat="47.25603" lon="-2.22922">
        <ele>8.82008727612</ele>
        <time>2021-05-22T10:25:46.474Z</time>
      </trkpt>
      <trkpt lat="47.25593" lon="-2.22966">
        <ele>8.28750024582</ele>
        <time>2021-05-22T10:25:47.376Z</time>
      </trkpt>
      <trkpt lat="47.25589" lon="-2.23003">
        <ele>7.85849380144</ele>
        <time>2021-05-22T10:25:48.287Z</time>
      </trkpt>
      <trkpt lat="47.25589" lon="-2.23032">
        <ele>7.52406605716</ele>
        <time>2021-05-22T10:25:49.205Z</time>
      </trkpt>
      <trkpt lat="47.25596" lon="-2.23073">
        <ele>7.30535708061</ele>
        <time>2021-05-22T10:25:50.132Z</time>
      </trkpt>
      <trkpt lat="47.25606" lon="-2.23162">
        <ele>7.18974852778</ele>
        <time>2021-05-22T10:25:51.080Z</time>
      </trkpt>
      <trkpt lat="47.25608" lon="-2.23179">
        <ele>7.07270411865</ele>
        <time>2021-05-22T10:25:52.032Z</time>
      </trkpt>
      <trkpt lat="47.25605" lon="-2.23191">
        <ele>6.94652018813</ele>
        <time>2021-05-22T10:25:52.987Z</time>
      </trkpt>
      <trkpt lat="47.25608" lon="-2.23207">
        <ele>6.88941715149</ele>
        <time>2021-05-22T10:25:53.945Z</time>
      </trkpt>
      <trkpt lat="47.25607" lon="-2.23218">
        <ele>6.84410514741</ele>
        <time>2021-05-22T10:25:54.906Z</time>
      </trkpt>
      <trkpt lat="47.25605" lon="-2.23223">
        <ele>6.82506559636</ele>
        <time>2021-05-22T10:25:55.868Z</time>
      </trkpt>
      <trkpt lat="47.25603" lon="-2.23241">
        <ele>6.83205996567</ele>
        <time>2021-05-22T10:25:56.834Z</time>
      </trkpt>
      <trkpt lat="47.25611" lon="-2.23284">
        <ele>6.9410591972</ele>
        <time>2021-05-22T10:25:57.811Z</time>
      </trkpt>
      <trkpt lat="47.25625" lon="-2.23349">
        <ele>7.06650154402</ele>
        <time>2021-05-22T10:25:58.803Z</time>
      </trkpt>
      <trkpt lat="47.2563" lon="-2.23383">
        <ele>7.12723361193</ele>
        <time>2021-05-22T10:25:59.803Z</time>
      </trkpt>
      <trkpt lat="47.25634" lon="-2.23474">
        <ele>7.19148428959</ele>
        <time>2021-05-22T10:26:00.824Z</time>
      </trkpt>
      <trkpt lat="47.25644" lon="-2.23511">
        <ele>7.40332897599</ele>
        <time>2021-05-22T10:26:01.853Z</time>
      </trkpt>
      <trkpt lat="47.25645" lon="-2.23527">
        <ele>7.5923056681</ele>
        <time>2021-05-22T10:26:02.886Z</time>
      </trkpt>
      <trkpt lat="47.25645" lon="-2.23527">
        <ele>7.82774049467</ele>
        <time>2021-05-22T10:26:03.919Z</time>
      </trkpt>
      <trkpt lat="47.25646" lon="-2.23547">
        <ele>8.07567900435</ele>
        <time>2021-05-22T10:26:04.957Z</time>
      </trkpt>
      <trkpt lat="47.2565" lon="-2.2357">
        <ele>8.39383759583</ele>
        <time>2021-05-22T10:26:06.000Z</time>
      </trkpt>
      <trkpt lat="47.2566" lon="-2.23601">
        <ele>8.78431636154</ele>
        <time>2021-05-22T10:26:07.051Z</time>
      </trkpt>
      <trkpt lat="47.25661" lon="-2.2361">
        <ele>9.15812766189</ele>
        <time>2021-05-22T10:26:08.104Z</time>
      </trkpt>
      <trkpt lat="47.25655" lon="-2.23634">
        <ele>9.52915754592</ele>
        <time>2021-05-22T10:26:09.163Z</time>
      </trkpt>
      <trkpt lat="47.2565" lon="-2.23668">
        <ele>9.96051813249</ele>
        <time>2021-05-22T10:26:10.230Z</time>
      </trkpt>
      <trkpt lat="47.2565" lon="-2.23674">
        <ele>10.3583746669</ele>
        <time>2021-05-22T10:26:11.298Z</time>
      </trkpt>
      <trkpt lat="47.2565" lon="-2.23674">
        <ele>10.74599108884</ele>
        <time>2021-05-22T10:26:12.366Z</time>
      </trkpt>
      <trkpt lat="47.2565" lon="-2.23681">
        <ele>11.13581891258</ele>
        <time>2021-05-22T10:26:13.436Z</time>
      </trkpt>
      <trkpt lat="47.25651" lon="-2.23688">
        <ele>11.51822601709</ele>
        <time>2021-05-22T10:26:14.507Z</time>
      </trkpt>
      <trkpt lat="47.2565" lon="-2.23715">
        <ele>11.89591799753</ele>
        <time>2021-05-22T10:26:15.584Z</time>
      </trkpt>
      <trkpt lat="47.25645" lon="-2.23776">
        <ele>12.21347825719</ele>
        <time>2021-05-22T10:26:16.675Z</time>
      </trkpt>
      <trkpt lat="47.25641" lon="-2.23814">
        <ele>12.46397202905</ele>
        <time>2021-05-22T10:26:17.775Z</time>
      </trkpt>
      <trkpt lat="47.25651" lon="-2.23859">
        <ele>12.86269465116</ele>
        <time>2021-05-22T10:26:18.886Z</time>
      </trkpt>
      <trkpt lat="47.25647" lon="-2.23911">
        <ele>13.07571155575</ele>
        <time>2021-05-22T10:26:20.009Z</time>
      </trkpt>
      <trkpt lat="47.25651" lon="-2.23929">
        <ele>13.3022485008</ele>
        <time>2021-05-22T10:26:21.136Z</time>
      </trkpt>
      <trkpt lat="47.25644" lon="-2.23963">
        <ele>13.39195549281</ele>
        <time>2021-05-22T10:26:22.271Z</time>
      </trkpt>
      <trkpt lat="47.25644" lon="-2.23963">
        <ele>13.49651172955</ele>
        <time>2021-05-22T10:26:23.406Z</time>
      </trkpt>
      <trkpt lat="47.25643" lon="-2.23968">
        <ele>13.56119019288</ele>
        <time>2021-05-22T10:26:24.542Z</time>
      </trkpt>
      <trkpt lat="47.25626" lon="-2.23997">
        <ele>13.53217660975</ele>
        <time>2021-05-22T10:26:25.687Z</time>
      </trkpt>
      <trkpt lat="47.25622" lon="-2.24015">
        <ele>13.51613608604</ele>
        <time>2021-05-22T10:26:26.836Z</time>
      </trkpt>
      <trkpt lat="47.25623" lon="-2.24027">
        <ele>13.51723779125</ele>
        <time>2021-05-22T10:26:27.988Z</time>
      </trkpt>
      <trkpt lat="47.2563" lon="-2.24036">
        <ele>13.54353380712</ele>
        <time>2021-05-22T10:26:29.143Z</time>
      </trkpt>
      <trkpt lat="47.25641" lon="-2.24044">
        <ele>13.58458084198</ele>
        <time>2021-05-22T10:26:30.302Z</time>
      </trkpt>
      <trkpt lat="47.25644" lon="-2.24049">
        <ele>13.55669046548</ele>
        <time>2021-05-22T10:26:31.463Z</time>
      </trkpt>
      <trkpt lat="47.25645" lon="-2.24064">
        <ele>13.5126173837</ele>
        <time>2021-05-22T10:26:32.627Z</time>
      </trkpt>
      <trkpt lat="47.25631" lon="-2.24148">
        <ele>13.42921386259</ele>
        <time>2021-05-22T10:26:33.811Z</time>
      </trkpt>
      <trkpt lat="47.25633" lon="-2.24186">
        <ele>13.36413201911</ele>
        <time>2021-05-22T10:26:35.003Z</time>
      </trkpt>
      <trkpt lat="47.25623" lon="-2.24218">
        <ele>13.24615727434</ele>
        <time>2021-05-22T10:26:36.203Z</time>
      </trkpt>
      <trkpt lat="47.25623" lon="-2.24241">
        <ele>13.22343452862</ele>
        <time>2021-05-22T10:26:37.408Z</time>
      </trkpt>
      <trkpt lat="47.25623" lon="-2.24255">
        <ele>13.19619387748</ele>
        <time>2021-05-22T10:26:38.617Z</time>
      </trkpt>
      <trkpt lat="47.25616" lon="-2.24307">
        <ele>13.1324063319</ele>
        <time>2021-05-22T10:26:39.838Z</time>
      </trkpt>
      <trkpt lat="47.2562" lon="-2.24316">
        <ele>13.16157058435</ele>
        <time>2021-05-22T10:26:41.061Z</time>
      </trkpt>
      <trkpt lat="47.2562" lon="-2.2435">
        <ele>13.22269218614</ele>
        <time>2021-05-22T10:26:42.292Z</time>
      </trkpt>
      <trkpt lat="47.25618" lon="-2.24372">
        <ele>13.28490557273</ele>
        <time>2021-05-22T10:26:43.528Z</time>
      </trkpt>
      <trkpt lat="47.25608" lon="-2.24397">
        <ele>13.33401050129</ele>
        <time>2021-05-22T10:26:44.770Z</time>
      </trkpt>
      <trkpt lat="47.25608" lon="-2.24397">
        <ele>13.47100927153</ele>
        <time>2021-05-22T10:26:46.012Z</time>
      </trkpt>
      <trkpt lat="47.25607" lon="-2.24408">
        <ele>13.65797065521</ele>
        <time>2021-05-22T10:26:47.257Z</time>
      </trkpt>
      <trkpt lat="47.25611" lon="-2.2443">
        <ele>13.92740552202</ele>
        <time>2021-05-22T10:26:48.507Z</time>
      </trkpt>
      <trkpt lat="47.25608" lon="-2.24463">
        <ele>14.17546906544</ele>
        <time>2021-05-22T10:26:49.765Z</time>
      </trkpt>
      <trkpt lat="47.25616" lon="-2.24478">
        <ele>14.51240901985</ele>
        <time>2021-05-22T10:26:51.027Z</time>
      </trkpt>
      <trkpt lat="47.25614" lon="-2.24496">
        <ele>14.86080107534</ele>
        <time>2021-05-22T10:26:52.293Z</time>
      </trkpt>
      <trkpt lat="47.25623" lon="-2.2451">
        <ele>15.37224663474</ele>
        <time>2021-05-22T10:26:53.564Z</time>
      </trkpt>
      <trkpt lat="47.25622" lon="-2.2453">
        <ele>15.84396333464</ele>
        <time>2021-05-22T10:26:54.839Z</time>
      </trkpt>
      <trkpt lat="47.25625" lon="-2.24558">
        <ele>16.40478439065</ele>
        <time>2021-05-22T10:26:56.121Z</time>
      </trkpt>
      <trkpt lat="47.25624" lon="-2.24584">
        <ele>16.93569866661</ele>
        <time>2021-05-22T10:26:57.408Z</time>
      </trkpt>
      <trkpt lat="47.25626" lon="-2.24609">
        <ele>17.47254090286</ele>
        <time>2021-05-22T10:26:58.701Z</time>
      </trkpt>
      <trkpt lat="47.25616" lon="-2.24711">
        <ele>18.24863352792</ele>
        <time>2021-05-22T10:27:00.018Z</time>
      </trkpt>
      <trkpt lat="47.25614" lon="-2.24747">
        <ele>18.85648921078</ele>
        <time>2021-05-22T10:27:01.343Z</time>
      </trkpt>
      <trkpt lat="47.25596" lon="-2.24797">
        <ele>19.22726835763</ele>
        <time>2021-05-22T10:27:02.681Z</time>
      </trkpt>
      <trkpt lat="47.25585" lon="-2.24829">
        <ele>19.6159624683</ele>
        <time>2021-05-22T10:27:04.027Z</time>
      </trkpt>
      <trkpt lat="47.25575" lon="-2.24849">
        <ele>20.05552550022</ele>
        <time>2021-05-22T10:27:05.378Z</time>
      </trkpt>
      <trkpt lat="47.25559" lon="-2.24878">
        <ele>20.53536786161</ele>
        <time>2021-05-22T10:27:06.738Z</time>
      </trkpt>
      <trkpt lat="47.25532" lon="-2.24914">
        <ele>20.9946066144</ele>
        <time>2021-05-22T10:27:08.110Z</time>
      </trkpt>
      <trkpt lat="47.25529" lon="-2.24925">
        <ele>21.27482375136</ele>
        <time>2021-05-22T10:27:09.485Z</time>
      </trkpt>
      <trkpt lat="47.25521" lon="-2.24928">
        <ele>21.44750679251</ele>
        <time>2021-05-22T10:27:10.862Z</time>
      </trkpt>
      <trkpt lat="47.25503" lon="-2.24919">
        <ele>21.53368239845</ele>
        <time>2021-05-22T10:27:12.246Z</time>
      </trkpt>
      <trkpt lat="47.25494" lon="-2.24911">
        <ele>21.48648254422</ele>
        <time>2021-05-22T10:27:13.633Z</time>
      </trkpt>
      <trkpt lat="47.25476" lon="-2.2491">
        <ele>21.34424877331</ele>
        <time>2021-05-22T10:27:15.026Z</time>
      </trkpt>
      <trkpt lat="47.25469" lon="-2.24902">
        <ele>21.06453014662</ele>
        <time>2021-05-22T10:27:16.422Z</time>
      </trkpt>
      <trkpt lat="47.25462" lon="-2.24893">
        <ele>20.69228787648</ele>
        <time>2021-05-22T10:27:17.821Z</time>
      </trkpt>
      <trkpt lat="47.25456" lon="-2.24888">
        <ele>20.29372800718</ele>
        <time>2021-05-22T10:27:19.223Z</time>
      </trkpt>
      <trkpt lat="47.25446" lon="-2.24887">
        <ele>19.86908770992</ele>
        <time>2021-05-22T10:27:20.628Z</time>
      </trkpt>
      <trkpt lat="47.25429" lon="-2.24904">
        <ele>19.48800962902</ele>
        <time>2021-05-22T10:27:22.040Z</time>
      </trkpt>
      <trkpt lat="47.25403" lon="-2.24941">
        <ele>19.05979626838</ele>
        <time>2021-05-22T10:27:23.464Z</time>
      </trkpt>
      <trkpt lat="47.25397" lon="-2.24952">
        <ele>18.56854542777</ele>
        <time>2021-05-22T10:27:24.891Z</time>
      </trkpt>
      <trkpt lat="47.25394" lon="-2.24969">
        <ele>18.0884534032</ele>
        <time>2021-05-22T10:27:26.322Z</time>
      </trkpt>
      <trkpt lat="47.25394" lon="-2.24969">
        <ele>17.55226351209</ele>
        <time>2021-05-22T10:27:27.753Z</time>
      </trkpt>
      <trkpt lat="47.25397" lon="-2.25036">
        <ele>17.00358429987</ele>
        <time>2021-05-22T10:27:29.199Z</time>
      </trkpt>
      <trkpt lat="47.25384" lon="-2.2505">
        <ele>16.31437883307</ele>
        <time>2021-05-22T10:27:30.651Z</time>
      </trkpt>
      <trkpt lat="47.25384" lon="-2.25073">
        <ele>15.75096609829</ele>
        <time>2021-05-22T10:27:32.108Z</time>
      </trkpt>
      <trkpt lat="47.25382" lon="-2.25084">
        <ele>15.17840959113</ele>
        <time>2021-05-22T10:27:33.567Z</time>
      </trkpt>
      <trkpt lat="47.25379" lon="-2.2509">
        <ele>14.61676358052</ele>
        <time>2021-05-22T10:27:35.028Z</time>
      </trkpt>
      <trkpt lat="47.25376" lon="-2.251">
        <ele>14.085778816</ele>
        <time>2021-05-22T10:27:36.492Z</time>
      </trkpt>
      <trkpt lat="47.25375" lon="-2.25107">
        <ele>13.59602466484</ele>
        <time>2021-05-22T10:27:37.957Z</time>
      </trkpt>
      <trkpt lat="47.25372" lon="-2.25112">
        <ele>13.1296810722</ele>
        <time>2021-05-22T10:27:39.424Z</time>
      </trkpt>
      <trkpt lat="47.25362" lon="-2.25119">
        <ele>12.65918227116</ele>
        <time>2021-05-22T10:27:40.894Z</time>
      </trkpt>
      <trkpt lat="47.25359" lon="-2.25132">
        <ele>12.2814191344</ele>
        <time>2021-05-22T10:27:42.368Z</time>
      </trkpt>
      <trkpt lat="47.25362" lon="-2.25151">
        <ele>11.98153858242</ele>
        <time>2021-05-22T10:27:43.846Z</time>
      </trkpt>
      <trkpt lat="47.25362" lon="-2.25162">
        <ele>11.71584639366</ele>
        <time>2021-05-22T10:27:45.327Z</time>
      </trkpt>
      <trkpt lat="47.2536" lon="-2.25167">
        <ele>11.49197888713</ele>
        <time>2021-05-22T10:27:46.809Z</time>
      </trkpt>
      <trkpt lat="47.2536" lon="-2.25167">
        <ele>11.32092139591</ele>
        <time>2021-05-22T10:27:48.291Z</time>
      </trkpt>
      <trkpt lat="47.25353" lon="-2.25189">
        <ele>11.18743098298</ele>
        <time>2021-05-22T10:27:49.778Z</time>
      </trkpt>
      <trkpt lat="47.25345" lon="-2.25195">
        <ele>11.08706755001</ele>
        <time>2021-05-22T10:27:51.268Z</time>
      </trkpt>
      <trkpt lat="47.25347" lon="-2.25212">
        <ele>11.08202282874</ele>
        <time>2021-05-22T10:27:52.762Z</time>
      </trkpt>
      <trkpt lat="47.25345" lon="-2.25219">
        <ele>11.07587680595</ele>
        <time>2021-05-22T10:27:54.258Z</time>
      </trkpt>
      <trkpt lat="47.25336" lon="-2.25228">
        <ele>11.0601081199</ele>
        <time>2021-05-22T10:27:55.758Z</time>
      </trkpt>
      <trkpt lat="47.25336" lon="-2.25234">
        <ele>11.1240451953</ele>
        <time>2021-05-22T10:27:57.259Z</time>
      </trkpt>
      <trkpt lat="47.2535" lon="-2.25243">
        <ele>11.30282163542</ele>
        <time>2021-05-22T10:27:58.765Z</time>
      </trkpt>
      <trkpt lat="47.25357" lon="-2.25255">
        <ele>11.45467336865</ele>
        <time>2021-05-22T10:28:00.275Z</time>
      </trkpt>
      <trkpt lat="47.25358" lon="-2.25263">
        <ele>11.58860134534</ele>
        <time>2021-05-22T10:28:01.787Z</time>
      </trkpt>
      <trkpt lat="47.25357" lon="-2.25291">
        <ele>11.71515618703</ele>
        <time>2021-05-22T10:28:03.305Z</time>
      </trkpt>
      <trkpt lat="47.25355" lon="-2.25306">
        <ele>11.84960817562</ele>
        <time>2021-05-22T10:28:04.826Z</time>
      </trkpt>
      <trkpt lat="47.25349" lon="-2.25313">
        <ele>11.97322614293</ele>
        <time>2021-05-22T10:28:06.350Z</time>
      </trkpt>
      <trkpt lat="47.25343" lon="-2.25325">
        <ele>12.10055004392</ele>
        <time>2021-05-22T10:28:07.877Z</time>
      </trkpt>
      <trkpt lat="47.25343" lon="-2.25373">
        <ele>12.27715956394</ele>
        <time>2021-05-22T10:28:09.415Z</time>
      </trkpt>
      <trkpt lat="47.25345" lon="-2.25374">
        <ele>12.41547367955</ele>
        <time>2021-05-22T10:28:10.954Z</time>
      </trkpt>
      <trkpt lat="47.25351" lon="-2.25379">
        <ele>12.54302565876</ele>
        <time>2021-05-22T10:28:12.495Z</time>
      </trkpt>
      <trkpt lat="47.25354" lon="-2.25384">
        <ele>12.65195693526</ele>
        <time>2021-05-22T10:28:14.038Z</time>
      </trkpt>
      <trkpt lat="47.25347" lon="-2.25404">
        <ele>12.77337105008</ele>
        <time>2021-05-22T10:28:15.586Z</time>
      </trkpt>
      <trkpt lat="47.25341" lon="-2.25412">
        <ele>12.82615004809</ele>
        <time>2021-05-22T10:28:17.137Z</time>
      </trkpt>
      <trkpt lat="47.25327" lon="-2.25414">
        <ele>12.81600487703</ele>
        <time>2021-05-22T10:28:18.692Z</time>
      </trkpt>
      <trkpt lat="47.25318" lon="-2.25419">
        <ele>12.80547906988</ele>
        <time>2021-05-22T10:28:20.250Z</time>
      </trkpt>
      <trkpt lat="47.2529" lon="-2.25396">
        <ele>12.68911985485</ele>
        <time>2021-05-22T10:28:21.819Z</time>
      </trkpt>
      <trkpt lat="47.25282" lon="-2.25383">
        <ele>12.53469646828</ele>
        <time>2021-05-22T10:28:23.392Z</time>
      </trkpt>
      <trkpt lat="47.25279" lon="-2.25369">
        <ele>12.33960370048</ele>
        <time>2021-05-22T10:28:24.969Z</time>
      </trkpt>
      <trkpt lat="47.25277" lon="-2.25369">
        <ele>12.14985563776</ele>
        <time>2021-05-22T10:28:26.546Z</time>
      </trkpt>
      <trkpt lat="47.2527" lon="-2.25379">
        <ele>11.95426361746</ele>
        <time>2021-05-22T10:28:28.126Z</time>
      </trkpt>
      <trkpt lat="47.25274" lon="-2.254">
        <ele>11.76749008793</ele>
        <time>2021-05-22T10:28:29.712Z</time>
      </trkpt>
      <trkpt lat="47.25265" lon="-2.25411">
        <ele>11.4940583458</ele>
        <time>2021-05-22T10:28:31.302Z</time>
      </trkpt>
      <trkpt lat="47.25255" lon="-2.25404">
        <ele>11.13628536669</ele>
        <time>2021-05-22T10:28:32.895Z</time>
      </trkpt>
      <trkpt lat="47.25252" lon="-2.25414">
        <ele>10.82815893956</ele>
        <time>2021-05-22T10:28:34.491Z</time>
      </trkpt>
      <trkpt lat="47.25242" lon="-2.25424">
        <ele>10.47574572121</ele>
        <time>2021-05-22T10:28:36.090Z</time>
      </trkpt>
      <trkpt lat="47.25241" lon="-2.25444">
        <ele>10.18468946423</ele>
        <time>2021-05-22T10:28:37.694Z</time>
      </trkpt>
      <trkpt lat="47.25236" lon="-2.25459">
        <ele>9.88467473053</ele>
        <time>2021-05-22T10:28:39.302Z</time>
      </trkpt>
      <trkpt lat="47.25218" lon="-2.25486">
        <ele>9.56604605194</ele>
        <time>2021-05-22T10:28:40.919Z</time>
      </trkpt>
      <trkpt lat="47.25206" lon="-2.25499">
        <ele>9.29104379343</ele>
        <time>2021-05-22T10:28:42.540Z</time>
      </trkpt>
      <trkpt lat="47.25205" lon="-2.25512">
        <ele>9.13324427158</ele>
        <time>2021-05-22T10:28:44.164Z</time>
      </trkpt>
      <trkpt lat="47.25197" lon="-2.25519">
        <ele>8.97102894074</ele>
        <time>2021-05-22T10:28:45.791Z</time>
      </trkpt>
      <trkpt lat="47.25173" lon="-2.25513">
        <ele>8.70664396796</ele>
        <time>2021-05-22T10:28:47.427Z</time>
      </trkpt>
      <trkpt lat="47.25156" lon="-2.25541">
        <ele>8.74692138448</ele>
        <time>2021-05-22T10:28:49.071Z</time>
      </trkpt>
      <trkpt lat="47.2515" lon="-2.25573">
        <ele>8.98132182832</ele>
        <time>2021-05-22T10:28:50.723Z</time>
      </trkpt>
      <trkpt lat="47.2514" lon="-2.25574">
        <ele>9.1701925698</ele>
        <time>2021-05-22T10:28:52.378Z</time>
      </trkpt>
      <trkpt lat="47.25128" lon="-2.25583">
        <ele>9.52750214881</ele>
        <time>2021-05-22T10:28:54.038Z</time>
      </trkpt>
      <trkpt lat="47.25119" lon="-2.25602">
        <ele>10.11466780201</ele>
        <time>2021-05-22T10:28:55.703Z</time>
      </trkpt>
      <trkpt lat="47.25118" lon="-2.25602">
        <ele>10.73855850133</ele>
        <time>2021-05-22T10:28:57.368Z</time>
      </trkpt>
      <trkpt lat="47.25109" lon="-2.25596">
        <ele>11.43548150941</ele>
        <time>2021-05-22T10:28:59.036Z</time>
      </trkpt>
      <trkpt lat="47.25095" lon="-2.25607">
        <ele>12.34560266585</ele>
        <time>2021-05-22T10:29:00.710Z</time>
      </trkpt>
      <trkpt lat="47.25093" lon="-2.2562">
        <ele>13.42740195154</ele>
        <time>2021-05-22T10:29:02.387Z</time>
      </trkpt>
      <trkpt lat="47.25089" lon="-2.2565">
        <ele>14.67175268993</ele>
        <time>2021-05-22T10:29:04.070Z</time>
      </trkpt>
      <trkpt lat="47.25086" lon="-2.2566">
        <ele>15.92731277658</ele>
        <time>2021-05-22T10:29:05.756Z</time>
      </trkpt>
      <trkpt lat="47.2507" lon="-2.2568">
        <ele>17.26787229871</ele>
        <time>2021-05-22T10:29:07.449Z</time>
      </trkpt>
      <trkpt lat="47.25063" lon="-2.25707">
        <ele>18.6917176891</ele>
        <time>2021-05-22T10:29:09.148Z</time>
      </trkpt>
      <trkpt lat="47.25065" lon="-2.25811">
        <ele>20.51857833299</ele>
        <time>2021-05-22T10:29:10.871Z</time>
      </trkpt>
      <trkpt lat="47.25062" lon="-2.25828">
        <ele>22.02531747822</ele>
        <time>2021-05-22T10:29:12.598Z</time>
      </trkpt>
      <trkpt lat="47.25062" lon="-2.25828">
        <ele>23.46383680659</ele>
        <time>2021-05-22T10:29:14.325Z</time>
      </trkpt>
      <trkpt lat="47.25059" lon="-2.25848">
        <ele>24.91139258273</ele>
        <time>2021-05-22T10:29:16.057Z</time>
      </trkpt>
      <trkpt lat="47.25052" lon="-2.25867">
        <ele>26.27947716956</ele>
        <time>2021-05-22T10:29:17.794Z</time>
      </trkpt>
      <trkpt lat="47.25043" lon="-2.25877">
        <ele>27.54499484876</ele>
        <time>2021-05-22T10:29:19.535Z</time>
      </trkpt>
      <trkpt lat="47.25025" lon="-2.25954">
        <ele>28.82121882712</ele>
        <time>2021-05-22T10:29:21.294Z</time>
      </trkpt>
      <trkpt lat="47.25019" lon="-2.26005">
        <ele>29.86056165767</ele>
        <time>2021-05-22T10:29:23.065Z</time>
      </trkpt>
      <trkpt lat="47.25015" lon="-2.26021">
        <ele>30.75973412996</ele>
        <time>2021-05-22T10:29:24.840Z</time>
      </trkpt>
      <trkpt lat="47.24998" lon="-2.26054">
        <ele>31.59981646284</ele>
        <time>2021-05-22T10:29:26.624Z</time>
      </trkpt>
      <trkpt lat="47.24992" lon="-2.26077">
        <ele>32.35248321164</ele>
        <time>2021-05-22T10:29:28.414Z</time>
      </trkpt>
      <trkpt lat="47.2499" lon="-2.26113">
        <ele>33.04995890339</ele>
        <time>2021-05-22T10:29:30.212Z</time>
      </trkpt>
      <trkpt lat="47.24994" lon="-2.26165">
        <ele>33.63152923517</ele>
        <time>2021-05-22T10:29:32.022Z</time>
      </trkpt>
      <trkpt lat="47.25" lon="-2.26254">
        <ele>33.97255654235</ele>
        <time>2021-05-22T10:29:33.852Z</time>
      </trkpt>
      <trkpt lat="47.25004" lon="-2.26267">
        <ele>34.22822988028</ele>
        <time>2021-05-22T10:29:35.685Z</time>
      </trkpt>
      <trkpt lat="47.25006" lon="-2.26274">
        <ele>34.42802255097</ele>
        <time>2021-05-22T10:29:37.520Z</time>
      </trkpt>
      <trkpt lat="47.25008" lon="-2.26282">
        <ele>34.56574452772</ele>
        <time>2021-05-22T10:29:39.357Z</time>
      </trkpt>
      <trkpt lat="47.25014" lon="-2.26363">
        <ele>34.66974530225</ele>
        <time>2021-05-22T10:29:41.213Z</time>
      </trkpt>
      <trkpt lat="47.25001" lon="-2.2637">
        <ele>34.74327955363</ele>
        <time>2021-05-22T10:29:43.073Z</time>
      </trkpt>
      <trkpt lat="47.24962" lon="-2.26401">
        <ele>34.82205783778</ele>
        <time>2021-05-22T10:29:44.948Z</time>
      </trkpt>
      <trkpt lat="47.24964" lon="-2.26427">
        <ele>34.83365050866</ele>
        <time>2021-05-22T10:29:46.829Z</time>
      </trkpt>
      <trkpt lat="47.24941" lon="-2.26431">
        <ele>34.77774028842</ele>
        <time>2021-05-22T10:29:48.718Z</time>
      </trkpt>
      <trkpt lat="47.24938" lon="-2.26426">
        <ele>34.74080700614</ele>
        <time>2021-05-22T10:29:50.608Z</time>
      </trkpt>
      <trkpt lat="47.24934" lon="-2.26424">
        <ele>34.70611512712</ele>
        <time>2021-05-22T10:29:52.499Z</time>
      </trkpt>
      <trkpt lat="47.2493" lon="-2.26426">
        <ele>34.6753157736</ele>
        <time>2021-05-22T10:29:54.392Z</time>
      </trkpt>
      <trkpt lat="47.24928" lon="-2.2643">
        <ele>34.65286856622</ele>
        <time>2021-05-22T10:29:56.286Z</time>
      </trkpt>
      <trkpt lat="47.24928" lon="-2.26435">
        <ele>34.64185465923</ele>
        <time>2021-05-22T10:29:58.181Z</time>
      </trkpt>
      <trkpt lat="47.24832" lon="-2.26458">
        <ele>34.71966466516</ele>
        <time>2021-05-22T10:30:00.109Z</time>
      </trkpt>
      <trkpt lat="47.24809" lon="-2.26458">
        <ele>34.69994807315</ele>
        <time>2021-05-22T10:30:02.045Z</time>
      </trkpt>
      <trkpt lat="47.2479" lon="-2.26453">
        <ele>34.72125438219</ele>
        <time>2021-05-22T10:30:03.987Z</time>
      </trkpt>
      <trkpt lat="47.24771" lon="-2.26447">
        <ele>34.73079746531</ele>
        <time>2021-05-22T10:30:05.935Z</time>
      </trkpt>
      <trkpt lat="47.24725" lon="-2.26426">
        <ele>34.75505592557</ele>
        <time>2021-05-22T10:30:07.899Z</time>
      </trkpt>
      <trkpt lat="47.24659" lon="-2.26392">
        <ele>34.83857820648</ele>
        <time>2021-05-22T10:30:09.887Z</time>
      </trkpt>
      <trkpt lat="47.24639" lon="-2.26385">
        <ele>34.86728188138</ele>
        <time>2021-05-22T10:30:11.882Z</time>
      </trkpt>
      <trkpt lat="47.2462" lon="-2.26381">
        <ele>34.90934238608</ele>
        <time>2021-05-22T10:30:13.883Z</time>
      </trkpt>
      <trkpt lat="47.24579" lon="-2.26384">
        <ele>34.94951612478</ele>
        <time>2021-05-22T10:30:15.898Z</time>
      </trkpt>
      <trkpt lat="47.24527" lon="-2.26404">
        <ele>34.93806695629</ele>
        <time>2021-05-22T10:30:17.931Z</time>
      </trkpt>
      <trkpt lat="47.24489" lon="-2.26421">
        <ele>35.00380313566</ele>
        <time>2021-05-22T10:30:19.977Z</time>
      </trkpt>
      <trkpt lat="47.24413" lon="-2.26465">
        <ele>34.96846068499</ele>
        <time>2021-05-22T10:30:22.050Z</time>
      </trkpt>
      <trkpt lat="47.24413" lon="-2.26465">
        <ele>34.87321043148</ele>
        <time>2021-05-22T10:30:24.123Z</time>
      </trkpt>
      <trkpt lat="47.24385" lon="-2.26485">
        <ele>34.67045470711</ele>
        <time>2021-05-22T10:30:26.206Z</time>
      </trkpt>
      <trkpt lat="47.2434" lon="-2.26521">
        <ele>34.38537240662</ele>
        <time>2021-05-22T10:30:28.307Z</time>
      </trkpt>
      <trkpt lat="47.24295" lon="-2.26563">
        <ele>34.05603382916</ele>
        <time>2021-05-22T10:30:30.425Z</time>
      </trkpt>
      <trkpt lat="47.24267" lon="-2.2659">
        <ele>33.63484240094</ele>
        <time>2021-05-22T10:30:32.555Z</time>
      </trkpt>
      <trkpt lat="47.24267" lon="-2.2659">
        <ele>33.17063331783</ele>
        <time>2021-05-22T10:30:34.685Z</time>
      </trkpt>
      <trkpt lat="47.24221" lon="-2.26634">
        <ele>32.66901170599</ele>
        <time>2021-05-22T10:30:36.833Z</time>
      </trkpt>
      <trkpt lat="47.24182" lon="-2.26672">
        <ele>32.04510831494</ele>
        <time>2021-05-22T10:30:38.996Z</time>
      </trkpt>
      <trkpt lat="47.24174" lon="-2.26683">
        <ele>31.26842952536</ele>
        <time>2021-05-22T10:30:41.163Z</time>
      </trkpt>
      <trkpt lat="47.2416" lon="-2.26703">
        <ele>30.35361147887</ele>
        <time>2021-05-22T10:30:43.337Z</time>
      </trkpt>
      <trkpt lat="47.24148" lon="-2.26723">
        <ele>29.26729962943</ele>
        <time>2021-05-22T10:30:45.517Z</time>
      </trkpt>
      <trkpt lat="47.24131" lon="-2.26756">
        <ele>28.0304327115</ele>
        <time>2021-05-22T10:30:47.706Z</time>
      </trkpt>
      <trkpt lat="47.24117" lon="-2.26795">
        <ele>26.70820086438</ele>
        <time>2021-05-22T10:30:49.905Z</time>
      </trkpt>
      <trkpt lat="47.24106" lon="-2.26841">
        <ele>25.27341839637</ele>
        <time>2021-05-22T10:30:52.115Z</time>
      </trkpt>
      <trkpt lat="47.24106" lon="-2.26841">
        <ele>23.80418380717</ele>
        <time>2021-05-22T10:30:54.325Z</time>
      </trkpt>
      <trkpt lat="47.24102" lon="-2.26874">
        <ele>22.20215296725</ele>
        <time>2021-05-22T10:30:56.543Z</time>
      </trkpt>
      <trkpt lat="47.24101" lon="-2.26995">
        <ele>20.32955046517</ele>
        <time>2021-05-22T10:30:58.788Z</time>
      </trkpt>
      <trkpt lat="47.24086" lon="-2.26999">
        <ele>18.72386284478</ele>
        <time>2021-05-22T10:31:01.038Z</time>
      </trkpt>
      <trkpt lat="47.24052" lon="-2.27005">
        <ele>17.11380791474</ele>
        <time>2021-05-22T10:31:03.300Z</time>
      </trkpt>
      <trkpt lat="47.24013" lon="-2.27035">
        <ele>15.43114619941</ele>
        <time>2021-05-22T10:31:05.577Z</time>
      </trkpt>
      <trkpt lat="47.23992" lon="-2.27105">
        <ele>13.9501327752</ele>
        <time>2021-05-22T10:31:07.871Z</time>
      </trkpt>
      <trkpt lat="47.23984" lon="-2.27151">
        <ele>12.5004745136</ele>
        <time>2021-05-22T10:31:10.176Z</time>
      </trkpt>
      <trkpt lat="47.23993" lon="-2.27206">
        <ele>11.42838590405</ele>
        <time>2021-05-22T10:31:12.494Z</time>
      </trkpt>
      <trkpt lat="47.24001" lon="-2.27278">
        <ele>10.33377434926</ele>
        <time>2021-05-22T10:31:14.828Z</time>
      </trkpt>
      <trkpt lat="47.23997" lon="-2.27334">
        <ele>9.25877478781</ele>
        <time>2021-05-22T10:31:17.175Z</time>
      </trkpt>
      <trkpt lat="47.23984" lon="-2.27392">
        <ele>8.3322252099</ele>
        <time>2021-05-22T10:31:19.536Z</time>
      </trkpt>
      <trkpt lat="47.23972" lon="-2.27438">
        <ele>7.68054033233</ele>
        <time>2021-05-22T10:31:21.908Z</time>
      </trkpt>
      <trkpt lat="47.23947" lon="-2.27499">
        <ele>7.0897694271</ele>
        <time>2021-05-22T10:31:24.296Z</time>
      </trkpt>
      <trkpt lat="47.23943" lon="-2.27512">
        <ele>6.68376402437</ele>
        <time>2021-05-22T10:31:26.687Z</time>
      </trkpt>
      <trkpt lat="47.23943" lon="-2.27512">
        <ele>6.38579813475</ele>
        <time>2021-05-22T10:31:29.078Z</time>
      </trkpt>
      <trkpt lat="47.23942" lon="-2.27511">
        <ele>6.204147869</ele>
        <time>2021-05-22T10:31:31.470Z</time>
      </trkpt>
      <trkpt lat="47.23939" lon="-2.27519">
        <ele>6.1563481317</ele>
        <time>2021-05-22T10:31:33.864Z</time>
      </trkpt>
      <trkpt lat="47.23937" lon="-2.27528">
        <ele>6.25270646407</ele>
        <time>2021-05-22T10:31:36.260Z</time>
      </trkpt>
      <trkpt lat="47.23932" lon="-2.27532">
        <ele>6.39149569428</ele>
        <time>2021-05-22T10:31:38.658Z</time>
      </trkpt>
      <trkpt lat="47.23923" lon="-2.27537">
        <ele>6.5965467153</ele>
        <time>2021-05-22T10:31:41.059Z</time>
      </trkpt>
      <trkpt lat="47.23917" lon="-2.27541">
        <ele>6.8917345077</ele>
        <time>2021-05-22T10:31:43.462Z</time>
      </trkpt>
      <trkpt lat="47.23913" lon="-2.27544">
        <ele>7.26374972966</ele>
        <time>2021-05-22T10:31:45.867Z</time>
      </trkpt>
      <trkpt lat="47.23907" lon="-2.27552">
        <ele>7.72879963107</ele>
        <time>2021-05-22T10:31:48.274Z</time>
      </trkpt>
      <trkpt lat="47.23901" lon="-2.27559">
        <ele>8.23436129456</ele>
        <time>2021-05-22T10:31:50.684Z</time>
      </trkpt>
      <trkpt lat="47.23898" lon="-2.27566">
        <ele>8.81170571128</ele>
        <time>2021-05-22T10:31:53.096Z</time>
      </trkpt>
      <trkpt lat="47.23893" lon="-2.27573">
        <ele>9.41871733062</ele>
        <time>2021-05-22T10:31:55.510Z</time>
      </trkpt>
      <trkpt lat="47.23888" lon="-2.27578">
        <ele>10.04906111163</ele>
        <time>2021-05-22T10:31:57.926Z</time>
      </trkpt>
      <trkpt lat="47.23881" lon="-2.27577">
        <ele>10.65569087024</ele>
        <time>2021-05-22T10:32:00.344Z</time>
      </trkpt>
      <trkpt lat="47.23876" lon="-2.27578">
        <ele>11.32717785234</ele>
        <time>2021-05-22T10:32:02.764Z</time>
      </trkpt>
      <trkpt lat="47.23873" lon="-2.27587">
        <ele>12.10765712594</ele>
        <time>2021-05-22T10:32:05.186Z</time>
      </trkpt>
      <trkpt lat="47.23868" lon="-2.27592">
        <ele>12.85386976518</ele>
        <time>2021-05-22T10:32:07.610Z</time>
      </trkpt>
      <trkpt lat="47.23865" lon="-2.27597">
        <ele>13.60828959642</ele>
        <time>2021-05-22T10:32:10.036Z</time>
      </trkpt>
      <trkpt lat="47.2386" lon="-2.27603">
        <ele>14.35551384001</ele>
        <time>2021-05-22T10:32:12.464Z</time>
      </trkpt>
      <trkpt lat="47.23854" lon="-2.27605">
        <ele>15.05119163688</ele>
        <time>2021-05-22T10:32:14.894Z</time>
      </trkpt>
      <trkpt lat="47.23861" lon="-2.27609">
        <ele>15.77027652706</ele>
        <time>2021-05-22T10:32:17.327Z</time>
      </trkpt>
      <trkpt lat="47.23867" lon="-2.27609">
        <ele>16.40623882935</ele>
        <time>2021-05-22T10:32:19.762Z</time>
      </trkpt>
      <trkpt lat="47.23871" lon="-2.27622">
        <ele>17.06821723923</ele>
        <time>2021-05-22T10:32:22.200Z</time>
      </trkpt>
      <trkpt lat="47.23874" lon="-2.2763">
        <ele>17.59760785619</ele>
        <time>2021-05-22T10:32:24.640Z</time>
      </trkpt>
      <trkpt lat="47.23868" lon="-2.27627">
        <ele>17.97767095797</ele>
        <time>2021-05-22T10:32:27.082Z</time>
      </trkpt>
      <trkpt lat="47.2386" lon="-2.27633">
        <ele>18.31186579905</ele>
        <time>2021-05-22T10:32:29.527Z</time>
      </trkpt>
      <trkpt lat="47.23855" lon="-2.27637">
        <ele>18.52241635002</ele>
        <time>2021-05-22T10:32:31.974Z</time>
      </trkpt>
      <trkpt lat="47.23847" lon="-2.27641">
        <ele>18.61791738937</ele>
        <time>2021-05-22T10:32:34.424Z</time>
      </trkpt>
      <trkpt lat="47.23841" lon="-2.27641">
        <ele>18.59160541552</ele>
        <time>2021-05-22T10:32:36.876Z</time>
      </trkpt>
      <trkpt lat="47.23835" lon="-2.27644">
        <ele>18.47406050868</ele>
        <time>2021-05-22T10:32:39.330Z</time>
      </trkpt>
      <trkpt lat="47.23827" lon="-2.27646">
        <ele>18.25107078891</ele>
        <time>2021-05-22T10:32:41.787Z</time>
      </trkpt>
      <trkpt lat="47.23821" lon="-2.27643">
        <ele>17.897456977</ele>
        <time>2021-05-22T10:32:44.246Z</time>
      </trkpt>
      <trkpt lat="47.23817" lon="-2.27647">
        <ele>17.51075039939</ele>
        <time>2021-05-22T10:32:46.706Z</time>
      </trkpt>
      <trkpt lat="47.2381" lon="-2.2765">
        <ele>17.03331394924</ele>
        <time>2021-05-22T10:32:49.169Z</time>
      </trkpt>
      <trkpt lat="47.23805" lon="-2.27651">
        <ele>16.51751278244</ele>
        <time>2021-05-22T10:32:51.633Z</time>
      </trkpt>
      <trkpt lat="47.23797" lon="-2.27654">
        <ele>15.95064685899</ele>
        <time>2021-05-22T10:32:54.100Z</time>
      </trkpt>
      <trkpt lat="47.23793" lon="-2.2766">
        <ele>15.40822787749</ele>
        <time>2021-05-22T10:32:56.569Z</time>
      </trkpt>
      <trkpt lat="47.2379" lon="-2.27667">
        <ele>14.86437436974</ele>
        <time>2021-05-22T10:32:59.040Z</time>
      </trkpt>
      <trkpt lat="47.23787" lon="-2.27673">
        <ele>14.31858712101</ele>
        <time>2021-05-22T10:33:01.513Z</time>
      </trkpt>
      <trkpt lat="47.23787" lon="-2.27681">
        <ele>13.80959898343</ele>
        <time>2021-05-22T10:33:03.987Z</time>
      </trkpt>
      <trkpt lat="47.23786" lon="-2.27692">
        <ele>13.31281718267</ele>
        <time>2021-05-22T10:33:06.464Z</time>
      </trkpt>
      <trkpt lat="47.2378" lon="-2.27706">
        <ele>12.79809027086</ele>
        <time>2021-05-22T10:33:08.945Z</time>
      </trkpt>
      <trkpt lat="47.23777" lon="-2.27718">
        <ele>12.32649257915</ele>
        <time>2021-05-22T10:33:11.429Z</time>
      </trkpt>
      <trkpt lat="47.23777" lon="-2.27726">
        <ele>11.89134755978</ele>
        <time>2021-05-22T10:33:13.914Z</time>
      </trkpt>
      <trkpt lat="47.23778" lon="-2.27734">
        <ele>11.49015659605</ele>
        <time>2021-05-22T10:33:16.401Z</time>
      </trkpt>
      <trkpt lat="47.23779" lon="-2.27742">
        <ele>11.10409248895</ele>
        <time>2021-05-22T10:33:18.890Z</time>
      </trkpt>
      <trkpt lat="47.23781" lon="-2.27748">
        <ele>10.74192463184</ele>
        <time>2021-05-22T10:33:21.381Z</time>
      </trkpt>
      <trkpt lat="47.23789" lon="-2.27746">
        <ele>10.46369905371</ele>
        <time>2021-05-22T10:33:23.874Z</time>
      </trkpt>
      <trkpt lat="47.23782" lon="-2.27747">
        <ele>10.09047698503</ele>
        <time>2021-05-22T10:33:26.370Z</time>
      </trkpt>
      <trkpt lat="47.23783" lon="-2.2776">
        <ele>9.75815122212</ele>
        <time>2021-05-22T10:33:28.869Z</time>
      </trkpt>
      <trkpt lat="47.23778" lon="-2.27773">
        <ele>9.39904344926</ele>
        <time>2021-05-22T10:33:31.371Z</time>
      </trkpt>
      <trkpt lat="47.2378" lon="-2.27781">
        <ele>9.14401845926</ele>
        <time>2021-05-22T10:33:33.875Z</time>
      </trkpt>
      <trkpt lat="47.23785" lon="-2.27788">
        <ele>8.925054398</ele>
        <time>2021-05-22T10:33:36.381Z</time>
      </trkpt>
      <trkpt lat="47.23785" lon="-2.27801">
        <ele>8.67286642354</ele>
        <time>2021-05-22T10:33:38.890Z</time>
      </trkpt>
      <trkpt lat="47.23785" lon="-2.27812">
        <ele>8.48316825237</ele>
        <time>2021-05-22T10:33:41.402Z</time>
      </trkpt>
      <trkpt lat="47.23789" lon="-2.27806">
        <ele>8.3559001094</ele>
        <time>2021-05-22T10:33:43.916Z</time>
      </trkpt>
      <trkpt lat="47.23794" lon="-2.27803">
        <ele>8.2519003505</ele>
        <time>2021-05-22T10:33:46.431Z</time>
      </trkpt>
      <trkpt lat="47.238" lon="-2.27804">
        <ele>8.16371236784</ele>
        <time>2021-05-22T10:33:48.948Z</time>
      </trkpt>
      <trkpt lat="47.23806" lon="-2.27805">
        <ele>8.08667307419</ele>
        <time>2021-05-22T10:33:51.468Z</time>
      </trkpt>
      <trkpt lat="47.2381" lon="-2.27812">
        <ele>8.01189073622</ele>
        <time>2021-05-22T10:33:53.990Z</time>
      </trkpt>
      <trkpt lat="47.23806" lon="-2.27817">
        <ele>7.93917754981</ele>
        <time>2021-05-22T10:33:56.513Z</time>
      </trkpt>
      <trkpt lat="47.23799" lon="-2.27823">
        <ele>7.86907107214</ele>
        <time>2021-05-22T10:33:59.039Z</time>
      </trkpt>
      <trkpt lat="47.23795" lon="-2.27831">
        <ele>7.80766189624</ele>
        <time>2021-05-22T10:34:01.567Z</time>
      </trkpt>
      <trkpt lat="47.23791" lon="-2.27845">
        <ele>7.75607812976</ele>
        <time>2021-05-22T10:34:04.099Z</time>
      </trkpt>
      <trkpt lat="47.23791" lon="-2.27855">
        <ele>7.71903154434</ele>
        <time>2021-05-22T10:34:06.633Z</time>
      </trkpt>
      <trkpt lat="47.23793" lon="-2.27871">
        <ele>7.69593372008</ele>
        <time>2021-05-22T10:34:09.171Z</time>
      </trkpt>
      <trkpt lat="47.23796" lon="-2.27887">
        <ele>7.66227055563</ele>
        <time>2021-05-22T10:34:11.712Z</time>
      </trkpt>
      <trkpt lat="47.23797" lon="-2.27896">
        <ele>7.62141108056</ele>
        <time>2021-05-22T10:34:14.256Z</time>
      </trkpt>
      <trkpt lat="47.23797" lon="-2.27904">
        <ele>7.57254988896</ele>
        <time>2021-05-22T10:34:16.801Z</time>
      </trkpt>
      <trkpt lat="47.238" lon="-2.2792">
        <ele>7.51713598123</ele>
        <time>2021-05-22T10:34:19.350Z</time>
      </trkpt>
      <trkpt lat="47.238" lon="-2.2793">
        <ele>7.45027012199</ele>
        <time>2021-05-22T10:34:21.901Z</time>
      </trkpt>
      <trkpt lat="47.23799" lon="-2.27938">
        <ele>7.37364397034</ele>
        <time>2021-05-22T10:34:24.454Z</time>
      </trkpt>
      <trkpt lat="47.23797" lon="-2.2795">
        <ele>7.28194149018</ele>
        <time>2021-05-22T10:34:27.010Z</time>
      </trkpt>
      <trkpt lat="47.23797" lon="-2.27962">
        <ele>7.18488924159</ele>
        <time>2021-05-22T10:34:29.569Z</time>
      </trkpt>
      <trkpt lat="47.23798" lon="-2.27973">
        <ele>7.08223321458</ele>
        <time>2021-05-22T10:34:32.130Z</time>
      </trkpt>
      <trkpt lat="47.238" lon="-2.27982">
        <ele>6.97732154212</ele>
        <time>2021-05-22T10:34:34.693Z</time>
      </trkpt>
      <trkpt lat="47.23801" lon="-2.27994">
        <ele>6.86591500183</ele>
        <time>2021-05-22T10:34:37.259Z</time>
      </trkpt>
      <trkpt lat="47.23803" lon="-2.28005">
        <ele>6.7275192904</ele>
        <time>2021-05-22T10:34:39.828Z</time>
      </trkpt>
      <trkpt lat="47.23801" lon="-2.28012">
        <ele>6.59537023582</ele>
        <time>2021-05-22T10:34:42.399Z</time>
      </trkpt>
      <trkpt lat="47.23802" lon="-2.28019">
        <ele>6.48700925892</ele>
        <time>2021-05-22T10:34:44.971Z</time>
      </trkpt>
      <trkpt lat="47.23802" lon="-2.28029">
        <ele>6.41096414283</ele>
        <time>2021-05-22T10:34:47.545Z</time>
      </trkpt>
      <trkpt lat="47.23804" lon="-2.28037">
        <ele>6.36983949206</ele>
        <time>2021-05-22T10:34:50.121Z</time>
      </trkpt>
      <trkpt lat="47.23807" lon="-2.28048">
        <ele>6.35227891915</ele>
        <time>2021-05-22T10:34:52.700Z</time>
      </trkpt>
      <trkpt lat="47.23809" lon="-2.28039">
        <ele>6.3814686377</ele>
        <time>2021-05-22T10:34:55.281Z</time>
      </trkpt>
      <trkpt lat="47.23808" lon="-2.28032">
        <ele>6.42011261407</ele>
        <time>2021-05-22T10:34:57.864Z</time>
      </trkpt>
      <trkpt lat="47.23809" lon="-2.28023">
        <ele>6.50939630046</ele>
        <time>2021-05-22T10:35:00.449Z</time>
      </trkpt>
      <trkpt lat="47.23802" lon="-2.2802">
        <ele>6.59697536623</ele>
        <time>2021-05-22T10:35:03.036Z</time>
      </trkpt>
      <trkpt lat="47.23802" lon="-2.28028">
        <ele>6.7715273882</ele>
        <time>2021-05-22T10:35:05.625Z</time>
      </trkpt>
      <trkpt lat="47.23807" lon="-2.28032">
        <ele>7.02446004277</ele>
        <time>2021-05-22T10:35:08.216Z</time>
      </trkpt>
      <trkpt lat="47.23813" lon="-2.28043">
        <ele>7.32208429064</ele>
        <time>2021-05-22T10:35:10.810Z</time>
      </trkpt>
      <trkpt lat="47.23816" lon="-2.28057">
        <ele>7.66166723118</ele>
        <time>2021-05-22T10:35:13.408Z</time>
      </trkpt>
      <trkpt lat="47.23817" lon="-2.28065">
        <ele>8.05097096867</ele>
        <time>2021-05-22T10:35:16.007Z</time>
      </trkpt>
      <trkpt lat="47.2382" lon="-2.28073">
        <ele>8.49483285345</ele>
        <time>2021-05-22T10:35:18.608Z</time>
      </trkpt>
      <trkpt lat="47.2382" lon="-2.28081">
        <ele>8.97413256176</ele>
        <time>2021-05-22T10:35:21.211Z</time>
      </trkpt>
      <trkpt lat="47.23821" lon="-2.28089">
        <ele>9.49323282551</ele>
        <time>2021-05-22T10:35:23.816Z</time>
      </trkpt>
      <trkpt lat="47.23821" lon="-2.28097">
        <ele>10.04096522177</ele>
        <time>2021-05-22T10:35:26.423Z</time>
      </trkpt>
      <trkpt lat="47.23822" lon="-2.28104">
        <ele>10.62011648517</ele>
        <time>2021-05-22T10:35:29.032Z</time>
      </trkpt>
      <trkpt lat="47.23822" lon="-2.28118">
        <ele>11.2493689492</ele>
        <time>2021-05-22T10:35:31.644Z</time>
      </trkpt>
      <trkpt lat="47.23821" lon="-2.28135">
        <ele>11.90415927004</ele>
        <time>2021-05-22T10:35:34.260Z</time>
      </trkpt>
      <trkpt lat="47.2382" lon="-2.28144">
        <ele>12.5478941406</ele>
        <time>2021-05-22T10:35:36.878Z</time>
      </trkpt>
      <trkpt lat="47.2382" lon="-2.28152">
        <ele>13.19672160682</ele>
        <time>2021-05-22T10:35:39.498Z</time>
      </trkpt>
      <trkpt lat="47.23819" lon="-2.2816">
        <ele>13.84197133285</ele>
        <time>2021-05-22T10:35:42.119Z</time>
      </trkpt>
      <trkpt lat="47.23819" lon="-2.28169">
        <ele>14.46687061683</ele>
        <time>2021-05-22T10:35:44.742Z</time>
      </trkpt>
      <trkpt lat="47.23819" lon="-2.28178">
        <ele>15.10108832298</ele>
        <time>2021-05-22T10:35:47.367Z</time>
      </trkpt>
      <trkpt lat="47.23819" lon="-2.28185">
        <ele>15.71460941159</ele>
        <time>2021-05-22T10:35:49.994Z</time>
      </trkpt>
      <trkpt lat="47.23818" lon="-2.28193">
        <ele>16.29310604427</ele>
        <time>2021-05-22T10:35:52.623Z</time>
      </trkpt>
      <trkpt lat="47.23818" lon="-2.28201">
        <ele>16.851472188</ele>
        <time>2021-05-22T10:35:55.254Z</time>
      </trkpt>
      <trkpt lat="47.23817" lon="-2.2821">
        <ele>17.3832573438</ele>
        <time>2021-05-22T10:35:57.887Z</time>
      </trkpt>
      <trkpt lat="47.23818" lon="-2.28218">
        <ele>17.89868275609</ele>
        <time>2021-05-22T10:36:00.522Z</time>
      </trkpt>
      <trkpt lat="47.23819" lon="-2.28227">
        <ele>18.38274693845</ele>
        <time>2021-05-22T10:36:03.159Z</time>
      </trkpt>
      <trkpt lat="47.23822" lon="-2.28237">
        <ele>18.8454328703</ele>
        <time>2021-05-22T10:36:05.798Z</time>
      </trkpt>
      <trkpt lat="47.23822" lon="-2.28246">
        <ele>19.24412649967</ele>
        <time>2021-05-22T10:36:08.439Z</time>
      </trkpt>
      <trkpt lat="47.23822" lon="-2.28255">
        <ele>19.59733280397</ele>
        <time>2021-05-22T10:36:11.082Z</time>
      </trkpt>
      <trkpt lat="47.23822" lon="-2.28262">
        <ele>19.89869803562</ele>
        <time>2021-05-22T10:36:13.727Z</time>
      </trkpt>
      <trkpt lat="47.23822" lon="-2.2827">
        <ele>20.14938608265</ele>
        <time>2021-05-22T10:36:16.374Z</time>
      </trkpt>
      <trkpt lat="47.2382" lon="-2.28278">
        <ele>20.34011064621</ele>
        <time>2021-05-22T10:36:19.023Z</time>
      </trkpt>
      <trkpt lat="47.23816" lon="-2.28283">
        <ele>20.45409996336</ele>
        <time>2021-05-22T10:36:21.673Z</time>
      </trkpt>
      <trkpt lat="47.2381" lon="-2.28287">
        <ele>20.49358108122</ele>
        <time>2021-05-22T10:36:24.326Z</time>
      </trkpt>
      <trkpt lat="47.23807" lon="-2.28293">
        <ele>20.50208627746</ele>
        <time>2021-05-22T10:36:26.980Z</time>
      </trkpt>
      <trkpt lat="47.23805" lon="-2.28303">
        <ele>20.47531737273</ele>
        <time>2021-05-22T10:36:29.637Z</time>
      </trkpt>
      <trkpt lat="47.23803" lon="-2.28317">
        <ele>20.41443893351</ele>
        <time>2021-05-22T10:36:32.297Z</time>
      </trkpt>
      <trkpt lat="47.23802" lon="-2.28323">
        <ele>20.26412166962</ele>
        <time>2021-05-22T10:36:34.958Z</time>
      </trkpt>
      <trkpt lat="47.23802" lon="-2.28334">
        <ele>20.05390922839</ele>
        <time>2021-05-22T10:36:37.622Z</time>
      </trkpt>
      <trkpt lat="47.23804" lon="-2.28344">
        <ele>19.78284119357</ele>
        <time>2021-05-22T10:36:40.288Z</time>
      </trkpt>
      <trkpt lat="47.23801" lon="-2.28354">
        <ele>19.42189117981</ele>
        <time>2021-05-22T10:36:42.957Z</time>
      </trkpt>
      <trkpt lat="47.23797" lon="-2.28353">
        <ele>18.97973554166</ele>
        <time>2021-05-22T10:36:45.627Z</time>
      </trkpt>
      <trkpt lat="47.23791" lon="-2.28351">
        <ele>18.46386647527</ele>
        <time>2021-05-22T10:36:48.299Z</time>
      </trkpt>
      <trkpt lat="47.23786" lon="-2.28348">
        <ele>17.91925706519</ele>
        <time>2021-05-22T10:36:50.973Z</time>
      </trkpt>
      <trkpt lat="47.23781" lon="-2.28355">
        <ele>17.36667549516</ele>
        <time>2021-05-22T10:36:53.649Z</time>
      </trkpt>
      <trkpt lat="47.23774" lon="-2.28369">
        <ele>16.77969694883</ele>
        <time>2021-05-22T10:36:56.329Z</time>
      </trkpt>
      <trkpt lat="47.23769" lon="-2.28372">
        <ele>16.21878971971</ele>
        <time>2021-05-22T10:36:59.011Z</time>
      </trkpt>
      <trkpt lat="47.23767" lon="-2.28381">
        <ele>15.70526857898</ele>
        <time>2021-05-22T10:37:01.695Z</time>
      </trkpt>
      <trkpt lat="47.23766" lon="-2.28389">
        <ele>15.23442265099</ele>
        <time>2021-05-22T10:37:04.381Z</time>
      </trkpt>
      <trkpt lat="47.23769" lon="-2.28398">
        <ele>14.84966380202</ele>
        <time>2021-05-22T10:37:07.069Z</time>
      </trkpt>
      <trkpt lat="47.23771" lon="-2.28405">
        <ele>14.50420646383</ele>
        <time>2021-05-22T10:37:09.759Z</time>
      </trkpt>
      <trkpt lat="47.23772" lon="-2.28412">
        <ele>14.20322587863</ele>
        <time>2021-05-22T10:37:12.451Z</time>
      </trkpt>
      <trkpt lat="47.23771" lon="-2.28422">
        <ele>13.92777272592</ele>
        <time>2021-05-22T10:37:15.145Z</time>
      </trkpt>
      <trkpt lat="47.2377" lon="-2.28433">
        <ele>13.72099020197</ele>
        <time>2021-05-22T10:37:17.841Z</time>
      </trkpt>
      <trkpt lat="47.23766" lon="-2.28444">
        <ele>13.57141668047</ele>
        <time>2021-05-22T10:37:20.540Z</time>
      </trkpt>
      <trkpt lat="47.23763" lon="-2.28449">
        <ele>13.52128309192</ele>
        <time>2021-05-22T10:37:23.241Z</time>
      </trkpt>
      <trkpt lat="47.2376" lon="-2.28456">
        <ele>13.55855130719</ele>
        <time>2021-05-22T10:37:25.944Z</time>
      </trkpt>
      <trkpt lat="47.23759" lon="-2.28466">
        <ele>13.7027139687</ele>
        <time>2021-05-22T10:37:28.649Z</time>
      </trkpt>
      <trkpt lat="47.23757" lon="-2.28475">
        <ele>13.91564292896</ele>
        <time>2021-05-22T10:37:31.356Z</time>
      </trkpt>
      <trkpt lat="47.23762" lon="-2.28483">
        <ele>14.28684624582</ele>
        <time>2021-05-22T10:37:34.065Z</time>
      </trkpt>
      <trkpt lat="47.23767" lon="-2.28489">
        <ele>14.74312608353</ele>
        <time>2021-05-22T10:37:36.777Z</time>
      </trkpt>
      <trkpt lat="47.23772" lon="-2.28496">
        <ele>15.26670206602</ele>
        <time>2021-05-22T10:37:39.491Z</time>
      </trkpt>
      <trkpt lat="47.23775" lon="-2.28504">
        <ele>15.82943724737</ele>
        <time>2021-05-22T10:37:42.207Z</time>
      </trkpt>
      <trkpt lat="47.23778" lon="-2.28514">
        <ele>16.43218343693</ele>
        <time>2021-05-22T10:37:44.926Z</time>
      </trkpt>
      <trkpt lat="47.23781" lon="-2.28522">
        <ele>17.03880292074</ele>
        <time>2021-05-22T10:37:47.647Z</time>
      </trkpt>
      <trkpt lat="47.23783" lon="-2.28529">
        <ele>17.66271550513</ele>
        <time>2021-05-22T10:37:50.369Z</time>
      </trkpt>
      <trkpt lat="47.23783" lon="-2.28543">
        <ele>18.27416495568</ele>
        <time>2021-05-22T10:37:53.094Z</time>
      </trkpt>
      <trkpt lat="47.23782" lon="-2.28551">
        <ele>18.83589262436</ele>
        <time>2021-05-22T10:37:55.821Z</time>
      </trkpt>
      <trkpt lat="47.23782" lon="-2.28561">
        <ele>19.36931241876</ele>
        <time>2021-05-22T10:37:58.551Z</time>
      </trkpt>
      <trkpt lat="47.23783" lon="-2.28568">
        <ele>19.85638348958</ele>
        <time>2021-05-22T10:38:01.282Z</time>
      </trkpt>
      <trkpt lat="47.23785" lon="-2.28576">
        <ele>20.29328863185</ele>
        <time>2021-05-22T10:38:04.015Z</time>
      </trkpt>
      <trkpt lat="47.23784" lon="-2.2859">
        <ele>20.63893307067</ele>
        <time>2021-05-22T10:38:06.751Z</time>
      </trkpt>
      <trkpt lat="47.23787" lon="-2.28604">
        <ele>20.93480751185</ele>
        <time>2021-05-22T10:38:09.491Z</time>
      </trkpt>
      <trkpt lat="47.2379" lon="-2.28609">
        <ele>21.15132948412</ele>
        <time>2021-05-22T10:38:12.232Z</time>
      </trkpt>
      <trkpt lat="47.2379" lon="-2.28618">
        <ele>21.27453971632</ele>
        <time>2021-05-22T10:38:14.975Z</time>
      </trkpt>
      <trkpt lat="47.2379" lon="-2.28626">
        <ele>21.32945363669</ele>
        <time>2021-05-22T10:38:17.720Z</time>
      </trkpt>
      <trkpt lat="47.23783" lon="-2.28638">
        <ele>21.27057394938</ele>
        <time>2021-05-22T10:38:20.469Z</time>
      </trkpt>
      <trkpt lat="47.23781" lon="-2.28645">
        <ele>21.18369457176</ele>
        <time>2021-05-22T10:38:23.219Z</time>
      </trkpt>
      <trkpt lat="47.23779" lon="-2.28651">
        <ele>21.03575399329</ele>
        <time>2021-05-22T10:38:25.971Z</time>
      </trkpt>
      <trkpt lat="47.23777" lon="-2.28658">
        <ele>20.83118119235</ele>
        <time>2021-05-22T10:38:28.725Z</time>
      </trkpt>
      <trkpt lat="47.23773" lon="-2.28668">
        <ele>20.58897050415</ele>
        <time>2021-05-22T10:38:31.481Z</time>
      </trkpt>
      <trkpt lat="47.2377" lon="-2.28681">
        <ele>20.32939872241</ele>
        <time>2021-05-22T10:38:34.240Z</time>
      </trkpt>
      <trkpt lat="47.23766" lon="-2.28687">
        <ele>20.00050197796</ele>
        <time>2021-05-22T10:38:37.001Z</time>
      </trkpt>
      <trkpt lat="47.23763" lon="-2.28693">
        <ele>19.66152493681</ele>
        <time>2021-05-22T10:38:39.764Z</time>
      </trkpt>
      <trkpt lat="47.2376" lon="-2.28702">
        <ele>19.31234142442</ele>
        <time>2021-05-22T10:38:42.529Z</time>
      </trkpt>
      <trkpt lat="47.2376" lon="-2.28713">
        <ele>18.97527016471</ele>
        <time>2021-05-22T10:38:45.297Z</time>
      </trkpt>
      <trkpt lat="47.23761" lon="-2.28726">
        <ele>18.65416408964</ele>
        <time>2021-05-22T10:38:48.068Z</time>
      </trkpt>
      <trkpt lat="47.23761" lon="-2.28741">
        <ele>18.34403778459</ele>
        <time>2021-05-22T10:38:50.842Z</time>
      </trkpt>
      <trkpt lat="47.23764" lon="-2.28753">
        <ele>18.07549082216</ele>
        <time>2021-05-22T10:38:53.619Z</time>
      </trkpt>
      <trkpt lat="47.23765" lon="-2.28762">
        <ele>17.80773827466</ele>
        <time>2021-05-22T10:38:56.398Z</time>
      </trkpt>
      <trkpt lat="47.23765" lon="-2.28773">
        <ele>17.57627323783</ele>
        <time>2021-05-22T10:38:59.180Z</time>
      </trkpt>
      <trkpt lat="47.23765" lon="-2.28781">
        <ele>17.41478922413</ele>
        <time>2021-05-22T10:39:01.963Z</time>
      </trkpt>
      <trkpt lat="47.23765" lon="-2.28791">
        <ele>17.32250468316</ele>
        <time>2021-05-22T10:39:04.749Z</time>
      </trkpt>
      <trkpt lat="47.23768" lon="-2.28802">
        <ele>17.31640367826</ele>
        <time>2021-05-22T10:39:07.537Z</time>
      </trkpt>
      <trkpt lat="47.23769" lon="-2.28815">
        <ele>17.40043890953</ele>
        <time>2021-05-22T10:39:10.328Z</time>
      </trkpt>
      <trkpt lat="47.23768" lon="-2.28822">
        <ele>17.55249270538</ele>
        <time>2021-05-22T10:39:13.121Z</time>
      </trkpt>
      <trkpt lat="47.23769" lon="-2.28833">
        <ele>17.80850365467</ele>
        <time>2021-05-22T10:39:15.916Z</time>
      </trkpt>
      <trkpt lat="47.23771" lon="-2.28851">
        <ele>18.15953341116</ele>
        <time>2021-05-22T10:39:18.716Z</time>
      </trkpt>
      <trkpt lat="47.23773" lon="-2.28861">
        <ele>18.60510287509</ele>
        <time>2021-05-22T10:39:21.518Z</time>
      </trkpt>
      <trkpt lat="47.23771" lon="-2.28869">
        <ele>19.09959135442</ele>
        <time>2021-05-22T10:39:24.322Z</time>
      </trkpt>
      <trkpt lat="47.23772" lon="-2.28879">
        <ele>19.69642126981</ele>
        <time>2021-05-22T10:39:27.128Z</time>
      </trkpt>
      <trkpt lat="47.23774" lon="-2.28888">
        <ele>20.374933749</ele>
        <time>2021-05-22T10:39:29.936Z</time>
      </trkpt>
      <trkpt lat="47.23774" lon="-2.289">
        <ele>21.11988029742</ele>
        <time>2021-05-22T10:39:32.747Z</time>
      </trkpt>
      <trkpt lat="47.23778" lon="-2.28909">
        <ele>21.91351308177</ele>
        <time>2021-05-22T10:39:35.561Z</time>
      </trkpt>
      <trkpt lat="47.23784" lon="-2.28912">
        <ele>22.71807043597</ele>
        <time>2021-05-22T10:39:38.377Z</time>
      </trkpt>
      <trkpt lat="47.2379" lon="-2.28914">
        <ele>23.53241764144</ele>
        <time>2021-05-22T10:39:41.195Z</time>
      </trkpt>
      <trkpt lat="47.23797" lon="-2.28914">
        <ele>24.3457819058</ele>
        <time>2021-05-22T10:39:44.015Z</time>
      </trkpt>
      <trkpt lat="47.23803" lon="-2.28915">
        <ele>25.12280332528</ele>
        <time>2021-05-22T10:39:46.837Z</time>
      </trkpt>
      <trkpt lat="47.23813" lon="-2.28921">
        <ele>25.88985367644</ele>
        <time>2021-05-22T10:39:49.663Z</time>
      </trkpt>
      <trkpt lat="47.23814" lon="-2.2893">
        <ele>26.6190869357</ele>
        <time>2021-05-22T10:39:52.491Z</time>
      </trkpt>
      <trkpt lat="47.23815" lon="-2.28938">
        <ele>27.30431324724</ele>
        <time>2021-05-22T10:39:55.321Z</time>
      </trkpt>
      <trkpt lat="47.23814" lon="-2.28949">
        <ele>27.93369359086</ele>
        <time>2021-05-22T10:39:58.153Z</time>
      </trkpt>
      <trkpt lat="47.23811" lon="-2.28955">
        <ele>28.50396998861</ele>
        <time>2021-05-22T10:40:00.987Z</time>
      </trkpt>
      <trkpt lat="47.23806" lon="-2.28961">
        <ele>29.01933507379</ele>
        <time>2021-05-22T10:40:03.823Z</time>
      </trkpt>
      <trkpt lat="47.23805" lon="-2.28973">
        <ele>29.49308230788</ele>
        <time>2021-05-22T10:40:06.662Z</time>
      </trkpt>
      <trkpt lat="47.23803" lon="-2.28979">
        <ele>29.89935181791</ele>
        <time>2021-05-22T10:40:09.502Z</time>
      </trkpt>
      <trkpt lat="47.238" lon="-2.28989">
        <ele>30.25636903346</ele>
        <time>2021-05-22T10:40:12.345Z</time>
      </trkpt>
      <trkpt lat="47.238" lon="-2.28997">
        <ele>30.58578125003</ele>
        <time>2021-05-22T10:40:15.190Z</time>
      </trkpt>
      <trkpt lat="47.238" lon="-2.29007">
        <ele>30.88429585917</ele>
        <time>2021-05-22T10:40:18.037Z</time>
      </trkpt>
      <trkpt lat="47.238" lon="-2.29019">
        <ele>31.15063738889</ele>
        <time>2021-05-22T10:40:20.887Z</time>
      </trkpt>
      <trkpt lat="47.23799" lon="-2.29027">
        <ele>31.37442554256</ele>
        <time>2021-05-22T10:40:23.738Z</time>
      </trkpt>
      <trkpt lat="47.238" lon="-2.29039">
        <ele>31.58361111265</ele>
        <time>2021-05-22T10:40:26.592Z</time>
      </trkpt>
      <trkpt lat="47.23799" lon="-2.2905">
        <ele>31.75904507074</ele>
        <time>2021-05-22T10:40:29.449Z</time>
      </trkpt>
      <trkpt lat="47.23799" lon="-2.29058">
        <ele>31.90078386973</ele>
        <time>2021-05-22T10:40:32.307Z</time>
      </trkpt>
      <trkpt lat="47.23797" lon="-2.29066">
        <ele>32.02403186843</ele>
        <time>2021-05-22T10:40:35.167Z</time>
      </trkpt>
      <trkpt lat="47.23795" lon="-2.29075">
        <ele>32.13301392048</ele>
        <time>2021-05-22T10:40:38.030Z</time>
      </trkpt>
      <trkpt lat="47.23793" lon="-2.29083">
        <ele>32.22800483591</ele>
        <time>2021-05-22T10:40:40.894Z</time>
      </trkpt>
      <trkpt lat="47.2379" lon="-2.29092">
        <ele>32.30463746121</ele>
        <time>2021-05-22T10:40:43.761Z</time>
      </trkpt>
      <trkpt lat="47.2379" lon="-2.29101">
        <ele>32.36294648025</ele>
        <time>2021-05-22T10:40:46.630Z</time>
      </trkpt>
      <trkpt lat="47.2379" lon="-2.29108">
        <ele>32.41924377457</ele>
        <time>2021-05-22T10:40:49.500Z</time>
      </trkpt>
      <trkpt lat="47.23788" lon="-2.29116">
        <ele>32.47884551193</ele>
        <time>2021-05-22T10:40:52.372Z</time>
      </trkpt>
      <trkpt lat="47.23785" lon="-2.29124">
        <ele>32.53166200127</ele>
        <time>2021-05-22T10:40:55.246Z</time>
      </trkpt>
      <trkpt lat="47.23781" lon="-2.29129">
        <ele>32.57524487185</ele>
        <time>2021-05-22T10:40:58.122Z</time>
      </trkpt>
      <trkpt lat="47.23776" lon="-2.29134">
        <ele>32.60612630441</ele>
        <time>2021-05-22T10:41:01.000Z</time>
      </trkpt>
      <trkpt lat="47.23772" lon="-2.29139">
        <ele>32.61443970913</ele>
        <time>2021-05-22T10:41:03.880Z</time>
      </trkpt>
      <trkpt lat="47.23767" lon="-2.29144">
        <ele>32.59142803854</ele>
        <time>2021-05-22T10:41:06.762Z</time>
      </trkpt>
      <trkpt lat="47.23763" lon="-2.29148">
        <ele>32.53546270095</ele>
        <time>2021-05-22T10:41:09.646Z</time>
      </trkpt>
      <trkpt lat="47.23757" lon="-2.2915">
        <ele>32.44672738584</ele>
        <time>2021-05-22T10:41:12.532Z</time>
      </trkpt>
      <trkpt lat="47.23752" lon="-2.29154">
        <ele>32.32157565233</ele>
        <time>2021-05-22T10:41:15.420Z</time>
      </trkpt>
      <trkpt lat="47.23746" lon="-2.29156">
        <ele>32.15690364735</ele>
        <time>2021-05-22T10:41:18.310Z</time>
      </trkpt>
      <trkpt lat="47.23737" lon="-2.29158">
        <ele>31.94227704103</ele>
        <time>2021-05-22T10:41:21.203Z</time>
      </trkpt>
      <trkpt lat="47.23731" lon="-2.29161">
        <ele>31.68398430833</ele>
        <time>2021-05-22T10:41:24.098Z</time>
      </trkpt>
      <trkpt lat="47.23724" lon="-2.29166">
        <ele>31.38071788127</ele>
        <time>2021-05-22T10:41:26.995Z</time>
      </trkpt>
      <trkpt lat="47.23719" lon="-2.29169">
        <ele>31.03744014355</ele>
        <time>2021-05-22T10:41:29.894Z</time>
      </trkpt>
      <trkpt lat="47.23709" lon="-2.29176">
        <ele>30.63767670789</ele>
        <time>2021-05-22T10:41:32.797Z</time>
      </trkpt>
      <trkpt lat="47.23697" lon="-2.29182">
        <ele>30.18855341196</ele>
        <time>2021-05-22T10:41:35.704Z</time>
      </trkpt>
      <trkpt lat="47.2369" lon="-2.29185">
        <ele>29.71881901487</ele>
        <time>2021-05-22T10:41:38.613Z</time>
      </trkpt>
      <trkpt lat="47.23677" lon="-2.29189">
        <ele>29.21999778061</ele>
        <time>2021-05-22T10:41:41.527Z</time>
      </trkpt>
      <trkpt lat="47.23672" lon="-2.29191">
        <ele>28.71177932836</ele>
        <time>2021-05-22T10:41:44.443Z</time>
      </trkpt>
      <trkpt lat="47.23665" lon="-2.29195">
        <ele>28.18228321075</ele>
        <time>2021-05-22T10:41:47.361Z</time>
      </trkpt>
      <trkpt lat="47.23657" lon="-2.29195">
        <ele>27.63827632579</ele>
        <time>2021-05-22T10:41:50.282Z</time>
      </trkpt>
      <trkpt lat="47.23651" lon="-2.29193">
        <ele>27.08976838291</ele>
        <time>2021-05-22T10:41:53.205Z</time>
      </trkpt>
      <trkpt lat="47.23642" lon="-2.29196">
        <ele>26.53589440762</ele>
        <time>2021-05-22T10:41:56.131Z</time>
      </trkpt>
      <trkpt lat="47.23638" lon="-2.292">
        <ele>25.99469966921</ele>
        <time>2021-05-22T10:41:59.059Z</time>
      </trkpt>
      <trkpt lat="47.2363" lon="-2.292">
        <ele>25.4585266993</ele>
        <time>2021-05-22T10:42:01.989Z</time>
      </trkpt>
      <trkpt lat="47.23625" lon="-2.292">
        <ele>24.94259626286</ele>
        <time>2021-05-22T10:42:04.921Z</time>
      </trkpt>
      <trkpt lat="47.2362" lon="-2.29206">
        <ele>24.45621692325</ele>
        <time>2021-05-22T10:42:07.855Z</time>
      </trkpt>
      <trkpt lat="47.23616" lon="-2.29213">
        <ele>24.01146552995</ele>
        <time>2021-05-22T10:42:10.791Z</time>
      </trkpt>
      <trkpt lat="47.23612" lon="-2.29214">
        <ele>23.61515896175</ele>
        <time>2021-05-22T10:42:13.728Z</time>
      </trkpt>
      <trkpt lat="47.23605" lon="-2.29213">
        <ele>23.2624717654</ele>
        <time>2021-05-22T10:42:16.668Z</time>
      </trkpt>
      <trkpt lat="47.23595" lon="-2.29217">
        <ele>22.93311367807</ele>
        <time>2021-05-22T10:42:19.611Z</time>
      </trkpt>
      <trkpt lat="47.23591" lon="-2.29222">
        <ele>22.72102540894</ele>
        <time>2021-05-22T10:42:22.556Z</time>
      </trkpt>
      <trkpt lat="47.23587" lon="-2.2923">
        <ele>22.59777361512</ele>
        <time>2021-05-22T10:42:25.503Z</time>
      </trkpt>
      <trkpt lat="47.23586" lon="-2.29237">
        <ele>22.59134514484</ele>
        <time>2021-05-22T10:42:28.452Z</time>
      </trkpt>
      <trkpt lat="47.23584" lon="-2.29253">
        <ele>22.6960829335</ele>
        <time>2021-05-22T10:42:31.405Z</time>
      </trkpt>
      <trkpt lat="47.23583" lon="-2.29268">
        <ele>22.9205916175</ele>
        <time>2021-05-22T10:42:34.361Z</time>
      </trkpt>
      <trkpt lat="47.23581" lon="-2.29278">
        <ele>23.22065315985</ele>
        <time>2021-05-22T10:42:37.319Z</time>
      </trkpt>
      <trkpt lat="47.23581" lon="-2.29293">
        <ele>23.64197995594</ele>
        <time>2021-05-22T10:42:40.281Z</time>
      </trkpt>
      <trkpt lat="47.23583" lon="-2.29304">
        <ele>24.13038180558</ele>
        <time>2021-05-22T10:42:43.245Z</time>
      </trkpt>
      <trkpt lat="47.23583" lon="-2.29315">
        <ele>24.6713468691</ele>
        <time>2021-05-22T10:42:46.212Z</time>
      </trkpt>
      <trkpt lat="47.23584" lon="-2.29325">
        <ele>25.25431211094</ele>
        <time>2021-05-22T10:42:49.181Z</time>
      </trkpt>
      <trkpt lat="47.23586" lon="-2.29339">
        <ele>25.87598704867</ele>
        <time>2021-05-22T10:42:52.153Z</time>
      </trkpt>
      <trkpt lat="47.23587" lon="-2.29353">
        <ele>26.48902361998</ele>
        <time>2021-05-22T10:42:55.129Z</time>
      </trkpt>
      <trkpt lat="47.23587" lon="-2.29362">
        <ele>27.08233672171</ele>
        <time>2021-05-22T10:42:58.107Z</time>
      </trkpt>
      <trkpt lat="47.23588" lon="-2.2937">
        <ele>27.64903493775</ele>
        <time>2021-05-22T10:43:01.086Z</time>
      </trkpt>
      <trkpt lat="47.23587" lon="-2.29381">
        <ele>28.16462624747</ele>
        <time>2021-05-22T10:43:04.068Z</time>
      </trkpt>
      <trkpt lat="47.2359" lon="-2.29397">
        <ele>28.60783172378</ele>
        <time>2021-05-22T10:43:07.054Z</time>
      </trkpt>
      <trkpt lat="47.23589" lon="-2.29408">
        <ele>28.97788961995</ele>
        <time>2021-05-22T10:43:10.042Z</time>
      </trkpt>
      <trkpt lat="47.23588" lon="-2.29417">
        <ele>29.26818525178</ele>
        <time>2021-05-22T10:43:13.032Z</time>
      </trkpt>
      <trkpt lat="47.2359" lon="-2.29428">
        <ele>29.47102628045</ele>
        <time>2021-05-22T10:43:16.025Z</time>
      </trkpt>
      <trkpt lat="47.23589" lon="-2.29436">
        <ele>29.58063660876</ele>
        <time>2021-05-22T10:43:19.020Z</time>
      </trkpt>
      <trkpt lat="47.23588" lon="-2.2945">
        <ele>29.57726751056</ele>
        <time>2021-05-22T10:43:22.018Z</time>
      </trkpt>
      <trkpt lat="47.23589" lon="-2.2946">
        <ele>29.47690977122</ele>
        <time>2021-05-22T10:43:25.018Z</time>
      </trkpt>
      <trkpt lat="47.23588" lon="-2.29472">
        <ele>29.26736541488</ele>
        <time>2021-05-22T10:43:28.021Z</time>
      </trkpt>
      <trkpt lat="47.23588" lon="-2.29483">
        <ele>28.95462617156</ele>
        <time>2021-05-22T10:43:31.027Z</time>
      </trkpt>
      <trkpt lat="47.23589" lon="-2.29497">
        <ele>28.54360916917</ele>
        <time>2021-05-22T10:43:34.036Z</time>
      </trkpt>
      <trkpt lat="47.2359" lon="-2.29504">
        <ele>28.06888510829</ele>
        <time>2021-05-22T10:43:37.046Z</time>
      </trkpt>
      <trkpt lat="47.2359" lon="-2.29512">
        <ele>27.51275813177</ele>
        <time>2021-05-22T10:43:40.058Z</time>
      </trkpt>
      <trkpt lat="47.2359" lon="-2.29526">
        <ele>26.87539605846</ele>
        <time>2021-05-22T10:43:43.073Z</time>
      </trkpt>
      <trkpt lat="47.2359" lon="-2.29535">
        <ele>26.15383835904</ele>
        <time>2021-05-22T10:43:46.090Z</time>
      </trkpt>
      <trkpt lat="47.23588" lon="-2.29543">
        <ele>25.3591862265</ele>
        <time>2021-05-22T10:43:49.109Z</time>
      </trkpt>
      <trkpt lat="47.23586" lon="-2.2955">
        <ele>24.50079038909</ele>
        <time>2021-05-22T10:43:52.130Z</time>
      </trkpt>
      <trkpt lat="47.23582" lon="-2.29548">
        <ele>23.59405368727</ele>
        <time>2021-05-22T10:43:55.152Z</time>
      </trkpt>
      <trkpt lat="47.23575" lon="-2.29555">
        <ele>22.62577595153</ele>
        <time>2021-05-22T10:43:58.177Z</time>
      </trkpt>
      <trkpt lat="47.23568" lon="-2.29567">
        <ele>21.60453623712</ele>
        <time>2021-05-22T10:44:01.206Z</time>
      </trkpt>
      <trkpt lat="47.23567" lon="-2.29571">
        <ele>20.58283543621</ele>
        <time>2021-05-22T10:44:04.236Z</time>
      </trkpt>
      <trkpt lat="47.23567" lon="-2.29572">
        <ele>19.55394957112</ele>
        <time>2021-05-22T10:44:07.266Z</time>
      </trkpt>
      <trkpt lat="47.23556" lon="-2.29592">
        <ele>18.52388522647</ele>
        <time>2021-05-22T10:44:10.302Z</time>
      </trkpt>
      <trkpt lat="47.23546" lon="-2.29594">
        <ele>17.47467727439</ele>
        <time>2021-05-22T10:44:13.341Z</time>
      </trkpt>
      <trkpt lat="47.23537" lon="-2.29596">
        <ele>16.43782740347</ele>
        <time>2021-05-22T10:44:16.383Z</time>
      </trkpt>
      <trkpt lat="47.23512" lon="-2.29597">
        <ele>15.31246861954</ele>
        <time>2021-05-22T10:44:19.434Z</time>
      </trkpt>
      <trkpt lat="47.23509" lon="-2.29599">
        <ele>14.50897649061</ele>
        <time>2021-05-22T10:44:22.486Z</time>
      </trkpt>
      <trkpt lat="47.23506" lon="-2.29598">
        <ele>13.8230648896</ele>
        <time>2021-05-22T10:44:25.539Z</time>
      </trkpt>
      <trkpt lat="47.23505" lon="-2.29598">
        <ele>13.30407537918</ele>
        <time>2021-05-22T10:44:28.592Z</time>
      </trkpt>
      <trkpt lat="47.23506" lon="-2.29598">
        <ele>13.8230648896</ele>
        <time>2021-05-22T10:44:31.645Z</time>
      </trkpt>
      <trkpt lat="47.23509" lon="-2.29599">
        <ele>14.50897649061</ele>
        <time>2021-05-22T10:44:34.699Z</time>
      </trkpt>
      <trkpt lat="47.23506" lon="-2.29601">
        <ele>12.76448485389</ele>
        <time>2021-05-22T10:44:37.755Z</time>
      </trkpt>
      <trkpt lat="47.23502" lon="-2.29611">
        <ele>12.89143356786</ele>
        <time>2021-05-22T10:44:40.813Z</time>
      </trkpt>
      <trkpt lat="47.23503" lon="-2.29622">
        <ele>13.22296438646</ele>
        <time>2021-05-22T10:44:43.874Z</time>
      </trkpt>
      <trkpt lat="47.23507" lon="-2.29636">
        <ele>13.75746028572</ele>
        <time>2021-05-22T10:44:46.938Z</time>
      </trkpt>
      <trkpt lat="47.2351" lon="-2.29653">
        <ele>14.40220454959</ele>
        <time>2021-05-22T10:44:50.006Z</time>
      </trkpt>
      <trkpt lat="47.2351" lon="-2.29656">
        <ele>15.10512031923</ele>
        <time>2021-05-22T10:44:53.075Z</time>
      </trkpt>
      <trkpt lat="47.23512" lon="-2.2968">
        <ele>15.96574914217</ele>
        <time>2021-05-22T10:44:56.149Z</time>
      </trkpt>
      <trkpt lat="47.2351" lon="-2.29706">
        <ele>16.89438980204</ele>
        <time>2021-05-22T10:44:59.229Z</time>
      </trkpt>
      <trkpt lat="47.23507" lon="-2.29719">
        <ele>17.80677945718</ele>
        <time>2021-05-22T10:45:02.312Z</time>
      </trkpt>
      <trkpt lat="47.23501" lon="-2.29739">
        <ele>18.71788691065</ele>
        <time>2021-05-22T10:45:05.400Z</time>
      </trkpt>
      <trkpt lat="47.2349" lon="-2.29751">
        <ele>19.56997482116</ele>
        <time>2021-05-22T10:45:08.493Z</time>
      </trkpt>
      <trkpt lat="47.23487" lon="-2.29754">
        <ele>20.46504475782</ele>
        <time>2021-05-22T10:45:11.587Z</time>
      </trkpt>
      <trkpt lat="47.23486" lon="-2.2977">
        <ele>21.46638380461</ele>
        <time>2021-05-22T10:45:14.685Z</time>
      </trkpt>
      <trkpt lat="47.23467" lon="-2.29801">
        <ele>22.28465086796</ele>
        <time>2021-05-22T10:45:17.792Z</time>
      </trkpt>
      <trkpt lat="47.23465" lon="-2.29814">
        <ele>23.02149394777</ele>
        <time>2021-05-22T10:45:20.902Z</time>
      </trkpt>
      <trkpt lat="47.23467" lon="-2.29836">
        <ele>23.70784585601</ele>
        <time>2021-05-22T10:45:24.017Z</time>
      </trkpt>
      <trkpt lat="47.23468" lon="-2.2984">
        <ele>24.19202201403</ele>
        <time>2021-05-22T10:45:27.133Z</time>
      </trkpt>
      <trkpt lat="47.23469" lon="-2.29849">
        <ele>24.55282956419</ele>
        <time>2021-05-22T10:45:30.251Z</time>
      </trkpt>
      <trkpt lat="47.23456" lon="-2.2986">
        <ele>24.65092022462</ele>
        <time>2021-05-22T10:45:33.374Z</time>
      </trkpt>
      <trkpt lat="47.23445" lon="-2.29866">
        <ele>24.59656306082</ele>
        <time>2021-05-22T10:45:36.501Z</time>
      </trkpt>
      <trkpt lat="47.23443" lon="-2.29865">
        <ele>24.48715705841</ele>
        <time>2021-05-22T10:45:39.629Z</time>
      </trkpt>
      <trkpt lat="47.23442" lon="-2.29865">
        <ele>24.25033716959</ele>
        <time>2021-05-22T10:45:42.757Z</time>
      </trkpt>
      <trkpt lat="47.23443" lon="-2.29865">
        <ele>24.48715705841</ele>
        <time>2021-05-22T10:45:45.886Z</time>
      </trkpt>
      <trkpt lat="47.23445" lon="-2.29866">
        <ele>24.59656306082</ele>
        <time>2021-05-22T10:45:49.015Z</time>
      </trkpt>
      <trkpt lat="47.23444" lon="-2.29861">
        <ele>22.87833745582</ele>
        <time>2021-05-22T10:45:52.146Z</time>
      </trkpt>
      <trkpt lat="47.23437" lon="-2.29853">
        <ele>22.1736996132</ele>
        <time>2021-05-22T10:45:55.280Z</time>
      </trkpt>
      <trkpt lat="47.23422" lon="-2.29844">
        <ele>21.33135701079</ele>
        <time>2021-05-22T10:45:58.419Z</time>
      </trkpt>
      <trkpt lat="47.23419" lon="-2.29842">
        <ele>20.50718532491</ele>
        <time>2021-05-22T10:46:01.559Z</time>
      </trkpt>
      <trkpt lat="47.23405" lon="-2.29836">
        <ele>19.58596375697</ele>
        <time>2021-05-22T10:46:04.704Z</time>
      </trkpt>
      <trkpt lat="47.23404" lon="-2.29836">
        <ele>18.71399403875</ele>
        <time>2021-05-22T10:46:07.849Z</time>
      </trkpt>
      <trkpt lat="47.23401" lon="-2.29842">
        <ele>17.83782505783</ele>
        <time>2021-05-22T10:46:10.996Z</time>
      </trkpt>
      <trkpt lat="47.23398" lon="-2.29838">
        <ele>16.95361030877</ele>
        <time>2021-05-22T10:46:14.144Z</time>
      </trkpt>
      <trkpt lat="47.23394" lon="-2.29845">
        <ele>16.10628848166</ele>
        <time>2021-05-22T10:46:17.294Z</time>
      </trkpt>
      <trkpt lat="47.2339" lon="-2.29852">
        <ele>15.29180874837</ele>
        <time>2021-05-22T10:46:20.446Z</time>
      </trkpt>
      <trkpt lat="47.2339" lon="-2.29853">
        <ele>14.52674506135</ele>
        <time>2021-05-22T10:46:23.599Z</time>
      </trkpt>
      <trkpt lat="47.23375" lon="-2.29859">
        <ele>13.76681123401</ele>
        <time>2021-05-22T10:46:26.757Z</time>
      </trkpt>
      <trkpt lat="47.23354" lon="-2.29843">
        <ele>12.95503190917</ele>
        <time>2021-05-22T10:46:29.923Z</time>
      </trkpt>
      <trkpt lat="47.23349" lon="-2.29843">
        <ele>12.35771666842</ele>
        <time>2021-05-22T10:46:33.090Z</time>
      </trkpt>
      <trkpt lat="47.23347" lon="-2.29849">
        <ele>11.91255197811</ele>
        <time>2021-05-22T10:46:36.259Z</time>
      </trkpt>
      <trkpt lat="47.23349" lon="-2.29856">
        <ele>11.61164967807</ele>
        <time>2021-05-22T10:46:39.430Z</time>
      </trkpt>
      <trkpt lat="47.23368" lon="-2.29873">
        <ele>11.50571093973</ele>
        <time>2021-05-22T10:46:42.608Z</time>
      </trkpt>
      <trkpt lat="47.23377" lon="-2.29883">
        <ele>11.36636223541</ele>
        <time>2021-05-22T10:46:45.790Z</time>
      </trkpt>
      <trkpt lat="47.23377" lon="-2.29884">
        <ele>11.30202723858</ele>
        <time>2021-05-22T10:46:48.972Z</time>
      </trkpt>
      <trkpt lat="47.23385" lon="-2.29896">
        <ele>11.28394297746</ele>
        <time>2021-05-22T10:46:52.158Z</time>
      </trkpt>
      <trkpt lat="47.23401" lon="-2.29916">
        <ele>11.32098382692</ele>
        <time>2021-05-22T10:46:55.351Z</time>
      </trkpt>
      <trkpt lat="47.23421" lon="-2.29925">
        <ele>11.50525531362</ele>
        <time>2021-05-22T10:46:58.551Z</time>
      </trkpt>
      <trkpt lat="47.23426" lon="-2.29924">
        <ele>11.80776925759</ele>
        <time>2021-05-22T10:47:01.753Z</time>
      </trkpt>
      <trkpt lat="47.23441" lon="-2.29944">
        <ele>12.0715465541</ele>
        <time>2021-05-22T10:47:04.961Z</time>
      </trkpt>
      <trkpt lat="47.23456" lon="-2.29952">
        <ele>12.54567690079</ele>
        <time>2021-05-22T10:47:08.175Z</time>
      </trkpt>
      <trkpt lat="47.23459" lon="-2.2996">
        <ele>12.99612387846</ele>
        <time>2021-05-22T10:47:11.391Z</time>
      </trkpt>
      <trkpt lat="47.23462" lon="-2.29965">
        <ele>13.49664102923</ele>
        <time>2021-05-22T10:47:14.608Z</time>
      </trkpt>
      <trkpt lat="47.23475" lon="-2.29984">
        <ele>14.10730104793</ele>
        <time>2021-05-22T10:47:17.831Z</time>
      </trkpt>
      <trkpt lat="47.2348" lon="-2.29996">
        <ele>14.61481374151</ele>
        <time>2021-05-22T10:47:21.058Z</time>
      </trkpt>
      <trkpt lat="47.23506" lon="-2.29995">
        <ele>15.3425474079</ele>
        <time>2021-05-22T10:47:24.293Z</time>
      </trkpt>
      <trkpt lat="47.23504" lon="-2.29996">
        <ele>15.78522720936</ele>
        <time>2021-05-22T10:47:27.529Z</time>
      </trkpt>
      <trkpt lat="47.23506" lon="-2.29995">
        <ele>15.3425474079</ele>
        <time>2021-05-22T10:47:30.766Z</time>
      </trkpt>
      <trkpt lat="47.23513" lon="-2.30002">
        <ele>16.61151515694</ele>
        <time>2021-05-22T10:47:34.005Z</time>
      </trkpt>
      <trkpt lat="47.23534" lon="-2.30021">
        <ele>16.84403563414</ele>
        <time>2021-05-22T10:47:37.253Z</time>
      </trkpt>
      <trkpt lat="47.23547" lon="-2.30037">
        <ele>16.99177498771</ele>
        <time>2021-05-22T10:47:40.506Z</time>
      </trkpt>
      <trkpt lat="47.23548" lon="-2.30039">
        <ele>17.08939913282</ele>
        <time>2021-05-22T10:47:43.760Z</time>
      </trkpt>
      <trkpt lat="47.2355" lon="-2.30049">
        <ele>17.08938002984</ele>
        <time>2021-05-22T10:47:47.016Z</time>
      </trkpt>
      <trkpt lat="47.23552" lon="-2.30075">
        <ele>16.92315224813</ele>
        <time>2021-05-22T10:47:50.278Z</time>
      </trkpt>
      <trkpt lat="47.23558" lon="-2.30094">
        <ele>16.75026334188</ele>
        <time>2021-05-22T10:47:53.545Z</time>
      </trkpt>
      <trkpt lat="47.23562" lon="-2.30104">
        <ele>16.58691340922</ele>
        <time>2021-05-22T10:47:56.815Z</time>
      </trkpt>
      <trkpt lat="47.23565" lon="-2.30114">
        <ele>16.4039209986</ele>
        <time>2021-05-22T10:48:00.087Z</time>
      </trkpt>
      <trkpt lat="47.23582" lon="-2.30108">
        <ele>16.38718078825</ele>
        <time>2021-05-22T10:48:03.365Z</time>
      </trkpt>
      <trkpt lat="47.23597" lon="-2.30103">
        <ele>16.32267951664</ele>
        <time>2021-05-22T10:48:06.648Z</time>
      </trkpt>
      <trkpt lat="47.23607" lon="-2.30103">
        <ele>16.17149845474</ele>
        <time>2021-05-22T10:48:09.934Z</time>
      </trkpt>
      <trkpt lat="47.23623" lon="-2.30113">
        <ele>15.91745316457</ele>
        <time>2021-05-22T10:48:13.226Z</time>
      </trkpt>
      <trkpt lat="47.23648" lon="-2.30127">
        <ele>15.6616733416</ele>
        <time>2021-05-22T10:48:16.527Z</time>
      </trkpt>
      <trkpt lat="47.23664" lon="-2.30132">
        <ele>15.4683394736</ele>
        <time>2021-05-22T10:48:19.834Z</time>
      </trkpt>
      <trkpt lat="47.23672" lon="-2.30142">
        <ele>15.21683749438</ele>
        <time>2021-05-22T10:48:23.144Z</time>
      </trkpt>
      <trkpt lat="47.23684" lon="-2.30154">
        <ele>15.02054094867</ele>
        <time>2021-05-22T10:48:26.459Z</time>
      </trkpt>
      <trkpt lat="47.23685" lon="-2.30155">
        <ele>14.83099263967</ele>
        <time>2021-05-22T10:48:29.774Z</time>
      </trkpt>
      <trkpt lat="47.23689" lon="-2.30169">
        <ele>14.65112182718</ele>
        <time>2021-05-22T10:48:33.093Z</time>
      </trkpt>
      <trkpt lat="47.23701" lon="-2.30204">
        <ele>14.44325488187</ele>
        <time>2021-05-22T10:48:36.421Z</time>
      </trkpt>
      <trkpt lat="47.23717" lon="-2.30229">
        <ele>14.36987788081</ele>
        <time>2021-05-22T10:48:39.756Z</time>
      </trkpt>
      <trkpt lat="47.23732" lon="-2.30277">
        <ele>14.25873527225</ele>
        <time>2021-05-22T10:48:43.103Z</time>
      </trkpt>
      <trkpt lat="47.23744" lon="-2.30298">
        <ele>14.34585031905</ele>
        <time>2021-05-22T10:48:46.457Z</time>
      </trkpt>
      <trkpt lat="47.23744" lon="-2.30299">
        <ele>14.49260178014</ele>
        <time>2021-05-22T10:48:49.811Z</time>
      </trkpt>
      <trkpt lat="47.23744" lon="-2.30318">
        <ele>14.72128090424</ele>
        <time>2021-05-22T10:48:53.169Z</time>
      </trkpt>
      <trkpt lat="47.23746" lon="-2.30334">
        <ele>15.06376644311</ele>
        <time>2021-05-22T10:48:56.531Z</time>
      </trkpt>
      <trkpt lat="47.23747" lon="-2.30353">
        <ele>15.50911944058</ele>
        <time>2021-05-22T10:48:59.897Z</time>
      </trkpt>
      <trkpt lat="47.23749" lon="-2.30358">
        <ele>15.98100775986</ele>
        <time>2021-05-22T10:49:03.265Z</time>
      </trkpt>
      <trkpt lat="47.23765" lon="-2.30376">
        <ele>16.59004109696</ele>
        <time>2021-05-22T10:49:06.639Z</time>
      </trkpt>
      <trkpt lat="47.23768" lon="-2.30388">
        <ele>17.12743369726</ele>
        <time>2021-05-22T10:49:10.016Z</time>
      </trkpt>
      <trkpt lat="47.2377" lon="-2.30414">
        <ele>17.65130993978</ele>
        <time>2021-05-22T10:49:13.399Z</time>
      </trkpt>
      <trkpt lat="47.23781" lon="-2.30439">
        <ele>18.17631568934</ele>
        <time>2021-05-22T10:49:16.789Z</time>
      </trkpt>
      <trkpt lat="47.23785" lon="-2.30449">
        <ele>18.73421152003</ele>
        <time>2021-05-22T10:49:20.182Z</time>
      </trkpt>
      <trkpt lat="47.23788" lon="-2.30454">
        <ele>19.2620148047</ele>
        <time>2021-05-22T10:49:23.576Z</time>
      </trkpt>
      <trkpt lat="47.23797" lon="-2.30456">
        <ele>19.78848111634</ele>
        <time>2021-05-22T10:49:26.973Z</time>
      </trkpt>
      <trkpt lat="47.23795" lon="-2.3047">
        <ele>20.16801890103</ele>
        <time>2021-05-22T10:49:30.373Z</time>
      </trkpt>
      <trkpt lat="47.23797" lon="-2.30477">
        <ele>20.54973747182</ele>
        <time>2021-05-22T10:49:33.775Z</time>
      </trkpt>
      <trkpt lat="47.23803" lon="-2.30486">
        <ele>20.88182559416</ele>
        <time>2021-05-22T10:49:37.180Z</time>
      </trkpt>
      <trkpt lat="47.23807" lon="-2.30505">
        <ele>21.09536018499</ele>
        <time>2021-05-22T10:49:40.589Z</time>
      </trkpt>
      <trkpt lat="47.23812" lon="-2.30516">
        <ele>21.18190832474</ele>
        <time>2021-05-22T10:49:44.001Z</time>
      </trkpt>
      <trkpt lat="47.23821" lon="-2.30574">
        <ele>21.20751680336</ele>
        <time>2021-05-22T10:49:47.427Z</time>
      </trkpt>
      <trkpt lat="47.23823" lon="-2.30582">
        <ele>20.97660097368</ele>
        <time>2021-05-22T10:49:50.855Z</time>
      </trkpt>
      <trkpt lat="47.23824" lon="-2.30581">
        <ele>20.60595060162</ele>
        <time>2021-05-22T10:49:54.283Z</time>
      </trkpt>
      <trkpt lat="47.23823" lon="-2.30582">
        <ele>20.97660097368</ele>
        <time>2021-05-22T10:49:57.712Z</time>
      </trkpt>
      <trkpt lat="47.23829" lon="-2.30634">
        <ele>19.29223350328</ele>
        <time>2021-05-22T10:50:01.153Z</time>
      </trkpt>
      <trkpt lat="47.23837" lon="-2.3067">
        <ele>18.29735569227</ele>
        <time>2021-05-22T10:50:04.602Z</time>
      </trkpt>
      <trkpt lat="47.23839" lon="-2.30674">
        <ele>17.43196448526</ele>
        <time>2021-05-22T10:50:08.052Z</time>
      </trkpt>
      <trkpt lat="47.23845" lon="-2.30687">
        <ele>16.44990480007</ele>
        <time>2021-05-22T10:50:11.506Z</time>
      </trkpt>
      <trkpt lat="47.23855" lon="-2.30701">
        <ele>15.45079941105</ele>
        <time>2021-05-22T10:50:14.965Z</time>
      </trkpt>
      <trkpt lat="47.23862" lon="-2.30709">
        <ele>14.48619972672</ele>
        <time>2021-05-22T10:50:18.427Z</time>
      </trkpt>
      <trkpt lat="47.23868" lon="-2.30706">
        <ele>13.58180608742</ele>
        <time>2021-05-22T10:50:21.891Z</time>
      </trkpt>
      <trkpt lat="47.23886" lon="-2.30713">
        <ele>12.68090252488</ele>
        <time>2021-05-22T10:50:25.361Z</time>
      </trkpt>
      <trkpt lat="47.23892" lon="-2.3071">
        <ele>11.81095348798</ele>
        <time>2021-05-22T10:50:28.833Z</time>
      </trkpt>
      <trkpt lat="47.23896" lon="-2.30709">
        <ele>10.95632270008</ele>
        <time>2021-05-22T10:50:32.306Z</time>
      </trkpt>
      <trkpt lat="47.23896" lon="-2.3071">
        <ele>10.11679712312</ele>
        <time>2021-05-22T10:50:35.780Z</time>
      </trkpt>
      <trkpt lat="47.23893" lon="-2.30741">
        <ele>9.17557295351</ele>
        <time>2021-05-22T10:50:39.261Z</time>
      </trkpt>
      <trkpt lat="47.23926" lon="-2.30798">
        <ele>8.53877945643</ele>
        <time>2021-05-22T10:50:42.759Z</time>
      </trkpt>
      <trkpt lat="47.23929" lon="-2.30803">
        <ele>7.89695142792</ele>
        <time>2021-05-22T10:50:46.258Z</time>
      </trkpt>
      <trkpt lat="47.24021" lon="-2.30927">
        <ele>7.14346060122</ele>
        <time>2021-05-22T10:50:49.799Z</time>
      </trkpt>
      <trkpt lat="47.24047" lon="-2.30966">
        <ele>6.67689581976</ele>
        <time>2021-05-22T10:50:53.352Z</time>
      </trkpt>
      <trkpt lat="47.24104" lon="-2.31052">
        <ele>6.28161600321</ele>
        <time>2021-05-22T10:50:56.932Z</time>
      </trkpt>
      <trkpt lat="47.24179" lon="-2.31179">
        <ele>6.03798599138</ele>
        <time>2021-05-22T10:51:00.551Z</time>
      </trkpt>
      <trkpt lat="47.24183" lon="-2.31185">
        <ele>5.9338422245</ele>
        <time>2021-05-22T10:51:04.172Z</time>
      </trkpt>
      <trkpt lat="47.24233" lon="-2.31283">
        <ele>5.90844323266</ele>
        <time>2021-05-22T10:51:07.820Z</time>
      </trkpt>
      <trkpt lat="47.24265" lon="-2.31354">
        <ele>6.00849360949</ele>
        <time>2021-05-22T10:51:11.488Z</time>
      </trkpt>
      <trkpt lat="47.24265" lon="-2.31355">
        <ele>6.2357895571</ele>
        <time>2021-05-22T10:51:15.156Z</time>
      </trkpt>
      <trkpt lat="47.24315" lon="-2.31489">
        <ele>6.60791714649</ele>
        <time>2021-05-22T10:51:18.859Z</time>
      </trkpt>
      <trkpt lat="47.24321" lon="-2.3149">
        <ele>7.08997852356</ele>
        <time>2021-05-22T10:51:22.564Z</time>
      </trkpt>
      <trkpt lat="47.24326" lon="-2.31491">
        <ele>7.64348300426</ele>
        <time>2021-05-22T10:51:26.270Z</time>
      </trkpt>
      <trkpt lat="47.24334" lon="-2.31491">
        <ele>8.26778067128</ele>
        <time>2021-05-22T10:51:29.979Z</time>
      </trkpt>
      <trkpt lat="47.24344" lon="-2.31492">
        <ele>8.94324837717</ele>
        <time>2021-05-22T10:51:33.691Z</time>
      </trkpt>
      <trkpt lat="47.24347" lon="-2.31495">
        <ele>9.60762943084</ele>
        <time>2021-05-22T10:51:37.405Z</time>
      </trkpt>
      <trkpt lat="47.2435" lon="-2.31503">
        <ele>10.28458005908</ele>
        <time>2021-05-22T10:51:41.121Z</time>
      </trkpt>
      <trkpt lat="47.24353" lon="-2.31507">
        <ele>10.95999653932</ele>
        <time>2021-05-22T10:51:44.838Z</time>
      </trkpt>
      <trkpt lat="47.24354" lon="-2.31508">
        <ele>11.61009208506</ele>
        <time>2021-05-22T10:51:48.555Z</time>
      </trkpt>
      <trkpt lat="47.24361" lon="-2.31526">
        <ele>12.26936225084</ele>
        <time>2021-05-22T10:51:52.277Z</time>
      </trkpt>
      <trkpt lat="47.24363" lon="-2.31542">
        <ele>12.86628613946</ele>
        <time>2021-05-22T10:51:56.003Z</time>
      </trkpt>
      <trkpt lat="47.24364" lon="-2.31566">
        <ele>13.3722869913</ele>
        <time>2021-05-22T10:51:59.734Z</time>
      </trkpt>
      <trkpt lat="47.24371" lon="-2.31592">
        <ele>13.88058666556</ele>
        <time>2021-05-22T10:52:03.472Z</time>
      </trkpt>
      <trkpt lat="47.24373" lon="-2.31616">
        <ele>14.3371078525</ele>
        <time>2021-05-22T10:52:07.215Z</time>
      </trkpt>
      <trkpt lat="47.24372" lon="-2.31636">
        <ele>14.73267487837</ele>
        <time>2021-05-22T10:52:10.963Z</time>
      </trkpt>
      <trkpt lat="47.24372" lon="-2.31638">
        <ele>15.08004599759</ele>
        <time>2021-05-22T10:52:14.711Z</time>
      </trkpt>
      <trkpt lat="47.24372" lon="-2.3165">
        <ele>15.39568307165</ele>
        <time>2021-05-22T10:52:18.462Z</time>
      </trkpt>
      <trkpt lat="47.2437" lon="-2.31666">
        <ele>15.65991877096</ele>
        <time>2021-05-22T10:52:22.217Z</time>
      </trkpt>
      <trkpt lat="47.24364" lon="-2.31697">
        <ele>15.86643693195</ele>
        <time>2021-05-22T10:52:25.979Z</time>
      </trkpt>
      <trkpt lat="47.24354" lon="-2.31723">
        <ele>15.99251734421</ele>
        <time>2021-05-22T10:52:29.748Z</time>
      </trkpt>
      <trkpt lat="47.24348" lon="-2.31738">
        <ele>16.00675290721</ele>
        <time>2021-05-22T10:52:33.521Z</time>
      </trkpt>
      <trkpt lat="47.24347" lon="-2.31755">
        <ele>15.99352071305</ele>
        <time>2021-05-22T10:52:37.297Z</time>
      </trkpt>
      <trkpt lat="47.24348" lon="-2.31759">
        <ele>15.96756445525</ele>
        <time>2021-05-22T10:52:41.074Z</time>
      </trkpt>
      <trkpt lat="47.24351" lon="-2.31789">
        <ele>15.81522714365</ele>
        <time>2021-05-22T10:52:44.858Z</time>
      </trkpt>
      <trkpt lat="47.24355" lon="-2.31798">
        <ele>15.66985595482</ele>
        <time>2021-05-22T10:52:48.645Z</time>
      </trkpt>
      <trkpt lat="47.24367" lon="-2.3182">
        <ele>15.48990499511</ele>
        <time>2021-05-22T10:52:52.438Z</time>
      </trkpt>
      <trkpt lat="47.24388" lon="-2.31848">
        <ele>15.35258837641</ele>
        <time>2021-05-22T10:52:56.241Z</time>
      </trkpt>
      <trkpt lat="47.24398" lon="-2.31858">
        <ele>15.16284777605</ele>
        <time>2021-05-22T10:53:00.048Z</time>
      </trkpt>
      <trkpt lat="47.24399" lon="-2.31858">
        <ele>14.91293631475</ele>
        <time>2021-05-22T10:53:03.855Z</time>
      </trkpt>
      <trkpt lat="47.24408" lon="-2.31866">
        <ele>14.65093644057</ele>
        <time>2021-05-22T10:53:07.665Z</time>
      </trkpt>
      <trkpt lat="47.24418" lon="-2.3187">
        <ele>14.34839758615</ele>
        <time>2021-05-22T10:53:11.479Z</time>
      </trkpt>
      <trkpt lat="47.24432" lon="-2.31873">
        <ele>14.01367307427</ele>
        <time>2021-05-22T10:53:15.298Z</time>
      </trkpt>
      <trkpt lat="47.24435" lon="-2.31878">
        <ele>13.60604167899</ele>
        <time>2021-05-22T10:53:19.118Z</time>
      </trkpt>
      <trkpt lat="47.24436" lon="-2.31879">
        <ele>13.17218760828</ele>
        <time>2021-05-22T10:53:22.939Z</time>
      </trkpt>
      <trkpt lat="47.24441" lon="-2.31893">
        <ele>12.67817543697</ele>
        <time>2021-05-22T10:53:26.763Z</time>
      </trkpt>
      <trkpt lat="47.24442" lon="-2.31894">
        <ele>12.20344493293</ele>
        <time>2021-05-22T10:53:30.588Z</time>
      </trkpt>
      <trkpt lat="47.24465" lon="-2.31961">
        <ele>11.43278836424</ele>
        <time>2021-05-22T10:53:34.430Z</time>
      </trkpt>
      <trkpt lat="47.24471" lon="-2.31972">
        <ele>10.96795931859</ele>
        <time>2021-05-22T10:53:38.275Z</time>
      </trkpt>
      <trkpt lat="47.24471" lon="-2.31971">
        <ele>10.55567118448</ele>
        <time>2021-05-22T10:53:42.120Z</time>
      </trkpt>
      <trkpt lat="47.24471" lon="-2.31972">
        <ele>10.96795931859</ele>
        <time>2021-05-22T10:53:45.965Z</time>
      </trkpt>
      <trkpt lat="47.24475" lon="-2.31982">
        <ele>9.84054989549</ele>
        <time>2021-05-22T10:53:49.813Z</time>
      </trkpt>
      <trkpt lat="47.24492" lon="-2.32003">
        <ele>9.59347483792</ele>
        <time>2021-05-22T10:53:53.668Z</time>
      </trkpt>
      <trkpt lat="47.24507" lon="-2.32017">
        <ele>9.42663354648</ele>
        <time>2021-05-22T10:53:57.529Z</time>
      </trkpt>
      <trkpt lat="47.24517" lon="-2.32023">
        <ele>9.30239570955</ele>
        <time>2021-05-22T10:54:01.394Z</time>
      </trkpt>
      <trkpt lat="47.24526" lon="-2.32026">
        <ele>9.21553596734</ele>
        <time>2021-05-22T10:54:05.262Z</time>
      </trkpt>
      <trkpt lat="47.24568" lon="-2.32056">
        <ele>9.1649109868</ele>
        <time>2021-05-22T10:54:09.146Z</time>
      </trkpt>
      <trkpt lat="47.24571" lon="-2.32057">
        <ele>9.10278862123</ele>
        <time>2021-05-22T10:54:13.031Z</time>
      </trkpt>
      <trkpt lat="47.24577" lon="-2.32064">
        <ele>9.04534754198</ele>
        <time>2021-05-22T10:54:16.918Z</time>
      </trkpt>
      <trkpt lat="47.24579" lon="-2.32065">
        <ele>9.01081085773</ele>
        <time>2021-05-22T10:54:20.806Z</time>
      </trkpt>
      <trkpt lat="47.24582" lon="-2.32067">
        <ele>8.98308038278</ele>
        <time>2021-05-22T10:54:24.695Z</time>
      </trkpt>
      <trkpt lat="47.24616" lon="-2.32122">
        <ele>8.88588914187</ele>
        <time>2021-05-22T10:54:28.601Z</time>
      </trkpt>
      <trkpt lat="47.24653" lon="-2.32168">
        <ele>8.9310281129</ele>
        <time>2021-05-22T10:54:32.523Z</time>
      </trkpt>
      <trkpt lat="47.24654" lon="-2.32169">
        <ele>8.93103459539</ele>
        <time>2021-05-22T10:54:36.445Z</time>
      </trkpt>
      <trkpt lat="47.24676" lon="-2.32207">
        <ele>8.91015535572</ele>
        <time>2021-05-22T10:54:40.379Z</time>
      </trkpt>
      <trkpt lat="47.24684" lon="-2.32222">
        <ele>8.91504991297</ele>
        <time>2021-05-22T10:54:44.317Z</time>
      </trkpt>
      <trkpt lat="47.2469" lon="-2.32236">
        <ele>8.9496006636</ele>
        <time>2021-05-22T10:54:48.259Z</time>
      </trkpt>
      <trkpt lat="47.24691" lon="-2.32239">
        <ele>8.96821761313</ele>
        <time>2021-05-22T10:54:52.202Z</time>
      </trkpt>
      <trkpt lat="47.24723" lon="-2.323">
        <ele>8.93081940943</ele>
        <time>2021-05-22T10:54:56.162Z</time>
      </trkpt>
      <trkpt lat="47.24738" lon="-2.32333">
        <ele>8.95504614671</ele>
        <time>2021-05-22T10:55:00.131Z</time>
      </trkpt>
      <trkpt lat="47.24738" lon="-2.32334">
        <ele>8.99953530292</ele>
        <time>2021-05-22T10:55:04.100Z</time>
      </trkpt>
      <trkpt lat="47.24741" lon="-2.32339">
        <ele>9.06536320352</ele>
        <time>2021-05-22T10:55:08.071Z</time>
      </trkpt>
      <trkpt lat="47.24743" lon="-2.32343">
        <ele>9.14219754115</ele>
        <time>2021-05-22T10:55:12.043Z</time>
      </trkpt>
      <trkpt lat="47.24749" lon="-2.32355">
        <ele>9.22095022109</ele>
        <time>2021-05-22T10:55:16.018Z</time>
      </trkpt>
      <trkpt lat="47.24761" lon="-2.32385">
        <ele>9.28085288077</ele>
        <time>2021-05-22T10:55:20.001Z</time>
      </trkpt>
      <trkpt lat="47.24768" lon="-2.32408">
        <ele>9.40729592341</ele>
        <time>2021-05-22T10:55:23.990Z</time>
      </trkpt>
      <trkpt lat="47.24788" lon="-2.32453">
        <ele>9.52880806339</ele>
        <time>2021-05-22T10:55:27.991Z</time>
      </trkpt>
      <trkpt lat="47.24811" lon="-2.32524">
        <ele>9.72251940941</ele>
        <time>2021-05-22T10:55:32.010Z</time>
      </trkpt>
      <trkpt lat="47.24814" lon="-2.32533">
        <ele>9.82570630444</ele>
        <time>2021-05-22T10:55:36.031Z</time>
      </trkpt>
      <trkpt lat="47.2482" lon="-2.32545">
        <ele>9.91761865627</ele>
        <time>2021-05-22T10:55:40.056Z</time>
      </trkpt>
      <trkpt lat="47.24838" lon="-2.32581">
        <ele>10.03012971926</ele>
        <time>2021-05-22T10:55:44.091Z</time>
      </trkpt>
      <trkpt lat="47.24844" lon="-2.32599">
        <ele>10.102408659</ele>
        <time>2021-05-22T10:55:48.130Z</time>
      </trkpt>
      <trkpt lat="47.24854" lon="-2.32632">
        <ele>10.16029791255</ele>
        <time>2021-05-22T10:55:52.177Z</time>
      </trkpt>
      <trkpt lat="47.24865" lon="-2.32654">
        <ele>10.10367047801</ele>
        <time>2021-05-22T10:55:56.231Z</time>
      </trkpt>
      <trkpt lat="47.2487" lon="-2.32664">
        <ele>10.02826172525</ele>
        <time>2021-05-22T10:56:00.288Z</time>
      </trkpt>
      <trkpt lat="47.24872" lon="-2.32669">
        <ele>9.89955014036</ele>
        <time>2021-05-22T10:56:04.346Z</time>
      </trkpt>
      <trkpt lat="47.24876" lon="-2.32679">
        <ele>9.75265242005</ele>
        <time>2021-05-22T10:56:08.406Z</time>
      </trkpt>
      <trkpt lat="47.24887" lon="-2.32712">
        <ele>9.50237805651</ele>
        <time>2021-05-22T10:56:12.475Z</time>
      </trkpt>
      <trkpt lat="47.24921" lon="-2.328">
        <ele>9.23871055202</ele>
        <time>2021-05-22T10:56:16.567Z</time>
      </trkpt>
      <trkpt lat="47.24932" lon="-2.32829">
        <ele>8.99622312769</ele>
        <time>2021-05-22T10:56:20.666Z</time>
      </trkpt>
      <trkpt lat="47.24933" lon="-2.32832">
        <ele>8.82176158892</ele>
        <time>2021-05-22T10:56:24.766Z</time>
      </trkpt>
      <trkpt lat="47.2494" lon="-2.32853">
        <ele>8.69597977961</ele>
        <time>2021-05-22T10:56:28.871Z</time>
      </trkpt>
      <trkpt lat="47.24953" lon="-2.32888">
        <ele>8.58868933631</ele>
        <time>2021-05-22T10:56:32.985Z</time>
      </trkpt>
      <trkpt lat="47.24964" lon="-2.32916">
        <ele>8.52999283833</ele>
        <time>2021-05-22T10:56:37.107Z</time>
      </trkpt>
      <trkpt lat="47.24974" lon="-2.32963">
        <ele>8.44086010259</ele>
        <time>2021-05-22T10:56:41.240Z</time>
      </trkpt>
      <trkpt lat="47.24978" lon="-2.32979">
        <ele>8.35758783883</ele>
        <time>2021-05-22T10:56:45.377Z</time>
      </trkpt>
      <trkpt lat="47.24978" lon="-2.32984">
        <ele>8.30260437844</ele>
        <time>2021-05-22T10:56:49.515Z</time>
      </trkpt>
      <trkpt lat="47.24984" lon="-2.32998">
        <ele>8.28932417608</ele>
        <time>2021-05-22T10:56:53.657Z</time>
      </trkpt>
      <trkpt lat="47.2505" lon="-2.33147">
        <ele>8.39078638014</ele>
        <time>2021-05-22T10:56:57.839Z</time>
      </trkpt>
      <trkpt lat="47.25052" lon="-2.33145">
        <ele>8.36741307839</ele>
        <time>2021-05-22T10:57:02.022Z</time>
      </trkpt>
      <trkpt lat="47.25054" lon="-2.33144">
        <ele>8.33160215382</ele>
        <time>2021-05-22T10:57:06.206Z</time>
      </trkpt>
      <trkpt lat="47.25056" lon="-2.33146">
        <ele>8.27122977315</ele>
        <time>2021-05-22T10:57:10.390Z</time>
      </trkpt>
      <trkpt lat="47.25057" lon="-2.33152">
        <ele>8.1834713834</ele>
        <time>2021-05-22T10:57:14.576Z</time>
      </trkpt>
      <trkpt lat="47.25054" lon="-2.33157">
        <ele>8.10032193926</ele>
        <time>2021-05-22T10:57:18.763Z</time>
      </trkpt>
      <trkpt lat="47.25071" lon="-2.33191">
        <ele>7.98380826467</ele>
        <time>2021-05-22T10:57:22.960Z</time>
      </trkpt>
      <trkpt lat="47.25104" lon="-2.33257">
        <ele>7.84731770478</ele>
        <time>2021-05-22T10:57:27.176Z</time>
      </trkpt>
      <trkpt lat="47.25108" lon="-2.33258">
        <ele>7.75857818782</ele>
        <time>2021-05-22T10:57:31.393Z</time>
      </trkpt>
      <trkpt lat="47.25122" lon="-2.33286">
        <ele>7.65490338251</ele>
        <time>2021-05-22T10:57:35.618Z</time>
      </trkpt>
      <trkpt lat="47.25124" lon="-2.33295">
        <ele>7.57502331306</ele>
        <time>2021-05-22T10:57:39.845Z</time>
      </trkpt>
      <trkpt lat="47.25168" lon="-2.3338">
        <ele>7.47072332056</ele>
        <time>2021-05-22T10:57:44.096Z</time>
      </trkpt>
      <trkpt lat="47.25169" lon="-2.33381">
        <ele>7.3978719854</ele>
        <time>2021-05-22T10:57:48.348Z</time>
      </trkpt>
      <trkpt lat="47.25176" lon="-2.33375">
        <ele>7.35007504544</ele>
        <time>2021-05-22T10:57:52.602Z</time>
      </trkpt>
      <trkpt lat="47.25178" lon="-2.3338">
        <ele>7.29596303888</ele>
        <time>2021-05-22T10:57:56.858Z</time>
      </trkpt>
      <trkpt lat="47.25179" lon="-2.33384">
        <ele>7.24617135255</ele>
        <time>2021-05-22T10:58:01.115Z</time>
      </trkpt>
      <trkpt lat="47.25174" lon="-2.33391">
        <ele>7.15749955226</ele>
        <time>2021-05-22T10:58:05.374Z</time>
      </trkpt>
      <trkpt lat="47.2521" lon="-2.33467">
        <ele>7.17039803799</ele>
        <time>2021-05-22T10:58:09.654Z</time>
      </trkpt>
      <trkpt lat="47.25216" lon="-2.33473">
        <ele>7.14296401404</ele>
        <time>2021-05-22T10:58:13.936Z</time>
      </trkpt>
      <trkpt lat="47.2522" lon="-2.33482">
        <ele>7.10381727169</ele>
        <time>2021-05-22T10:58:18.221Z</time>
      </trkpt>
      <trkpt lat="47.25229" lon="-2.33501">
        <ele>7.05184527869</ele>
        <time>2021-05-22T10:58:22.511Z</time>
      </trkpt>
      <trkpt lat="47.25231" lon="-2.33508">
        <ele>7.00766044014</ele>
        <time>2021-05-22T10:58:26.803Z</time>
      </trkpt>
      <trkpt lat="47.25239" lon="-2.33526">
        <ele>6.97514775501</ele>
        <time>2021-05-22T10:58:31.100Z</time>
      </trkpt>
      <trkpt lat="47.25265" lon="-2.33575">
        <ele>6.94572179574</ele>
        <time>2021-05-22T10:58:35.411Z</time>
      </trkpt>
      <trkpt lat="47.25271" lon="-2.33582">
        <ele>6.93876345768</ele>
        <time>2021-05-22T10:58:39.724Z</time>
      </trkpt>
      <trkpt lat="47.25278" lon="-2.33575">
        <ele>6.93404035438</ele>
        <time>2021-05-22T10:58:44.040Z</time>
      </trkpt>
      <trkpt lat="47.2528" lon="-2.33578">
        <ele>6.91041143287</ele>
        <time>2021-05-22T10:58:48.357Z</time>
      </trkpt>
      <trkpt lat="47.25281" lon="-2.33582">
        <ele>6.87195592078</ele>
        <time>2021-05-22T10:58:52.675Z</time>
      </trkpt>
      <trkpt lat="47.25276" lon="-2.33589">
        <ele>6.80924278457</ele>
        <time>2021-05-22T10:58:56.995Z</time>
      </trkpt>
      <trkpt lat="47.25288" lon="-2.33604">
        <ele>6.76318275121</ele>
        <time>2021-05-22T10:59:01.321Z</time>
      </trkpt>
      <trkpt lat="47.2531" lon="-2.33631">
        <ele>6.73565440032</ele>
        <time>2021-05-22T10:59:05.656Z</time>
      </trkpt>
      <trkpt lat="47.25316" lon="-2.33635">
        <ele>6.69720583674</ele>
        <time>2021-05-22T10:59:09.993Z</time>
      </trkpt>
      <trkpt lat="47.25322" lon="-2.33643">
        <ele>6.63611566535</ele>
        <time>2021-05-22T10:59:14.333Z</time>
      </trkpt>
      <trkpt lat="47.25334" lon="-2.33658">
        <ele>6.57507291407</ele>
        <time>2021-05-22T10:59:18.678Z</time>
      </trkpt>
      <trkpt lat="47.25337" lon="-2.33664">
        <ele>6.49358260006</ele>
        <time>2021-05-22T10:59:23.025Z</time>
      </trkpt>
      <trkpt lat="47.25359" lon="-2.33692">
        <ele>6.39170656967</ele>
        <time>2021-05-22T10:59:27.382Z</time>
      </trkpt>
      <trkpt lat="47.25363" lon="-2.3369">
        <ele>6.30938710297</ele>
        <time>2021-05-22T10:59:31.740Z</time>
      </trkpt>
      <trkpt lat="47.25377" lon="-2.33707">
        <ele>6.1889279776</ele>
        <time>2021-05-22T10:59:36.104Z</time>
      </trkpt>
      <trkpt lat="47.25381" lon="-2.33708">
        <ele>6.10575401828</ele>
        <time>2021-05-22T10:59:40.470Z</time>
      </trkpt>
      <trkpt lat="47.25393" lon="-2.33734">
        <ele>5.98864408294</ele>
        <time>2021-05-22T10:59:44.843Z</time>
      </trkpt>
      <trkpt lat="47.25413" lon="-2.33777">
        <ele>5.89899821685</ele>
        <time>2021-05-22T10:59:49.227Z</time>
      </trkpt>
      <trkpt lat="47.25452" lon="-2.33858">
        <ele>5.8782811413</ele>
        <time>2021-05-22T10:59:53.634Z</time>
      </trkpt>
      <trkpt lat="47.25479" lon="-2.33901">
        <ele>5.84405174824</ele>
        <time>2021-05-22T10:59:58.054Z</time>
      </trkpt>
      <trkpt lat="47.25485" lon="-2.33908">
        <ele>5.80103353936</ele>
        <time>2021-05-22T11:00:02.477Z</time>
      </trkpt>
      <trkpt lat="47.25486" lon="-2.3391">
        <ele>5.78109786972</ele>
        <time>2021-05-22T11:00:06.900Z</time>
      </trkpt>
      <trkpt lat="47.25491" lon="-2.33918">
        <ele>5.75592742493</ele>
        <time>2021-05-22T11:00:11.326Z</time>
      </trkpt>
      <trkpt lat="47.25492" lon="-2.33923">
        <ele>5.7578407218</ele>
        <time>2021-05-22T11:00:15.753Z</time>
      </trkpt>
      <trkpt lat="47.25493" lon="-2.33927">
        <ele>5.78320110279</ele>
        <time>2021-05-22T11:00:20.181Z</time>
      </trkpt>
      <trkpt lat="47.25494" lon="-2.33928">
        <ele>5.8408980435</ele>
        <time>2021-05-22T11:00:24.609Z</time>
      </trkpt>
      <trkpt lat="47.25494" lon="-2.33929">
        <ele>5.91072884621</ele>
        <time>2021-05-22T11:00:29.038Z</time>
      </trkpt>
      <trkpt lat="47.25507" lon="-2.3393">
        <ele>6.05303555641</ele>
        <time>2021-05-22T11:00:33.471Z</time>
      </trkpt>
      <trkpt lat="47.25515" lon="-2.33937">
        <ele>6.17015892422</ele>
        <time>2021-05-22T11:00:37.907Z</time>
      </trkpt>
      <trkpt lat="47.25545" lon="-2.33964">
        <ele>6.3195788852</ele>
        <time>2021-05-22T11:00:42.355Z</time>
      </trkpt>
      <trkpt lat="47.25548" lon="-2.33967">
        <ele>6.40515035048</ele>
        <time>2021-05-22T11:00:46.804Z</time>
      </trkpt>
      <trkpt lat="47.25574" lon="-2.33994">
        <ele>6.42897806508</ele>
        <time>2021-05-22T11:00:51.264Z</time>
      </trkpt>
      <trkpt lat="47.25582" lon="-2.34003">
        <ele>6.46273377468</ele>
        <time>2021-05-22T11:00:55.727Z</time>
      </trkpt>
      <trkpt lat="47.25602" lon="-2.34025">
        <ele>6.50304120273</ele>
        <time>2021-05-22T11:01:00.198Z</time>
      </trkpt>
      <trkpt lat="47.25609" lon="-2.34036">
        <ele>6.51237472032</ele>
        <time>2021-05-22T11:01:04.673Z</time>
      </trkpt>
      <trkpt lat="47.25632" lon="-2.34093">
        <ele>6.4900840589</ele>
        <time>2021-05-22T11:01:09.163Z</time>
      </trkpt>
      <trkpt lat="47.25627" lon="-2.34098">
        <ele>6.43236171973</ele>
        <time>2021-05-22T11:01:13.655Z</time>
      </trkpt>
      <trkpt lat="47.25627" lon="-2.34104">
        <ele>6.36446276241</ele>
        <time>2021-05-22T11:01:18.148Z</time>
      </trkpt>
      <trkpt lat="47.25627" lon="-2.34105">
        <ele>6.28124141991</ele>
        <time>2021-05-22T11:01:22.641Z</time>
      </trkpt>
      <trkpt lat="47.25625" lon="-2.34108">
        <ele>6.16573500931</ele>
        <time>2021-05-22T11:01:27.135Z</time>
      </trkpt>
      <trkpt lat="47.25633" lon="-2.34125">
        <ele>6.03849341204</ele>
        <time>2021-05-22T11:01:31.634Z</time>
      </trkpt>
      <trkpt lat="47.25642" lon="-2.3414">
        <ele>5.85571170091</ele>
        <time>2021-05-22T11:01:36.138Z</time>
      </trkpt>
      <trkpt lat="47.2565" lon="-2.3416">
        <ele>5.67119984322</ele>
        <time>2021-05-22T11:01:40.647Z</time>
      </trkpt>
      <trkpt lat="47.25654" lon="-2.34157">
        <ele>5.50278899988</ele>
        <time>2021-05-22T11:01:45.157Z</time>
      </trkpt>
      <trkpt lat="47.25665" lon="-2.3418">
        <ele>5.27921404777</ele>
        <time>2021-05-22T11:01:49.674Z</time>
      </trkpt>
      <trkpt lat="47.25672" lon="-2.34188">
        <ele>5.0533891376</ele>
        <time>2021-05-22T11:01:54.194Z</time>
      </trkpt>
      <trkpt lat="47.25678" lon="-2.34192">
        <ele>4.81142136849</ele>
        <time>2021-05-22T11:01:58.716Z</time>
      </trkpt>
      <trkpt lat="47.25682" lon="-2.34194">
        <ele>4.54112678558</ele>
        <time>2021-05-22T11:02:03.239Z</time>
      </trkpt>
      <trkpt lat="47.25793" lon="-2.34172">
        <ele>4.35954513307</ele>
        <time>2021-05-22T11:02:07.800Z</time>
      </trkpt>
      <trkpt lat="47.25827" lon="-2.34176">
        <ele>3.94865133125</ele>
        <time>2021-05-22T11:02:12.372Z</time>
      </trkpt>
      <trkpt lat="47.25829" lon="-2.34176">
        <ele>3.57838038022</ele>
        <time>2021-05-22T11:02:16.945Z</time>
      </trkpt>
      <trkpt lat="47.25832" lon="-2.34172">
        <ele>3.18503546393</ele>
        <time>2021-05-22T11:02:21.519Z</time>
      </trkpt>
      <trkpt lat="47.25833" lon="-2.34165">
        <ele>2.7810018446</ele>
        <time>2021-05-22T11:02:26.095Z</time>
      </trkpt>
      <trkpt lat="47.25834" lon="-2.34157">
        <ele>2.37248096867</ele>
        <time>2021-05-22T11:02:30.673Z</time>
      </trkpt>
      <trkpt lat="47.25869" lon="-2.34167">
        <ele>1.76946436174</ele>
        <time>2021-05-22T11:02:35.262Z</time>
      </trkpt>
      <trkpt lat="47.25872" lon="-2.34168">
        <ele>1.3314095205</ele>
        <time>2021-05-22T11:02:39.852Z</time>
      </trkpt>
      <trkpt lat="47.25877" lon="-2.34149">
        <ele>0.93614844213</ele>
        <time>2021-05-22T11:02:44.447Z</time>
      </trkpt>
      <trkpt lat="47.25894" lon="-2.34145">
        <ele>0.55309498797</ele>
        <time>2021-05-22T11:02:49.048Z</time>
      </trkpt>
      <trkpt lat="47.25894" lon="-2.34147">
        <ele>0.2480451003</ele>
        <time>2021-05-22T11:02:53.649Z</time>
      </trkpt>
      <trkpt lat="47.25894" lon="-2.34145">
        <ele>0.55309498797</ele>
        <time>2021-05-22T11:02:58.251Z</time>
      </trkpt>
      <trkpt lat="47.25894" lon="-2.34141">
        <ele>-0.18008562592</ele>
        <time>2021-05-22T11:03:02.854Z</time>
      </trkpt>
      <trkpt lat="47.25896" lon="-2.34137">
        <ele>-0.28957802684</ele>
        <time>2021-05-22T11:03:07.458Z</time>
      </trkpt>
      <trkpt lat="47.25901" lon="-2.34133">
        <ele>-0.32296079093</ele>
        <time>2021-05-22T11:03:12.064Z</time>
      </trkpt>
      <trkpt lat="47.25907" lon="-2.34134">
        <ele>-0.27746344023</ele>
        <time>2021-05-22T11:03:16.672Z</time>
      </trkpt>
      <trkpt lat="47.25909" lon="-2.34137">
        <ele>-0.15198207726</ele>
        <time>2021-05-22T11:03:21.281Z</time>
      </trkpt>
      <trkpt lat="47.2591" lon="-2.34139">
        <ele>0.05285917416</ele>
        <time>2021-05-22T11:03:25.890Z</time>
      </trkpt>
      <trkpt lat="47.25935" lon="-2.34126">
        <ele>0.33462767449</ele>
        <time>2021-05-22T11:03:30.508Z</time>
      </trkpt>
      <trkpt lat="47.25936" lon="-2.34122">
        <ele>0.68898514777</ele>
        <time>2021-05-22T11:03:35.127Z</time>
      </trkpt>
      <trkpt lat="47.25939" lon="-2.3411">
        <ele>1.11655415246</ele>
        <time>2021-05-22T11:03:39.749Z</time>
      </trkpt>
      <trkpt lat="47.25936" lon="-2.34122">
        <ele>0.68898514777</ele>
        <time>2021-05-22T11:03:44.374Z</time>
      </trkpt>
      <trkpt lat="47.25935" lon="-2.34126">
        <ele>0.33462767449</ele>
        <time>2021-05-22T11:03:49.000Z</time>
      </trkpt>
      <trkpt lat="47.25952" lon="-2.34106">
        <ele>2.75475954271</ele>
        <time>2021-05-22T11:03:53.633Z</time>
      </trkpt>
      <trkpt lat="47.25966" lon="-2.3411">
        <ele>3.40249343624</ele>
        <time>2021-05-22T11:03:58.271Z</time>
      </trkpt>
      <trkpt lat="47.25972" lon="-2.34107">
        <ele>3.99904718636</ele>
        <time>2021-05-22T11:04:02.911Z</time>
      </trkpt>
      <trkpt lat="47.26028" lon="-2.34129">
        <ele>4.65109496121</ele>
        <time>2021-05-22T11:04:07.570Z</time>
      </trkpt>
      <trkpt lat="47.2603" lon="-2.3413">
        <ele>5.17399073735</ele>
        <time>2021-05-22T11:04:12.230Z</time>
      </trkpt>
      <trkpt lat="47.26032" lon="-2.3412">
        <ele>5.6718018131</ele>
        <time>2021-05-22T11:04:16.892Z</time>
      </trkpt>
      <trkpt lat="47.26035" lon="-2.34108">
        <ele>6.10773308908</ele>
        <time>2021-05-22T11:04:21.557Z</time>
      </trkpt>
      <trkpt lat="47.26049" lon="-2.34115">
        <ele>6.47944989484</ele>
        <time>2021-05-22T11:04:26.227Z</time>
      </trkpt>
      <trkpt lat="47.26051" lon="-2.34116">
        <ele>6.73101185326</ele>
        <time>2021-05-22T11:04:30.898Z</time>
      </trkpt>
      <trkpt lat="47.2605" lon="-2.34111">
        <ele>6.92521394275</ele>
        <time>2021-05-22T11:04:35.570Z</time>
      </trkpt>
      <trkpt lat="47.26063" lon="-2.33978">
        <ele>6.9139895953</ele>
        <time>2021-05-22T11:04:40.273Z</time>
      </trkpt>
      <trkpt lat="47.26065" lon="-2.33971">
        <ele>6.93013593622</ele>
        <time>2021-05-22T11:04:44.977Z</time>
      </trkpt>
      <trkpt lat="47.26064" lon="-2.33965">
        <ele>6.89591163923</ele>
        <time>2021-05-22T11:04:49.683Z</time>
      </trkpt>
      <trkpt lat="47.26064" lon="-2.33947">
        <ele>6.80235512263</ele>
        <time>2021-05-22T11:04:54.393Z</time>
      </trkpt>
      <trkpt lat="47.26065" lon="-2.33942">
        <ele>6.69088777136</ele>
        <time>2021-05-22T11:04:59.104Z</time>
      </trkpt>
      <trkpt lat="47.26066" lon="-2.33938">
        <ele>6.55490151688</ele>
        <time>2021-05-22T11:05:03.816Z</time>
      </trkpt>
      <trkpt lat="47.26067" lon="-2.33931">
        <ele>6.39834227995</ele>
        <time>2021-05-22T11:05:08.530Z</time>
      </trkpt>
      <trkpt lat="47.26068" lon="-2.33923">
        <ele>6.23286339139</ele>
        <time>2021-05-22T11:05:13.245Z</time>
      </trkpt>
      <trkpt lat="47.26075" lon="-2.3386">
        <ele>6.06373251052</ele>
        <time>2021-05-22T11:05:17.975Z</time>
      </trkpt>
      <trkpt lat="47.26078" lon="-2.33832">
        <ele>5.91479838082</ele>
        <time>2021-05-22T11:05:22.711Z</time>
      </trkpt>
      <trkpt lat="47.26095" lon="-2.33782">
        <ele>5.75626948004</ele>
        <time>2021-05-22T11:05:27.460Z</time>
      </trkpt>
      <trkpt lat="47.26096" lon="-2.33782">
        <ele>5.63282058936</ele>
        <time>2021-05-22T11:05:32.209Z</time>
      </trkpt>
      <trkpt lat="47.26102" lon="-2.33781">
        <ele>5.51888576843</ele>
        <time>2021-05-22T11:05:36.960Z</time>
      </trkpt>
      <trkpt lat="47.26152" lon="-2.33756">
        <ele>5.45542290345</ele>
        <time>2021-05-22T11:05:41.729Z</time>
      </trkpt>
      <trkpt lat="47.26163" lon="-2.3375">
        <ele>5.39682899311</ele>
        <time>2021-05-22T11:05:46.502Z</time>
      </trkpt>
      <trkpt lat="47.26191" lon="-2.3374">
        <ele>5.37584131098</ele>
        <time>2021-05-22T11:05:51.285Z</time>
      </trkpt>
      <trkpt lat="47.26307" lon="-2.33666">
        <ele>5.31482576004</ele>
        <time>2021-05-22T11:05:56.110Z</time>
      </trkpt>
      <trkpt lat="47.26316" lon="-2.33659">
        <ele>5.2374416657</ele>
        <time>2021-05-22T11:06:00.938Z</time>
      </trkpt>
      <trkpt lat="47.26317" lon="-2.33658">
        <ele>5.13319990415</ele>
        <time>2021-05-22T11:06:05.766Z</time>
      </trkpt>
      <trkpt lat="47.26316" lon="-2.33655">
        <ele>5.00659927892</ele>
        <time>2021-05-22T11:06:10.595Z</time>
      </trkpt>
      <trkpt lat="47.26309" lon="-2.3362">
        <ele>4.82477162058</ele>
        <time>2021-05-22T11:06:15.433Z</time>
      </trkpt>
      <trkpt lat="47.26309" lon="-2.33603">
        <ele>4.65126388904</ele>
        <time>2021-05-22T11:06:20.274Z</time>
      </trkpt>
      <trkpt lat="47.26325" lon="-2.33502">
        <ele>4.4392022188</ele>
        <time>2021-05-22T11:06:25.139Z</time>
      </trkpt>
      <trkpt lat="47.26327" lon="-2.33485">
        <ele>4.2326594834</ele>
        <time>2021-05-22T11:06:30.008Z</time>
      </trkpt>
      <trkpt lat="47.26324" lon="-2.33432">
        <ele>3.96144285662</ele>
        <time>2021-05-22T11:06:34.889Z</time>
      </trkpt>
      <trkpt lat="47.26324" lon="-2.33429">
        <ele>3.72671622522</ele>
        <time>2021-05-22T11:06:39.771Z</time>
      </trkpt>
      <trkpt lat="47.26324" lon="-2.33432">
        <ele>3.96144285662</ele>
        <time>2021-05-22T11:06:44.653Z</time>
      </trkpt>
      <trkpt lat="47.26333" lon="-2.33429">
        <ele>3.26453887868</ele>
        <time>2021-05-22T11:06:49.538Z</time>
      </trkpt>
      <trkpt lat="47.26379" lon="-2.33417">
        <ele>3.00482105796</ele>
        <time>2021-05-22T11:06:54.439Z</time>
      </trkpt>
      <trkpt lat="47.26422" lon="-2.33398">
        <ele>2.68262503729</ele>
        <time>2021-05-22T11:06:59.355Z</time>
      </trkpt>
      <trkpt lat="47.26435" lon="-2.33391">
        <ele>2.45802747576</ele>
        <time>2021-05-22T11:07:04.276Z</time>
      </trkpt>
      <trkpt lat="47.26448" lon="-2.33382">
        <ele>2.28236317214</ele>
        <time>2021-05-22T11:07:09.201Z</time>
      </trkpt>
      <trkpt lat="47.26473" lon="-2.33364">
        <ele>2.1532855061</ele>
        <time>2021-05-22T11:07:14.136Z</time>
      </trkpt>
      <trkpt lat="47.26489" lon="-2.33351">
        <ele>2.03910359468</ele>
        <time>2021-05-22T11:07:19.077Z</time>
      </trkpt>
      <trkpt lat="47.26489" lon="-2.33349">
        <ele>1.91424618603</ele>
        <time>2021-05-22T11:07:24.018Z</time>
      </trkpt>
      <trkpt lat="47.26487" lon="-2.33343">
        <ele>1.80593167974</ele>
        <time>2021-05-22T11:07:28.961Z</time>
      </trkpt>
      <trkpt lat="47.26486" lon="-2.3334">
        <ele>1.70539235398</ele>
        <time>2021-05-22T11:07:33.904Z</time>
      </trkpt>
      <trkpt lat="47.26485" lon="-2.33339">
        <ele>1.60958792548</ele>
        <time>2021-05-22T11:07:38.848Z</time>
      </trkpt>
      <trkpt lat="47.26484" lon="-2.33338">
        <ele>1.51839504006</ele>
        <time>2021-05-22T11:07:43.792Z</time>
      </trkpt>
      <trkpt lat="47.26482" lon="-2.33335">
        <ele>1.42442959652</ele>
        <time>2021-05-22T11:07:48.737Z</time>
      </trkpt>
      <trkpt lat="47.2648" lon="-2.33331">
        <ele>1.33148592428</ele>
        <time>2021-05-22T11:07:53.683Z</time>
      </trkpt>
      <trkpt lat="47.26485" lon="-2.33319">
        <ele>1.25830605113</ele>
        <time>2021-05-22T11:07:58.633Z</time>
      </trkpt>
      <trkpt lat="47.26485" lon="-2.33307">
        <ele>1.17027625192</ele>
        <time>2021-05-22T11:08:03.585Z</time>
      </trkpt>
      <trkpt lat="47.26489" lon="-2.33297">
        <ele>1.08739162221</ele>
        <time>2021-05-22T11:08:08.540Z</time>
      </trkpt>
      <trkpt lat="47.26489" lon="-2.33281">
        <ele>0.97668539572</ele>
        <time>2021-05-22T11:08:13.499Z</time>
      </trkpt>
      <trkpt lat="47.26489" lon="-2.3328">
        <ele>0.89022973677</ele>
        <time>2021-05-22T11:08:18.458Z</time>
      </trkpt>
      <trkpt lat="47.26492" lon="-2.3328">
        <ele>0.81996317607</ele>
        <time>2021-05-22T11:08:23.418Z</time>
      </trkpt>
      <trkpt lat="47.26493" lon="-2.33267">
        <ele>0.73626245232</ele>
        <time>2021-05-22T11:08:28.381Z</time>
      </trkpt>
      <trkpt lat="47.26496" lon="-2.33255">
        <ele>0.66563496341</ele>
        <time>2021-05-22T11:08:33.347Z</time>
      </trkpt>
      <trkpt lat="47.26501" lon="-2.33242">
        <ele>0.61272246757</ele>
        <time>2021-05-22T11:08:38.316Z</time>
      </trkpt>
      <trkpt lat="47.26511" lon="-2.33231">
        <ele>0.5878885082</ele>
        <time>2021-05-22T11:08:43.289Z</time>
      </trkpt>
      <trkpt lat="47.26522" lon="-2.33223">
        <ele>0.59869664035</ele>
        <time>2021-05-22T11:08:48.266Z</time>
      </trkpt>
      <trkpt lat="47.2656" lon="-2.33203">
        <ele>0.69953288504</ele>
        <time>2021-05-22T11:08:53.257Z</time>
      </trkpt>
      <trkpt lat="47.26566" lon="-2.33199">
        <ele>0.80105978111</ele>
        <time>2021-05-22T11:08:58.250Z</time>
      </trkpt>
      <trkpt lat="47.26575" lon="-2.33191">
        <ele>0.94465777194</ele>
        <time>2021-05-22T11:09:03.246Z</time>
      </trkpt>
      <trkpt lat="47.26582" lon="-2.33181">
        <ele>1.12340747881</ele>
        <time>2021-05-22T11:09:08.246Z</time>
      </trkpt>
      <trkpt lat="47.26582" lon="-2.3318">
        <ele>1.33751172295</ele>
        <time>2021-05-22T11:09:13.246Z</time>
      </trkpt>
      <trkpt lat="47.26586" lon="-2.33165">
        <ele>1.60860600793</ele>
        <time>2021-05-22T11:09:18.250Z</time>
      </trkpt>
      <trkpt lat="47.26587" lon="-2.33157">
        <ele>1.91762280288</ele>
        <time>2021-05-22T11:09:23.255Z</time>
      </trkpt>
      <trkpt lat="47.26585" lon="-2.33148">
        <ele>2.26790426129</ele>
        <time>2021-05-22T11:09:28.263Z</time>
      </trkpt>
      <trkpt lat="47.2659" lon="-2.33146">
        <ele>2.65464258669</ele>
        <time>2021-05-22T11:09:33.272Z</time>
      </trkpt>
      <trkpt lat="47.26598" lon="-2.33143">
        <ele>3.08160913413</ele>
        <time>2021-05-22T11:09:38.284Z</time>
      </trkpt>
      <trkpt lat="47.26629" lon="-2.33153">
        <ele>3.49603800193</ele>
        <time>2021-05-22T11:09:43.307Z</time>
      </trkpt>
      <trkpt lat="47.26641" lon="-2.33144">
        <ele>4.01706705775</ele>
        <time>2021-05-22T11:09:48.334Z</time>
      </trkpt>
      <trkpt lat="47.26663" lon="-2.33127">
        <ele>4.5969065687</ele>
        <time>2021-05-22T11:09:53.369Z</time>
      </trkpt>
      <trkpt lat="47.26714" lon="-2.33078">
        <ele>5.20139452901</ele>
        <time>2021-05-22T11:09:58.425Z</time>
      </trkpt>
      <trkpt lat="47.26731" lon="-2.33054">
        <ele>5.80765194263</ele>
        <time>2021-05-22T11:10:03.489Z</time>
      </trkpt>
      <trkpt lat="47.26729" lon="-2.33005">
        <ele>6.44248083215</ele>
        <time>2021-05-22T11:10:08.564Z</time>
      </trkpt>
      <trkpt lat="47.26739" lon="-2.32974">
        <ele>7.03518097165</ele>
        <time>2021-05-22T11:10:13.647Z</time>
      </trkpt>
      <trkpt lat="47.26778" lon="-2.32934">
        <ele>7.63605387534</ele>
        <time>2021-05-22T11:10:18.745Z</time>
      </trkpt>
      <trkpt lat="47.2686" lon="-2.3287">
        <ele>8.18119442658</ele>
        <time>2021-05-22T11:10:23.874Z</time>
      </trkpt>
      <trkpt lat="47.26863" lon="-2.32867">
        <ele>8.64871721211</ele>
        <time>2021-05-22T11:10:29.005Z</time>
      </trkpt>
      <trkpt lat="47.26796" lon="-2.32674">
        <ele>9.42461249722</ele>
        <time>2021-05-22T11:10:34.185Z</time>
      </trkpt>
      <trkpt lat="47.26806" lon="-2.3266">
        <ele>9.69463927871</ele>
        <time>2021-05-22T11:10:39.369Z</time>
      </trkpt>
      <trkpt lat="47.26792" lon="-2.32493">
        <ele>9.89119208731</ele>
        <time>2021-05-22T11:10:44.592Z</time>
      </trkpt>
      <trkpt lat="47.26773" lon="-2.32368">
        <ele>9.97766706397</ele>
        <time>2021-05-22T11:10:49.844Z</time>
      </trkpt>
      <trkpt lat="47.26774" lon="-2.32368">
        <ele>9.86293255925</ele>
        <time>2021-05-22T11:10:55.096Z</time>
      </trkpt>
      <trkpt lat="47.26908" lon="-2.32335">
        <ele>9.2642152029</ele>
        <time>2021-05-22T11:11:00.393Z</time>
      </trkpt>
      <trkpt lat="47.26924" lon="-2.32326">
        <ele>8.89211969606</ele>
        <time>2021-05-22T11:11:05.696Z</time>
      </trkpt>
      <trkpt lat="47.26999" lon="-2.3251">
        <ele>8.36681240233</ele>
        <time>2021-05-22T11:11:11.048Z</time>
      </trkpt>
      <trkpt lat="47.27011" lon="-2.32505">
        <ele>7.90399491947</ele>
        <time>2021-05-22T11:11:16.404Z</time>
      </trkpt>
      <trkpt lat="47.27021" lon="-2.32501">
        <ele>7.435935511</ele>
        <time>2021-05-22T11:11:21.763Z</time>
      </trkpt>
      <trkpt lat="47.27031" lon="-2.32492">
        <ele>6.99289879467</ele>
        <time>2021-05-22T11:11:27.126Z</time>
      </trkpt>
      <trkpt lat="47.27032" lon="-2.32479">
        <ele>6.593167234</ele>
        <time>2021-05-22T11:11:32.492Z</time>
      </trkpt>
      <trkpt lat="47.2703" lon="-2.32433">
        <ele>6.24199834262</ele>
        <time>2021-05-22T11:11:37.869Z</time>
      </trkpt>
      <trkpt lat="47.27025" lon="-2.32347">
        <ele>5.95730175505</ele>
        <time>2021-05-22T11:11:43.265Z</time>
      </trkpt>
      <trkpt lat="47.27019" lon="-2.32244">
        <ele>5.6448460127</ele>
        <time>2021-05-22T11:11:48.685Z</time>
      </trkpt>
      <trkpt lat="47.27012" lon="-2.32193">
        <ele>5.53890911795</ele>
        <time>2021-05-22T11:11:54.117Z</time>
      </trkpt>
      <trkpt lat="47.2699" lon="-2.32164">
        <ele>5.46765791311</ele>
        <time>2021-05-22T11:11:59.558Z</time>
      </trkpt>
      <trkpt lat="47.26983" lon="-2.3215">
        <ele>5.41520974958</ele>
        <time>2021-05-22T11:12:05.003Z</time>
      </trkpt>
      <trkpt lat="47.26986" lon="-2.32137">
        <ele>5.39923285837</ele>
        <time>2021-05-22T11:12:10.451Z</time>
      </trkpt>
      <trkpt lat="47.27005" lon="-2.32116">
        <ele>5.42284882631</ele>
        <time>2021-05-22T11:12:15.907Z</time>
      </trkpt>
      <trkpt lat="47.27014" lon="-2.32061">
        <ele>5.5660078536</ele>
        <time>2021-05-22T11:12:21.376Z</time>
      </trkpt>
      <trkpt lat="47.27001" lon="-2.31984">
        <ele>5.72812957273</ele>
        <time>2021-05-22T11:12:26.863Z</time>
      </trkpt>
      <trkpt lat="47.27038" lon="-2.31951">
        <ele>5.78535071914</ele>
        <time>2021-05-22T11:12:32.365Z</time>
      </trkpt>
      <trkpt lat="47.27077" lon="-2.31955">
        <ele>5.6438478127</ele>
        <time>2021-05-22T11:12:37.880Z</time>
      </trkpt>
      <trkpt lat="47.27104" lon="-2.31958">
        <ele>5.57366078673</ele>
        <time>2021-05-22T11:12:43.404Z</time>
      </trkpt>
      <trkpt lat="47.27159" lon="-2.31998">
        <ele>5.60406530197</ele>
        <time>2021-05-22T11:12:48.948Z</time>
      </trkpt>
      <trkpt lat="47.27212" lon="-2.31911">
        <ele>5.66607346788</ele>
        <time>2021-05-22T11:12:54.519Z</time>
      </trkpt>
      <trkpt lat="47.27222" lon="-2.31917">
        <ele>5.5900901319</ele>
        <time>2021-05-22T11:13:00.093Z</time>
      </trkpt>
      <trkpt lat="47.2724" lon="-2.31925">
        <ele>5.46906705559</ele>
        <time>2021-05-22T11:13:05.674Z</time>
      </trkpt>
      <trkpt lat="47.27274" lon="-2.31936">
        <ele>5.24493972208</ele>
        <time>2021-05-22T11:13:11.266Z</time>
      </trkpt>
      <trkpt lat="47.27301" lon="-2.31951">
        <ele>5.09191583423</ele>
        <time>2021-05-22T11:13:16.868Z</time>
      </trkpt>
      <trkpt lat="47.27312" lon="-2.3196">
        <ele>4.96064891341</ele>
        <time>2021-05-22T11:13:22.474Z</time>
      </trkpt>
      <trkpt lat="47.27325" lon="-2.31973">
        <ele>4.82649637785</ele>
        <time>2021-05-22T11:13:28.085Z</time>
      </trkpt>
      <trkpt lat="47.27338" lon="-2.31988">
        <ele>4.73517758949</ele>
        <time>2021-05-22T11:13:33.702Z</time>
      </trkpt>
      <trkpt lat="47.27351" lon="-2.3199">
        <ele>4.71255673748</ele>
        <time>2021-05-22T11:13:39.323Z</time>
      </trkpt>
      <trkpt lat="47.27356" lon="-2.31994">
        <ele>4.75152206983</ele>
        <time>2021-05-22T11:13:44.946Z</time>
      </trkpt>
      <trkpt lat="47.27403" lon="-2.32034">
        <ele>4.91003750238</ele>
        <time>2021-05-22T11:13:50.587Z</time>
      </trkpt>
      <trkpt lat="47.27415" lon="-2.32042">
        <ele>5.11785075892</ele>
        <time>2021-05-22T11:13:56.233Z</time>
      </trkpt>
      <trkpt lat="47.27424" lon="-2.3204">
        <ele>5.42154301559</ele>
        <time>2021-05-22T11:14:01.882Z</time>
      </trkpt>
      <trkpt lat="47.2743" lon="-2.32032">
        <ele>5.82879674027</ele>
        <time>2021-05-22T11:14:07.533Z</time>
      </trkpt>
      <trkpt lat="47.27435" lon="-2.32022">
        <ele>6.34411720373</ele>
        <time>2021-05-22T11:14:13.187Z</time>
      </trkpt>
      <trkpt lat="47.27494" lon="-2.31879">
        <ele>6.96815218698</ele>
        <time>2021-05-22T11:14:18.879Z</time>
      </trkpt>
      <trkpt lat="47.2752" lon="-2.31805">
        <ele>7.82192850114</ele>
        <time>2021-05-22T11:14:24.590Z</time>
      </trkpt>
      <trkpt lat="47.27548" lon="-2.31684">
        <ele>8.67887888121</ele>
        <time>2021-05-22T11:14:30.330Z</time>
      </trkpt>
      <trkpt lat="47.27578" lon="-2.31575">
        <ele>9.63608926112</ele>
        <time>2021-05-22T11:14:36.097Z</time>
      </trkpt>
      <trkpt lat="47.27586" lon="-2.31557">
        <ele>10.7240704626</ele>
        <time>2021-05-22T11:14:41.869Z</time>
      </trkpt>
      <trkpt lat="47.27592" lon="-2.31534">
        <ele>11.87036213847</ele>
        <time>2021-05-22T11:14:47.646Z</time>
      </trkpt>
      <trkpt lat="47.27718" lon="-2.3107">
        <ele>13.2245113082</ele>
        <time>2021-05-22T11:14:53.537Z</time>
      </trkpt>
      <trkpt lat="47.27707" lon="-2.31045">
        <ele>14.49043875456</ele>
        <time>2021-05-22T11:14:59.434Z</time>
      </trkpt>
      <trkpt lat="47.27579" lon="-2.30756">
        <ele>15.86364935953</ele>
        <time>2021-05-22T11:15:05.410Z</time>
      </trkpt>
      <trkpt lat="47.27546" lon="-2.30604">
        <ele>17.09979480134</ele>
        <time>2021-05-22T11:15:11.422Z</time>
      </trkpt>
      <trkpt lat="47.27544" lon="-2.30597">
        <ele>18.37337670647</ele>
        <time>2021-05-22T11:15:17.436Z</time>
      </trkpt>
      <trkpt lat="47.27504" lon="-2.30434">
        <ele>19.66437720293</ele>
        <time>2021-05-22T11:15:23.489Z</time>
      </trkpt>
      <trkpt lat="47.27488" lon="-2.30354">
        <ele>20.97574448199</ele>
        <time>2021-05-22T11:15:29.561Z</time>
      </trkpt>
      <trkpt lat="47.27459" lon="-2.30213">
        <ele>22.41070221767</ele>
        <time>2021-05-22T11:15:35.666Z</time>
      </trkpt>
      <trkpt lat="47.27455" lon="-2.30215">
        <ele>23.53696425575</ele>
        <time>2021-05-22T11:15:41.773Z</time>
      </trkpt>
      <trkpt lat="47.27459" lon="-2.30213">
        <ele>22.41070221767</ele>
        <time>2021-05-22T11:15:47.881Z</time>
      </trkpt>
      <trkpt lat="47.27636" lon="-2.30121">
        <ele>25.55215296161</ele>
        <time>2021-05-22T11:15:54.052Z</time>
      </trkpt>
      <trkpt lat="47.27653" lon="-2.30156">
        <ele>26.38988598533</ele>
        <time>2021-05-22T11:16:00.232Z</time>
      </trkpt>
      <trkpt lat="47.27724" lon="-2.30144">
        <ele>27.21289430551</ele>
        <time>2021-05-22T11:16:06.436Z</time>
      </trkpt>
      <trkpt lat="47.27764" lon="-2.30113">
        <ele>28.01571386948</ele>
        <time>2021-05-22T11:16:12.655Z</time>
      </trkpt>
      <trkpt lat="47.27769" lon="-2.30119">
        <ele>28.71624936279</ele>
        <time>2021-05-22T11:16:18.876Z</time>
      </trkpt>
      <trkpt lat="47.27876" lon="-2.30048">
        <ele>29.49736097734</ele>
        <time>2021-05-22T11:16:25.137Z</time>
      </trkpt>
      <trkpt lat="47.27892" lon="-2.30015">
        <ele>30.06166475775</ele>
        <time>2021-05-22T11:16:31.407Z</time>
      </trkpt>
      <trkpt lat="47.27895" lon="-2.30034">
        <ele>30.56588206613</ele>
        <time>2021-05-22T11:16:37.681Z</time>
      </trkpt>
      <trkpt lat="47.27892" lon="-2.30015">
        <ele>30.06166475775</ele>
        <time>2021-05-22T11:16:43.960Z</time>
      </trkpt>
      <trkpt lat="47.27889" lon="-2.29957">
        <ele>31.38549593174</ele>
        <time>2021-05-22T11:16:50.252Z</time>
      </trkpt>
      <trkpt lat="47.27887" lon="-2.2989">
        <ele>31.78535143862</ele>
        <time>2021-05-22T11:16:56.559Z</time>
      </trkpt>
      <trkpt lat="47.27885" lon="-2.29846">
        <ele>32.06811104061</ele>
        <time>2021-05-22T11:17:02.876Z</time>
      </trkpt>
      <trkpt lat="47.27883" lon="-2.29809">
        <ele>32.22486590714</ele>
        <time>2021-05-22T11:17:09.202Z</time>
      </trkpt>
      <trkpt lat="47.27879" lon="-2.29778">
        <ele>32.23945821707</ele>
        <time>2021-05-22T11:17:15.535Z</time>
      </trkpt>
      <trkpt lat="47.27871" lon="-2.29718">
        <ele>32.19338574622</ele>
        <time>2021-05-22T11:17:21.882Z</time>
      </trkpt>
      <trkpt lat="47.27853" lon="-2.2961">
        <ele>32.03725834686</ele>
        <time>2021-05-22T11:17:28.254Z</time>
      </trkpt>
      <trkpt lat="47.2785" lon="-2.29593">
        <ele>31.84761958079</ele>
        <time>2021-05-22T11:17:34.630Z</time>
      </trkpt>
      <trkpt lat="47.27847" lon="-2.29593">
        <ele>31.59241239435</ele>
        <time>2021-05-22T11:17:41.007Z</time>
      </trkpt>
      <trkpt lat="47.27778" lon="-2.29592">
        <ele>31.23032716065</ele>
        <time>2021-05-22T11:17:47.407Z</time>
      </trkpt>
      <trkpt lat="47.27758" lon="-2.29592">
        <ele>30.84100807222</ele>
        <time>2021-05-22T11:17:53.814Z</time>
      </trkpt>
      <trkpt lat="47.27744" lon="-2.2956">
        <ele>30.42627672333</ele>
        <time>2021-05-22T11:18:00.229Z</time>
      </trkpt>
      <trkpt lat="47.27566" lon="-2.29385">
        <ele>29.97280444498</ele>
        <time>2021-05-22T11:18:06.716Z</time>
      </trkpt>
      <trkpt lat="47.2756" lon="-2.29379">
        <ele>29.51785439423</ele>
        <time>2021-05-22T11:18:13.205Z</time>
      </trkpt>
      <trkpt lat="47.27556" lon="-2.2937">
        <ele>29.05219977614</ele>
        <time>2021-05-22T11:18:19.696Z</time>
      </trkpt>
      <trkpt lat="47.27555" lon="-2.29365">
        <ele>28.58484694603</ele>
        <time>2021-05-22T11:18:26.189Z</time>
      </trkpt>
      <trkpt lat="47.27543" lon="-2.29359">
        <ele>28.122895917</ele>
        <time>2021-05-22T11:18:32.686Z</time>
      </trkpt>
      <trkpt lat="47.27527" lon="-2.29352">
        <ele>27.65647671746</ele>
        <time>2021-05-22T11:18:39.188Z</time>
      </trkpt>
      <trkpt lat="47.27479" lon="-2.29311">
        <ele>27.2347627499</ele>
        <time>2021-05-22T11:18:45.709Z</time>
      </trkpt>
      <trkpt lat="47.2748" lon="-2.29308">
        <ele>26.78305512746</ele>
        <time>2021-05-22T11:18:52.231Z</time>
      </trkpt>
      <trkpt lat="47.27485" lon="-2.29295">
        <ele>26.32924218576</ele>
        <time>2021-05-22T11:18:58.756Z</time>
      </trkpt>
      <trkpt lat="47.27529" lon="-2.2925">
        <ele>25.84987274037</ele>
        <time>2021-05-22T11:19:05.299Z</time>
      </trkpt>
      <trkpt lat="47.27603" lon="-2.29158">
        <ele>25.43967506466</ele>
        <time>2021-05-22T11:19:11.874Z</time>
      </trkpt>
      <trkpt lat="47.27639" lon="-2.29091">
        <ele>25.05552550521</ele>
        <time>2021-05-22T11:19:18.469Z</time>
      </trkpt>
      <trkpt lat="47.27647" lon="-2.29076">
        <ele>24.7710874276</ele>
        <time>2021-05-22T11:19:25.068Z</time>
      </trkpt>
      <trkpt lat="47.27686" lon="-2.29005">
        <ele>24.59240959427</ele>
        <time>2021-05-22T11:19:31.688Z</time>
      </trkpt>
      <trkpt lat="47.27707" lon="-2.28937">
        <ele>24.48183460002</ele>
        <time>2021-05-22T11:19:38.325Z</time>
      </trkpt>
      <trkpt lat="47.27797" lon="-2.28791">
        <ele>24.30654331121</ele>
        <time>2021-05-22T11:19:45.006Z</time>
      </trkpt>
      <trkpt lat="47.2772" lon="-2.28824">
        <ele>24.28032165282</ele>
        <time>2021-05-22T11:19:51.714Z</time>
      </trkpt>
      <trkpt lat="47.2771" lon="-2.28829">
        <ele>24.27584705835</ele>
        <time>2021-05-22T11:19:58.426Z</time>
      </trkpt>
      <trkpt lat="47.27699" lon="-2.28816">
        <ele>24.31845167232</ele>
        <time>2021-05-22T11:20:05.142Z</time>
      </trkpt>
      <trkpt lat="47.27683" lon="-2.2879">
        <ele>24.48456675446</ele>
        <time>2021-05-22T11:20:11.866Z</time>
      </trkpt>
      <trkpt lat="47.27657" lon="-2.2877">
        <ele>24.68358653081</ele>
        <time>2021-05-22T11:20:18.600Z</time>
      </trkpt>
      <trkpt lat="47.27608" lon="-2.28751">
        <ele>24.86406365412</ele>
        <time>2021-05-22T11:20:25.351Z</time>
      </trkpt>
      <trkpt lat="47.27583" lon="-2.28731">
        <ele>25.14941940999</ele>
        <time>2021-05-22T11:20:32.111Z</time>
      </trkpt>
      <trkpt lat="47.27532" lon="-2.287">
        <ele>25.41016965293</ele>
        <time>2021-05-22T11:20:38.890Z</time>
      </trkpt>
      <trkpt lat="47.27509" lon="-2.28675">
        <ele>25.67567840184</ele>
        <time>2021-05-22T11:20:45.678Z</time>
      </trkpt>
      <trkpt lat="47.27498" lon="-2.28656">
        <ele>25.96646517696</ele>
        <time>2021-05-22T11:20:52.472Z</time>
      </trkpt>
      <trkpt lat="47.27487" lon="-2.28627">
        <ele>26.33556397383</ele>
        <time>2021-05-22T11:20:59.274Z</time>
      </trkpt>
      <trkpt lat="47.27476" lon="-2.28582">
        <ele>26.79827910012</ele>
        <time>2021-05-22T11:21:06.087Z</time>
      </trkpt>
      <trkpt lat="47.27469" lon="-2.28608">
        <ele>27.19747493999</ele>
        <time>2021-05-22T11:21:12.906Z</time>
      </trkpt>
      <trkpt lat="47.27445" lon="-2.28654">
        <ele>27.6409183299</ele>
        <time>2021-05-22T11:21:19.738Z</time>
      </trkpt>
      <trkpt lat="47.27438" lon="-2.28651">
        <ele>28.11338473718</ele>
        <time>2021-05-22T11:21:26.572Z</time>
      </trkpt>
      <trkpt lat="47.27408" lon="-2.28638">
        <ele>28.59579403963</ele>
        <time>2021-05-22T11:21:33.417Z</time>
      </trkpt>
      <trkpt lat="47.27364" lon="-2.2861">
        <ele>29.09449876156</ele>
        <time>2021-05-22T11:21:40.278Z</time>
      </trkpt>
      <trkpt lat="47.27357" lon="-2.28607">
        <ele>29.60545418535</ele>
        <time>2021-05-22T11:21:47.141Z</time>
      </trkpt>
      <trkpt lat="47.27291" lon="-2.28586">
        <ele>30.18589231961</ele>
        <time>2021-05-22T11:21:54.027Z</time>
      </trkpt>
      <trkpt lat="47.27251" lon="-2.28583">
        <ele>30.82390748188</ele>
        <time>2021-05-22T11:22:00.926Z</time>
      </trkpt>
      <trkpt lat="47.27211" lon="-2.28588">
        <ele>31.39059451074</ele>
        <time>2021-05-22T11:22:07.839Z</time>
      </trkpt>
      <trkpt lat="47.27176" lon="-2.28585">
        <ele>31.88763472232</ele>
        <time>2021-05-22T11:22:14.763Z</time>
      </trkpt>
      <trkpt lat="47.27172" lon="-2.28571">
        <ele>32.34915395202</ele>
        <time>2021-05-22T11:22:21.691Z</time>
      </trkpt>
      <trkpt lat="47.27166" lon="-2.28544">
        <ele>32.75987270195</ele>
        <time>2021-05-22T11:22:28.625Z</time>
      </trkpt>
      <trkpt lat="47.27161" lon="-2.28525">
        <ele>33.19089332068</ele>
        <time>2021-05-22T11:22:35.564Z</time>
      </trkpt>
      <trkpt lat="47.27152" lon="-2.28453">
        <ele>33.56113782743</ele>
        <time>2021-05-22T11:22:42.519Z</time>
      </trkpt>
      <trkpt lat="47.27141" lon="-2.28336">
        <ele>33.90045618869</ele>
        <time>2021-05-22T11:22:49.501Z</time>
      </trkpt>
      <trkpt lat="47.27116" lon="-2.28245">
        <ele>34.23686314479</ele>
        <time>2021-05-22T11:22:56.505Z</time>
      </trkpt>
      <trkpt lat="47.27116" lon="-2.28233">
        <ele>34.60684835273</ele>
        <time>2021-05-22T11:23:03.512Z</time>
      </trkpt>
      <trkpt lat="47.27125" lon="-2.28161">
        <ele>35.03059199272</ele>
        <time>2021-05-22T11:23:10.536Z</time>
      </trkpt>
      <trkpt lat="47.27127" lon="-2.28154">
        <ele>35.36548655084</ele>
        <time>2021-05-22T11:23:17.562Z</time>
      </trkpt>
      <trkpt lat="47.27121" lon="-2.28129">
        <ele>35.72429279646</ele>
        <time>2021-05-22T11:23:24.594Z</time>
      </trkpt>
      <trkpt lat="47.27123" lon="-2.28052">
        <ele>36.04341178554</ele>
        <time>2021-05-22T11:23:31.643Z</time>
      </trkpt>
      <trkpt lat="47.27121" lon="-2.28048">
        <ele>36.33092846464</ele>
        <time>2021-05-22T11:23:38.693Z</time>
      </trkpt>
      <trkpt lat="47.27111" lon="-2.27998">
        <ele>36.64037203029</ele>
        <time>2021-05-22T11:23:45.755Z</time>
      </trkpt>
      <trkpt lat="47.27102" lon="-2.27989">
        <ele>36.89035735248</ele>
        <time>2021-05-22T11:23:52.821Z</time>
      </trkpt>
      <trkpt lat="47.27095" lon="-2.27989">
        <ele>37.09597811241</ele>
        <time>2021-05-22T11:23:59.889Z</time>
      </trkpt>
      <trkpt lat="47.27082" lon="-2.27982">
        <ele>37.26988952838</ele>
        <time>2021-05-22T11:24:06.962Z</time>
      </trkpt>
      <trkpt lat="47.27073" lon="-2.27971">
        <ele>37.41094340748</ele>
        <time>2021-05-22T11:24:14.039Z</time>
      </trkpt>
      <trkpt lat="47.27068" lon="-2.27961">
        <ele>37.52577386022</ele>
        <time>2021-05-22T11:24:21.118Z</time>
      </trkpt>
      <trkpt lat="47.27065" lon="-2.27949">
        <ele>37.61490252111</ele>
        <time>2021-05-22T11:24:28.200Z</time>
      </trkpt>
      <trkpt lat="47.27065" lon="-2.27937">
        <ele>37.65545647486</ele>
        <time>2021-05-22T11:24:35.285Z</time>
      </trkpt>
      <trkpt lat="47.2707" lon="-2.27912">
        <ele>37.67064657541</ele>
        <time>2021-05-22T11:24:42.376Z</time>
      </trkpt>
      <trkpt lat="47.27077" lon="-2.27899">
        <ele>37.65791000736</ele>
        <time>2021-05-22T11:24:49.471Z</time>
      </trkpt>
      <trkpt lat="47.27093" lon="-2.27883">
        <ele>37.58463053676</ele>
        <time>2021-05-22T11:24:56.572Z</time>
      </trkpt>
      <trkpt lat="47.27094" lon="-2.2788">
        <ele>37.50430368246</ele>
        <time>2021-05-22T11:25:03.674Z</time>
      </trkpt>
      <trkpt lat="47.27095" lon="-2.27878">
        <ele>37.40509068611</ele>
        <time>2021-05-22T11:25:10.776Z</time>
      </trkpt>
      <trkpt lat="47.27113" lon="-2.27809">
        <ele>37.18377883089</ele>
        <time>2021-05-22T11:25:17.895Z</time>
      </trkpt>
      <trkpt lat="47.27114" lon="-2.27802">
        <ele>37.05500740454</ele>
        <time>2021-05-22T11:25:25.016Z</time>
      </trkpt>
      <trkpt lat="47.27109" lon="-2.27797">
        <ele>36.92802708372</ele>
        <time>2021-05-22T11:25:32.139Z</time>
      </trkpt>
      <trkpt lat="47.27101" lon="-2.27785">
        <ele>36.80690229258</ele>
        <time>2021-05-22T11:25:39.266Z</time>
      </trkpt>
      <trkpt lat="47.27104" lon="-2.27776">
        <ele>36.67209001158</ele>
        <time>2021-05-22T11:25:46.395Z</time>
      </trkpt>
      <trkpt lat="47.27106" lon="-2.27771">
        <ele>36.53336931992</ele>
        <time>2021-05-22T11:25:53.525Z</time>
      </trkpt>
      <trkpt lat="47.27095" lon="-2.27758">
        <ele>36.38391158322</ele>
        <time>2021-05-22T11:26:00.660Z</time>
      </trkpt>
      <trkpt lat="47.27081" lon="-2.27748">
        <ele>36.24383171414</ele>
        <time>2021-05-22T11:26:07.800Z</time>
      </trkpt>
      <trkpt lat="47.27023" lon="-2.27725">
        <ele>36.10039617931</ele>
        <time>2021-05-22T11:26:14.960Z</time>
      </trkpt>
      <trkpt lat="47.27017" lon="-2.27724">
        <ele>35.87016028353</ele>
        <time>2021-05-22T11:26:22.122Z</time>
      </trkpt>
      <trkpt lat="47.2702" lon="-2.27712">
        <ele>35.58994583381</ele>
        <time>2021-05-22T11:26:29.287Z</time>
      </trkpt>
      <trkpt lat="47.27024" lon="-2.27701">
        <ele>35.2490154186</ele>
        <time>2021-05-22T11:26:36.455Z</time>
      </trkpt>
      <trkpt lat="47.27029" lon="-2.27694">
        <ele>34.85789844803</ele>
        <time>2021-05-22T11:26:43.625Z</time>
      </trkpt>
      <trkpt lat="47.27037" lon="-2.27682">
        <ele>34.39173118013</ele>
        <time>2021-05-22T11:26:50.799Z</time>
      </trkpt>
      <trkpt lat="47.27046" lon="-2.27671">
        <ele>33.85970618738</ele>
        <time>2021-05-22T11:26:57.977Z</time>
      </trkpt>
      <trkpt lat="47.27075" lon="-2.27644">
        <ele>33.2457576293</ele>
        <time>2021-05-22T11:27:05.166Z</time>
      </trkpt>
      <trkpt lat="47.27131" lon="-2.27609">
        <ele>32.6112259887</ele>
        <time>2021-05-22T11:27:12.376Z</time>
      </trkpt>
      <trkpt lat="47.27138" lon="-2.27597">
        <ele>31.93039851101</ele>
        <time>2021-05-22T11:27:19.589Z</time>
      </trkpt>
      <trkpt lat="47.27146" lon="-2.27569">
        <ele>31.20636345886</ele>
        <time>2021-05-22T11:27:26.809Z</time>
      </trkpt>
      <trkpt lat="47.27146" lon="-2.27521">
        <ele>30.46408771882</ele>
        <time>2021-05-22T11:27:34.040Z</time>
      </trkpt>
      <trkpt lat="47.27143" lon="-2.27465">
        <ele>29.66909214</ele>
        <time>2021-05-22T11:27:41.284Z</time>
      </trkpt>
      <trkpt lat="47.27127" lon="-2.27358">
        <ele>28.71248471276</ele>
        <time>2021-05-22T11:27:48.553Z</time>
      </trkpt>
      <trkpt lat="47.27121" lon="-2.27301">
        <ele>27.72855383884</ele>
        <time>2021-05-22T11:27:55.835Z</time>
      </trkpt>
      <trkpt lat="47.27065" lon="-2.27194">
        <ele>26.76115675143</ele>
        <time>2021-05-22T11:28:03.147Z</time>
      </trkpt>
      <trkpt lat="47.27017" lon="-2.2711">
        <ele>25.87480713182</ele>
        <time>2021-05-22T11:28:10.484Z</time>
      </trkpt>
      <trkpt lat="47.27003" lon="-2.27061">
        <ele>25.11372818613</ele>
        <time>2021-05-22T11:28:17.833Z</time>
      </trkpt>
      <trkpt lat="47.26987" lon="-2.27031">
        <ele>24.31559447079</ele>
        <time>2021-05-22T11:28:25.191Z</time>
      </trkpt>
      <trkpt lat="47.26955" lon="-2.26989">
        <ele>23.58221245691</ele>
        <time>2021-05-22T11:28:32.563Z</time>
      </trkpt>
      <trkpt lat="47.26956" lon="-2.2698">
        <ele>22.89008510358</ele>
        <time>2021-05-22T11:28:39.937Z</time>
      </trkpt>
      <trkpt lat="47.26963" lon="-2.26941">
        <ele>22.18183148606</ele>
        <time>2021-05-22T11:28:47.321Z</time>
      </trkpt>
      <trkpt lat="47.26967" lon="-2.26916">
        <ele>21.58117055669</ele>
        <time>2021-05-22T11:28:54.710Z</time>
      </trkpt>
      <trkpt lat="47.26965" lon="-2.26899">
        <ele>21.08705637339</ele>
        <time>2021-05-22T11:29:02.103Z</time>
      </trkpt>
      <trkpt lat="47.26962" lon="-2.26885">
        <ele>20.6890517069</ele>
        <time>2021-05-22T11:29:09.500Z</time>
      </trkpt>
      <trkpt lat="47.26955" lon="-2.26843">
        <ele>20.40919469338</ele>
        <time>2021-05-22T11:29:16.906Z</time>
      </trkpt>
      <trkpt lat="47.26968" lon="-2.26818">
        <ele>20.21106298313</ele>
        <time>2021-05-22T11:29:24.320Z</time>
      </trkpt>
      <trkpt lat="47.26986" lon="-2.268">
        <ele>20.0761122997</ele>
        <time>2021-05-22T11:29:31.741Z</time>
      </trkpt>
      <trkpt lat="47.26999" lon="-2.26791">
        <ele>20.06796695856</ele>
        <time>2021-05-22T11:29:39.167Z</time>
      </trkpt>
      <trkpt lat="47.27012" lon="-2.26779">
        <ele>20.18715858386</ele>
        <time>2021-05-22T11:29:46.598Z</time>
      </trkpt>
      <trkpt lat="47.27022" lon="-2.26761">
        <ele>20.42917810106</ele>
        <time>2021-05-22T11:29:54.034Z</time>
      </trkpt>
      <trkpt lat="47.27037" lon="-2.26749">
        <ele>20.72514580303</ele>
        <time>2021-05-22T11:30:01.476Z</time>
      </trkpt>
      <trkpt lat="47.2704" lon="-2.26726">
        <ele>21.13718309898</ele>
        <time>2021-05-22T11:30:08.923Z</time>
      </trkpt>
      <trkpt lat="47.27041" lon="-2.26696">
        <ele>21.59047544012</ele>
        <time>2021-05-22T11:30:16.377Z</time>
      </trkpt>
      <trkpt lat="47.27039" lon="-2.26667">
        <ele>22.08221917175</ele>
        <time>2021-05-22T11:30:23.838Z</time>
      </trkpt>
      <trkpt lat="47.27037" lon="-2.26643">
        <ele>22.62187655412</ele>
        <time>2021-05-22T11:30:31.304Z</time>
      </trkpt>
      <trkpt lat="47.27009" lon="-2.26595">
        <ele>23.27058817395</ele>
        <time>2021-05-22T11:30:38.784Z</time>
      </trkpt>
      <trkpt lat="47.26981" lon="-2.26558">
        <ele>23.89516130475</ele>
        <time>2021-05-22T11:30:46.277Z</time>
      </trkpt>
      <trkpt lat="47.26968" lon="-2.26501">
        <ele>24.32684952172</ele>
        <time>2021-05-22T11:30:53.784Z</time>
      </trkpt>
      <trkpt lat="47.26962" lon="-2.26505">
        <ele>24.72241816848</ele>
        <time>2021-05-22T11:31:01.293Z</time>
      </trkpt>
      <trkpt lat="47.26968" lon="-2.26501">
        <ele>24.32684952172</ele>
        <time>2021-05-22T11:31:08.804Z</time>
      </trkpt>
      <trkpt lat="47.26979" lon="-2.2649">
        <ele>25.30378264466</ele>
        <time>2021-05-22T11:31:16.319Z</time>
      </trkpt>
      <trkpt lat="47.27001" lon="-2.26462">
        <ele>25.47982229843</ele>
        <time>2021-05-22T11:31:23.844Z</time>
      </trkpt>
      <trkpt lat="47.27088" lon="-2.26337">
        <ele>25.4091586165</ele>
        <time>2021-05-22T11:31:31.410Z</time>
      </trkpt>
      <trkpt lat="47.27158" lon="-2.26242">
        <ele>25.31006622566</ele>
        <time>2021-05-22T11:31:39.007Z</time>
      </trkpt>
      <trkpt lat="47.27163" lon="-2.26235">
        <ele>25.21334799594</ele>
        <time>2021-05-22T11:31:46.607Z</time>
      </trkpt>
      <trkpt lat="47.27184" lon="-2.26211">
        <ele>25.03325641592</ele>
        <time>2021-05-22T11:31:54.216Z</time>
      </trkpt>
      <trkpt lat="47.27208" lon="-2.26191">
        <ele>24.86125017505</ele>
        <time>2021-05-22T11:32:01.834Z</time>
      </trkpt>
      <trkpt lat="47.27242" lon="-2.26168">
        <ele>24.59950334337</ele>
        <time>2021-05-22T11:32:09.464Z</time>
      </trkpt>
      <trkpt lat="47.27286" lon="-2.26148">
        <ele>24.2329719214</ele>
        <time>2021-05-22T11:32:17.110Z</time>
      </trkpt>
      <trkpt lat="47.27315" lon="-2.26138">
        <ele>23.79424652618</ele>
        <time>2021-05-22T11:32:24.766Z</time>
      </trkpt>
      <trkpt lat="47.27352" lon="-2.26124">
        <ele>23.30325704571</ele>
        <time>2021-05-22T11:32:32.434Z</time>
      </trkpt>
      <trkpt lat="47.27359" lon="-2.26122">
        <ele>22.75325721632</ele>
        <time>2021-05-22T11:32:40.105Z</time>
      </trkpt>
      <trkpt lat="47.27352" lon="-2.26124">
        <ele>23.30325704571</ele>
        <time>2021-05-22T11:32:47.778Z</time>
      </trkpt>
      <trkpt lat="47.27435" lon="-2.26245">
        <ele>21.28596079882</ele>
        <time>2021-05-22T11:32:55.490Z</time>
      </trkpt>
      <trkpt lat="47.27461" lon="-2.26267">
        <ele>20.63082026016</ele>
        <time>2021-05-22T11:33:03.212Z</time>
      </trkpt>
      <trkpt lat="47.27479" lon="-2.26278">
        <ele>19.94499960671</ele>
        <time>2021-05-22T11:33:10.941Z</time>
      </trkpt>
      <trkpt lat="47.27512" lon="-2.2629">
        <ele>19.30402098915</ele>
        <time>2021-05-22T11:33:18.681Z</time>
      </trkpt>
      <trkpt lat="47.27575" lon="-2.26283">
        <ele>18.52309024699</ele>
        <time>2021-05-22T11:33:26.442Z</time>
      </trkpt>
      <trkpt lat="47.27605" lon="-2.26287">
        <ele>17.72145349627</ele>
        <time>2021-05-22T11:33:34.213Z</time>
      </trkpt>
      <trkpt lat="47.2764" lon="-2.26316">
        <ele>16.99234380196</ele>
        <time>2021-05-22T11:33:41.997Z</time>
      </trkpt>
      <trkpt lat="47.2766" lon="-2.26346">
        <ele>16.16795221024</ele>
        <time>2021-05-22T11:33:49.791Z</time>
      </trkpt>
      <trkpt lat="47.27665" lon="-2.26339">
        <ele>15.50902345877</ele>
        <time>2021-05-22T11:33:57.587Z</time>
      </trkpt>
      <trkpt lat="47.27666" lon="-2.26351">
        <ele>14.83827377604</ele>
        <time>2021-05-22T11:34:05.386Z</time>
      </trkpt>
      <trkpt lat="47.27674" lon="-2.26375">
        <ele>14.18030097209</ele>
        <time>2021-05-22T11:34:13.191Z</time>
      </trkpt>
      <trkpt lat="47.27688" lon="-2.26415">
        <ele>13.59330923555</ele>
        <time>2021-05-22T11:34:21.006Z</time>
      </trkpt>
      <trkpt lat="47.27717" lon="-2.26491">
        <ele>13.31371576972</ele>
        <time>2021-05-22T11:34:28.841Z</time>
      </trkpt>
      <trkpt lat="47.27728" lon="-2.26514">
        <ele>13.03372379208</ele>
        <time>2021-05-22T11:34:36.683Z</time>
      </trkpt>
      <trkpt lat="47.27745" lon="-2.26513">
        <ele>12.84477212984</ele>
        <time>2021-05-22T11:34:44.530Z</time>
      </trkpt>
      <trkpt lat="47.27753" lon="-2.26509">
        <ele>12.72476402595</ele>
        <time>2021-05-22T11:34:52.380Z</time>
      </trkpt>
      <trkpt lat="47.27764" lon="-2.26499">
        <ele>12.68442790009</ele>
        <time>2021-05-22T11:35:00.234Z</time>
      </trkpt>
      <trkpt lat="47.27793" lon="-2.26465">
        <ele>12.66897050753</ele>
        <time>2021-05-22T11:35:08.101Z</time>
      </trkpt>
      <trkpt lat="47.27825" lon="-2.2642">
        <ele>12.74318074969</ele>
        <time>2021-05-22T11:35:15.982Z</time>
      </trkpt>
      <trkpt lat="47.2787" lon="-2.2634">
        <ele>12.95952209664</ele>
        <time>2021-05-22T11:35:23.887Z</time>
      </trkpt>
      <trkpt lat="47.27893" lon="-2.26301">
        <ele>13.06747398963</ele>
        <time>2021-05-22T11:35:31.804Z</time>
      </trkpt>
      <trkpt lat="47.27924" lon="-2.26251">
        <ele>13.27435391719</ele>
        <time>2021-05-22T11:35:39.736Z</time>
      </trkpt>
      <trkpt lat="47.27928" lon="-2.26236">
        <ele>13.50823293186</ele>
        <time>2021-05-22T11:35:47.672Z</time>
      </trkpt>
      <trkpt lat="47.27931" lon="-2.26224">
        <ele>13.73162448086</ele>
        <time>2021-05-22T11:35:55.611Z</time>
      </trkpt>
      <trkpt lat="47.27936" lon="-2.26213">
        <ele>13.96815700608</ele>
        <time>2021-05-22T11:36:03.553Z</time>
      </trkpt>
      <trkpt lat="47.27946" lon="-2.26169">
        <ele>14.2349844153</ele>
        <time>2021-05-22T11:36:11.505Z</time>
      </trkpt>
      <trkpt lat="47.27952" lon="-2.26109">
        <ele>14.44585447214</ele>
        <time>2021-05-22T11:36:19.471Z</time>
      </trkpt>
      <trkpt lat="47.27953" lon="-2.26076">
        <ele>14.63574203496</ele>
        <time>2021-05-22T11:36:27.444Z</time>
      </trkpt>
      <trkpt lat="47.27956" lon="-2.26058">
        <ele>14.80163509739</ele>
        <time>2021-05-22T11:36:35.422Z</time>
      </trkpt>
      <trkpt lat="47.27957" lon="-2.26012">
        <ele>14.92654017672</ele>
        <time>2021-05-22T11:36:43.410Z</time>
      </trkpt>
      <trkpt lat="47.2796" lon="-2.25995">
        <ele>15.05051425739</ele>
        <time>2021-05-22T11:36:51.402Z</time>
      </trkpt>
      <trkpt lat="47.27971" lon="-2.25977">
        <ele>15.16553532464</ele>
        <time>2021-05-22T11:36:59.400Z</time>
      </trkpt>
      <trkpt lat="47.27996" lon="-2.25921">
        <ele>15.28832605875</ele>
        <time>2021-05-22T11:37:07.413Z</time>
      </trkpt>
      <trkpt lat="47.28024" lon="-2.25876">
        <ele>15.34124013929</ele>
        <time>2021-05-22T11:37:15.440Z</time>
      </trkpt>
      <trkpt lat="47.2808" lon="-2.25808">
        <ele>15.36964734488</ele>
        <time>2021-05-22T11:37:23.491Z</time>
      </trkpt>
      <trkpt lat="47.28092" lon="-2.2579">
        <ele>15.44747471715</ele>
        <time>2021-05-22T11:37:31.548Z</time>
      </trkpt>
      <trkpt lat="47.28095" lon="-2.25782">
        <ele>15.52972457217</ele>
        <time>2021-05-22T11:37:39.607Z</time>
      </trkpt>
      <trkpt lat="47.28098" lon="-2.25766">
        <ele>15.60499435586</ele>
        <time>2021-05-22T11:37:47.669Z</time>
      </trkpt>
      <trkpt lat="47.28098" lon="-2.25761">
        <ele>15.69533620868</ele>
        <time>2021-05-22T11:37:55.733Z</time>
      </trkpt>
      <trkpt lat="47.28097" lon="-2.2556">
        <ele>15.95773092098</ele>
        <time>2021-05-22T11:38:03.842Z</time>
      </trkpt>
      <trkpt lat="47.28096" lon="-2.25527">
        <ele>16.00751106816</ele>
        <time>2021-05-22T11:38:11.959Z</time>
      </trkpt>
      <trkpt lat="47.28096" lon="-2.25519">
        <ele>16.07815085702</ele>
        <time>2021-05-22T11:38:20.077Z</time>
      </trkpt>
      <trkpt lat="47.28094" lon="-2.25496">
        <ele>16.15882718331</ele>
        <time>2021-05-22T11:38:28.201Z</time>
      </trkpt>
      <trkpt lat="47.28091" lon="-2.25476">
        <ele>16.20988273598</ele>
        <time>2021-05-22T11:38:36.329Z</time>
      </trkpt>
      <trkpt lat="47.28086" lon="-2.25453">
        <ele>16.20334341107</ele>
        <time>2021-05-22T11:38:44.463Z</time>
      </trkpt>
      <trkpt lat="47.28085" lon="-2.25449">
        <ele>16.16687361754</ele>
        <time>2021-05-22T11:38:52.598Z</time>
      </trkpt>
      <trkpt lat="47.28082" lon="-2.25436">
        <ele>16.09095686047</ele>
        <time>2021-05-22T11:39:00.736Z</time>
      </trkpt>
      <trkpt lat="47.28079" lon="-2.25399">
        <ele>15.98447938473</ele>
        <time>2021-05-22T11:39:08.882Z</time>
      </trkpt>
      <trkpt lat="47.28078" lon="-2.2534">
        <ele>15.88500105532</ele>
        <time>2021-05-22T11:39:17.042Z</time>
      </trkpt>
      <trkpt lat="47.28078" lon="-2.25337">
        <ele>15.68334299083</ele>
        <time>2021-05-22T11:39:25.202Z</time>
      </trkpt>
      <trkpt lat="47.28078" lon="-2.25322">
        <ele>15.4336768409</ele>
        <time>2021-05-22T11:39:33.366Z</time>
      </trkpt>
      <trkpt lat="47.28078" lon="-2.25299">
        <ele>15.1215132628</ele>
        <time>2021-05-22T11:39:41.535Z</time>
      </trkpt>
      <trkpt lat="47.2808" lon="-2.25271">
        <ele>14.76878663885</ele>
        <time>2021-05-22T11:39:49.710Z</time>
      </trkpt>
      <trkpt lat="47.28094" lon="-2.25216">
        <ele>14.37468881767</ele>
        <time>2021-05-22T11:39:57.899Z</time>
      </trkpt>
      <trkpt lat="47.28098" lon="-2.25188">
        <ele>13.99797542177</ele>
        <time>2021-05-22T11:40:06.094Z</time>
      </trkpt>
      <trkpt lat="47.28095" lon="-2.25166">
        <ele>13.61317116068</ele>
        <time>2021-05-22T11:40:14.294Z</time>
      </trkpt>
      <trkpt lat="47.28081" lon="-2.25148">
        <ele>13.26840910483</ele>
        <time>2021-05-22T11:40:22.501Z</time>
      </trkpt>
      <trkpt lat="47.27997" lon="-2.25078">
        <ele>13.08447556702</ele>
        <time>2021-05-22T11:40:30.740Z</time>
      </trkpt>
      <trkpt lat="47.27985" lon="-2.2507">
        <ele>12.86281463424</ele>
        <time>2021-05-22T11:40:38.983Z</time>
      </trkpt>
      <trkpt lat="47.2797" lon="-2.25069">
        <ele>12.65354803478</ele>
        <time>2021-05-22T11:40:47.231Z</time>
      </trkpt>
      <trkpt lat="47.27954" lon="-2.2507">
        <ele>12.49488587993</ele>
        <time>2021-05-22T11:40:55.485Z</time>
      </trkpt>
      <trkpt lat="47.27933" lon="-2.25075">
        <ele>12.37698039832</ele>
        <time>2021-05-22T11:41:03.746Z</time>
      </trkpt>
      <trkpt lat="47.27898" lon="-2.25087">
        <ele>12.29224335495</ele>
        <time>2021-05-22T11:41:12.019Z</time>
      </trkpt>
      <trkpt lat="47.27871" lon="-2.25061">
        <ele>12.36914901908</ele>
        <time>2021-05-22T11:41:20.302Z</time>
      </trkpt>
      <trkpt lat="47.27844" lon="-2.25051">
        <ele>12.37202625255</ele>
        <time>2021-05-22T11:41:28.595Z</time>
      </trkpt>
      <trkpt lat="47.27834" lon="-2.25045">
        <ele>12.40840082085</ele>
        <time>2021-05-22T11:41:36.891Z</time>
      </trkpt>
      <trkpt lat="47.27819" lon="-2.25035">
        <ele>12.44302449274</ele>
        <time>2021-05-22T11:41:45.193Z</time>
      </trkpt>
      <trkpt lat="47.27807" lon="-2.25025">
        <ele>12.49091045052</ele>
        <time>2021-05-22T11:41:53.499Z</time>
      </trkpt>
      <trkpt lat="47.27779" lon="-2.25024">
        <ele>12.51410463672</ele>
        <time>2021-05-22T11:42:01.815Z</time>
      </trkpt>
      <trkpt lat="47.27778" lon="-2.25025">
        <ele>12.58171859543</ele>
        <time>2021-05-22T11:42:10.131Z</time>
      </trkpt>
      <trkpt lat="47.2777" lon="-2.25029">
        <ele>12.64310718907</ele>
        <time>2021-05-22T11:42:18.450Z</time>
      </trkpt>
      <trkpt lat="47.27646" lon="-2.25108">
        <ele>12.73282639535</ele>
        <time>2021-05-22T11:42:26.814Z</time>
      </trkpt>
      <trkpt lat="47.27633" lon="-2.25107">
        <ele>12.86264060932</ele>
        <time>2021-05-22T11:42:35.182Z</time>
      </trkpt>
      <trkpt lat="47.27616" lon="-2.25095">
        <ele>12.93065757979</ele>
        <time>2021-05-22T11:42:43.557Z</time>
      </trkpt>
      <trkpt lat="47.27573" lon="-2.25077">
        <ele>12.95065821882</ele>
        <time>2021-05-22T11:42:51.947Z</time>
      </trkpt>
      <trkpt lat="47.27555" lon="-2.25066">
        <ele>13.11704088305</ele>
        <time>2021-05-22T11:43:00.343Z</time>
      </trkpt>
      <trkpt lat="47.27521" lon="-2.25019">
        <ele>13.33247053528</ele>
        <time>2021-05-22T11:43:08.755Z</time>
      </trkpt>
      <trkpt lat="47.27485" lon="-2.24982">
        <ele>13.38826767502</ele>
        <time>2021-05-22T11:43:17.181Z</time>
      </trkpt>
      <trkpt lat="47.27438" lon="-2.24949">
        <ele>13.5339140074</ele>
        <time>2021-05-22T11:43:25.625Z</time>
      </trkpt>
      <trkpt lat="47.27426" lon="-2.2495">
        <ele>13.61181490615</ele>
        <time>2021-05-22T11:43:34.073Z</time>
      </trkpt>
      <trkpt lat="47.27419" lon="-2.24955">
        <ele>13.68024710403</ele>
        <time>2021-05-22T11:43:42.523Z</time>
      </trkpt>
      <trkpt lat="47.27398" lon="-2.24969">
        <ele>13.65197841079</ele>
        <time>2021-05-22T11:43:50.981Z</time>
      </trkpt>
      <trkpt lat="47.27382" lon="-2.24975">
        <ele>13.62029474072</ele>
        <time>2021-05-22T11:43:59.444Z</time>
      </trkpt>
      <trkpt lat="47.27372" lon="-2.24987">
        <ele>13.67624795581</ele>
        <time>2021-05-22T11:44:07.912Z</time>
      </trkpt>
      <trkpt lat="47.27359" lon="-2.25006">
        <ele>13.81676830966</ele>
        <time>2021-05-22T11:44:16.386Z</time>
      </trkpt>
      <trkpt lat="47.2735" lon="-2.25024">
        <ele>14.04372474536</ele>
        <time>2021-05-22T11:44:24.865Z</time>
      </trkpt>
      <trkpt lat="47.27345" lon="-2.25041">
        <ele>14.33475571446</ele>
        <time>2021-05-22T11:44:33.348Z</time>
      </trkpt>
      <trkpt lat="47.27342" lon="-2.25058">
        <ele>14.5956337776</ele>
        <time>2021-05-22T11:44:41.835Z</time>
      </trkpt>
      <trkpt lat="47.27349" lon="-2.25081">
        <ele>14.87052813918</ele>
        <time>2021-05-22T11:44:50.328Z</time>
      </trkpt>
      <trkpt lat="47.27435" lon="-2.2529">
        <ele>15.319372049</ele>
        <time>2021-05-22T11:44:58.876Z</time>
      </trkpt>
      <trkpt lat="47.27444" lon="-2.25319">
        <ele>15.4206434046</ele>
        <time>2021-05-22T11:45:07.432Z</time>
      </trkpt>
      <trkpt lat="47.27448" lon="-2.2534">
        <ele>15.55905852588</ele>
        <time>2021-05-22T11:45:15.993Z</time>
      </trkpt>
      <trkpt lat="47.27449" lon="-2.25358">
        <ele>15.71943622406</ele>
        <time>2021-05-22T11:45:24.558Z</time>
      </trkpt>
      <trkpt lat="47.27447" lon="-2.25373">
        <ele>15.87904247636</ele>
        <time>2021-05-22T11:45:33.126Z</time>
      </trkpt>
      <trkpt lat="47.27445" lon="-2.25388">
        <ele>16.03918322696</ele>
        <time>2021-05-22T11:45:41.698Z</time>
      </trkpt>
      <trkpt lat="47.27432" lon="-2.25417">
        <ele>16.20654947899</ele>
        <time>2021-05-22T11:45:50.277Z</time>
      </trkpt>
      <trkpt lat="47.27431" lon="-2.25426">
        <ele>16.34812647458</ele>
        <time>2021-05-22T11:45:58.859Z</time>
      </trkpt>
      <trkpt lat="47.27433" lon="-2.25437">
        <ele>16.4828559781</ele>
        <time>2021-05-22T11:46:07.443Z</time>
      </trkpt>
      <trkpt lat="47.27447" lon="-2.25445">
        <ele>16.61096456133</ele>
        <time>2021-05-22T11:46:16.032Z</time>
      </trkpt>
      <trkpt lat="47.27478" lon="-2.25443">
        <ele>16.79482879263</ele>
        <time>2021-05-22T11:46:24.631Z</time>
      </trkpt>
      <trkpt lat="47.275" lon="-2.25452">
        <ele>17.05068335921</ele>
        <time>2021-05-22T11:46:33.238Z</time>
      </trkpt>
      <trkpt lat="47.27548" lon="-2.25503">
        <ele>17.28850617367</ele>
        <time>2021-05-22T11:46:41.865Z</time>
      </trkpt>
      <trkpt lat="47.27564" lon="-2.25606">
        <ele>17.57970688964</ele>
        <time>2021-05-22T11:46:50.516Z</time>
      </trkpt>
      <trkpt lat="47.2757" lon="-2.25645">
        <ele>17.8642478076</ele>
        <time>2021-05-22T11:46:59.176Z</time>
      </trkpt>
      <trkpt lat="47.2755" lon="-2.25687">
        <ele>18.19599659556</ele>
        <time>2021-05-22T11:47:07.848Z</time>
      </trkpt>
      <trkpt lat="47.27527" lon="-2.25726">
        <ele>18.520496951</ele>
        <time>2021-05-22T11:47:16.531Z</time>
      </trkpt>
      <trkpt lat="47.27488" lon="-2.25769">
        <ele>18.84025767854</ele>
        <time>2021-05-22T11:47:25.230Z</time>
      </trkpt>
      <trkpt lat="47.2745" lon="-2.25811">
        <ele>19.26251889002</ele>
        <time>2021-05-22T11:47:33.945Z</time>
      </trkpt>
      <trkpt lat="47.27413" lon="-2.25888">
        <ele>19.59791076311</ele>
        <time>2021-05-22T11:47:42.682Z</time>
      </trkpt>
      <trkpt lat="47.27382" lon="-2.25931">
        <ele>20.03976988664</ele>
        <time>2021-05-22T11:47:51.433Z</time>
      </trkpt>
      <trkpt lat="47.27302" lon="-2.25989">
        <ele>20.52630920406</ele>
        <time>2021-05-22T11:48:00.214Z</time>
      </trkpt>
      <trkpt lat="47.27291" lon="-2.25998">
        <ele>20.9622526295</ele>
        <time>2021-05-22T11:48:08.999Z</time>
      </trkpt>
      <trkpt lat="47.27295" lon="-2.26006">
        <ele>21.40037179904</ele>
        <time>2021-05-22T11:48:17.786Z</time>
      </trkpt>
      <trkpt lat="47.27352" lon="-2.26124">
        <ele>23.30325704571</ele>
        <time>2021-05-22T11:48:26.606Z</time>
      </trkpt>
      <trkpt lat="47.27315" lon="-2.26138">
        <ele>23.79424652618</ele>
        <time>2021-05-22T11:48:35.439Z</time>
      </trkpt>
      <trkpt lat="47.27286" lon="-2.26148">
        <ele>24.2329719214</ele>
        <time>2021-05-22T11:48:44.282Z</time>
      </trkpt>
      <trkpt lat="47.27242" lon="-2.26168">
        <ele>24.59950334337</ele>
        <time>2021-05-22T11:48:53.140Z</time>
      </trkpt>
      <trkpt lat="47.27208" lon="-2.26191">
        <ele>24.86125017505</ele>
        <time>2021-05-22T11:49:02.011Z</time>
      </trkpt>
      <trkpt lat="47.27184" lon="-2.26211">
        <ele>25.03325641592</ele>
        <time>2021-05-22T11:49:10.891Z</time>
      </trkpt>
      <trkpt lat="47.27163" lon="-2.26235">
        <ele>25.21334799594</ele>
        <time>2021-05-22T11:49:19.780Z</time>
      </trkpt>
      <trkpt lat="47.27088" lon="-2.26337">
        <ele>25.4091586165</ele>
        <time>2021-05-22T11:49:28.703Z</time>
      </trkpt>
      <trkpt lat="47.27001" lon="-2.26462">
        <ele>25.47982229843</ele>
        <time>2021-05-22T11:49:37.666Z</time>
      </trkpt>
      <trkpt lat="47.26979" lon="-2.2649">
        <ele>25.30378264466</ele>
        <time>2021-05-22T11:49:46.639Z</time>
      </trkpt>
      <trkpt lat="47.26968" lon="-2.26501">
        <ele>24.32684952172</ele>
        <time>2021-05-22T11:49:55.616Z</time>
      </trkpt>
      <trkpt lat="47.26951" lon="-2.26512">
        <ele>25.2204676359</ele>
        <time>2021-05-22T11:50:04.600Z</time>
      </trkpt>
      <trkpt lat="47.26925" lon="-2.26524">
        <ele>25.207016681</ele>
        <time>2021-05-22T11:50:13.593Z</time>
      </trkpt>
      <trkpt lat="47.26862" lon="-2.26551">
        <ele>25.08069052944</ele>
        <time>2021-05-22T11:50:22.608Z</time>
      </trkpt>
      <trkpt lat="47.2688" lon="-2.26601">
        <ele>24.98237925639</ele>
        <time>2021-05-22T11:50:31.635Z</time>
      </trkpt>
      <trkpt lat="47.2691" lon="-2.26683">
        <ele>24.86931145043</ele>
        <time>2021-05-22T11:50:40.684Z</time>
      </trkpt>
      <trkpt lat="47.2692" lon="-2.26719">
        <ele>24.77369976889</ele>
        <time>2021-05-22T11:50:49.741Z</time>
      </trkpt>
      <trkpt lat="47.26927" lon="-2.26758">
        <ele>24.64843210549</ele>
        <time>2021-05-22T11:50:58.808Z</time>
      </trkpt>
      <trkpt lat="47.26932" lon="-2.26779">
        <ele>24.50299521359</ele>
        <time>2021-05-22T11:51:07.880Z</time>
      </trkpt>
      <trkpt lat="47.26935" lon="-2.26787">
        <ele>24.38260777053</ele>
        <time>2021-05-22T11:51:16.954Z</time>
      </trkpt>
      <trkpt lat="47.26948" lon="-2.26818">
        <ele>24.20001796081</ele>
        <time>2021-05-22T11:51:26.036Z</time>
      </trkpt>
      <trkpt lat="47.26951" lon="-2.26829">
        <ele>24.16283237258</ele>
        <time>2021-05-22T11:51:35.121Z</time>
      </trkpt>
      <trkpt lat="47.26955" lon="-2.26843">
        <ele>20.40919469338</ele>
        <time>2021-05-22T11:51:44.209Z</time>
      </trkpt>
      <trkpt lat="47.26962" lon="-2.26885">
        <ele>20.6890517069</ele>
        <time>2021-05-22T11:51:53.307Z</time>
      </trkpt>
      <trkpt lat="47.26965" lon="-2.26899">
        <ele>21.08705637339</ele>
        <time>2021-05-22T11:52:02.408Z</time>
      </trkpt>
      <trkpt lat="47.26967" lon="-2.26916">
        <ele>21.58117055669</ele>
        <time>2021-05-22T11:52:11.513Z</time>
      </trkpt>
      <trkpt lat="47.26963" lon="-2.26941">
        <ele>22.18183148606</ele>
        <time>2021-05-22T11:52:20.624Z</time>
      </trkpt>
      <trkpt lat="47.26955" lon="-2.26989">
        <ele>23.58221245691</ele>
        <time>2021-05-22T11:52:29.746Z</time>
      </trkpt>
      <trkpt lat="47.26928" lon="-2.27033">
        <ele>26.39230251844</ele>
        <time>2021-05-22T11:52:38.882Z</time>
      </trkpt>
      <trkpt lat="47.26898" lon="-2.27075">
        <ele>27.06844896094</ele>
        <time>2021-05-22T11:52:48.031Z</time>
      </trkpt>
      <trkpt lat="47.26862" lon="-2.2711">
        <ele>27.70830785676</ele>
        <time>2021-05-22T11:52:57.195Z</time>
      </trkpt>
      <trkpt lat="47.26846" lon="-2.2712">
        <ele>28.28142389868</ele>
        <time>2021-05-22T11:53:06.365Z</time>
      </trkpt>
      <trkpt lat="47.26819" lon="-2.27127">
        <ele>28.85172861782</ele>
        <time>2021-05-22T11:53:15.544Z</time>
      </trkpt>
      <trkpt lat="47.26781" lon="-2.27142">
        <ele>29.45525392396</ele>
        <time>2021-05-22T11:53:24.736Z</time>
      </trkpt>
      <trkpt lat="47.2676" lon="-2.27153">
        <ele>30.07770434835</ele>
        <time>2021-05-22T11:53:33.935Z</time>
      </trkpt>
      <trkpt lat="47.26744" lon="-2.27167">
        <ele>30.68492117021</ele>
        <time>2021-05-22T11:53:43.141Z</time>
      </trkpt>
      <trkpt lat="47.26735" lon="-2.27176">
        <ele>31.23189977162</ele>
        <time>2021-05-22T11:53:52.350Z</time>
      </trkpt>
      <trkpt lat="47.26715" lon="-2.272">
        <ele>31.77437530752</ele>
        <time>2021-05-22T11:54:01.568Z</time>
      </trkpt>
      <trkpt lat="47.26719" lon="-2.27223">
        <ele>32.20482015548</ele>
        <time>2021-05-22T11:54:10.791Z</time>
      </trkpt>
      <trkpt lat="47.26735" lon="-2.27307">
        <ele>32.52290542382</ele>
        <time>2021-05-22T11:54:20.034Z</time>
      </trkpt>
      <trkpt lat="47.2674" lon="-2.27351">
        <ele>32.91189849613</ele>
        <time>2021-05-22T11:54:29.287Z</time>
      </trkpt>
      <trkpt lat="47.26679" lon="-2.27381">
        <ele>33.35582058255</ele>
        <time>2021-05-22T11:54:38.562Z</time>
      </trkpt>
      <trkpt lat="47.26608" lon="-2.27448">
        <ele>33.66974237102</ele>
        <time>2021-05-22T11:54:47.865Z</time>
      </trkpt>
      <trkpt lat="47.26578" lon="-2.27484">
        <ele>34.04712431043</ele>
        <time>2021-05-22T11:54:57.181Z</time>
      </trkpt>
      <trkpt lat="47.26566" lon="-2.27531">
        <ele>34.36982009292</ele>
        <time>2021-05-22T11:55:06.508Z</time>
      </trkpt>
      <trkpt lat="47.26532" lon="-2.27571">
        <ele>34.67863361351</ele>
        <time>2021-05-22T11:55:15.850Z</time>
      </trkpt>
      <trkpt lat="47.26523" lon="-2.27586">
        <ele>35.03188510023</ele>
        <time>2021-05-22T11:55:25.196Z</time>
      </trkpt>
      <trkpt lat="47.26519" lon="-2.27603">
        <ele>35.40656368332</ele>
        <time>2021-05-22T11:55:34.546Z</time>
      </trkpt>
      <trkpt lat="47.26512" lon="-2.27636">
        <ele>35.77179983617</ele>
        <time>2021-05-22T11:55:43.904Z</time>
      </trkpt>
      <trkpt lat="47.26492" lon="-2.27754">
        <ele>36.12412410597</ele>
        <time>2021-05-22T11:55:53.290Z</time>
      </trkpt>
      <trkpt lat="47.26493" lon="-2.27804">
        <ele>36.54115038385</ele>
        <time>2021-05-22T11:56:02.687Z</time>
      </trkpt>
      <trkpt lat="47.26496" lon="-2.27881">
        <ele>36.96887949053</ele>
        <time>2021-05-22T11:56:12.102Z</time>
      </trkpt>
      <trkpt lat="47.26488" lon="-2.27883">
        <ele>37.36721681812</ele>
        <time>2021-05-22T11:56:21.519Z</time>
      </trkpt>
      <trkpt lat="47.26455" lon="-2.27891">
        <ele>37.77607848478</ele>
        <time>2021-05-22T11:56:30.947Z</time>
      </trkpt>
      <trkpt lat="47.26394" lon="-2.27907">
        <ele>38.20822930561</ele>
        <time>2021-05-22T11:56:40.396Z</time>
      </trkpt>
      <trkpt lat="47.2629" lon="-2.27971">
        <ele>38.72509713005</ele>
        <time>2021-05-22T11:56:49.883Z</time>
      </trkpt>
      <trkpt lat="47.26284" lon="-2.27975">
        <ele>39.03615316778</ele>
        <time>2021-05-22T11:56:59.372Z</time>
      </trkpt>
      <trkpt lat="47.26277" lon="-2.2798">
        <ele>39.29666260092</ele>
        <time>2021-05-22T11:57:08.863Z</time>
      </trkpt>
      <trkpt lat="47.26284" lon="-2.27975">
        <ele>39.03615316778</ele>
        <time>2021-05-22T11:57:18.357Z</time>
      </trkpt>
      <trkpt lat="47.2629" lon="-2.27971">
        <ele>38.72509713005</ele>
        <time>2021-05-22T11:57:27.853Z</time>
      </trkpt>
      <trkpt lat="47.26313" lon="-2.28034">
        <ele>39.68839273902</ele>
        <time>2021-05-22T11:57:37.366Z</time>
      </trkpt>
      <trkpt lat="47.26327" lon="-2.28082">
        <ele>39.7256059493</ele>
        <time>2021-05-22T11:57:46.890Z</time>
      </trkpt>
      <trkpt lat="47.26338" lon="-2.28163">
        <ele>39.69957530593</ele>
        <time>2021-05-22T11:57:56.433Z</time>
      </trkpt>
      <trkpt lat="47.26352" lon="-2.28227">
        <ele>39.59649991851</ele>
        <time>2021-05-22T11:58:05.991Z</time>
      </trkpt>
      <trkpt lat="47.2637" lon="-2.28295">
        <ele>39.51165840749</ele>
        <time>2021-05-22T11:58:15.566Z</time>
      </trkpt>
      <trkpt lat="47.26383" lon="-2.28331">
        <ele>39.35454283055</ele>
        <time>2021-05-22T11:58:25.150Z</time>
      </trkpt>
      <trkpt lat="47.26415" lon="-2.28401">
        <ele>39.14154153406</ele>
        <time>2021-05-22T11:58:34.753Z</time>
      </trkpt>
      <trkpt lat="47.26498" lon="-2.28571">
        <ele>38.80574246975</ele>
        <time>2021-05-22T11:58:44.404Z</time>
      </trkpt>
      <trkpt lat="47.26505" lon="-2.28601">
        <ele>38.53215415867</ele>
        <time>2021-05-22T11:58:54.062Z</time>
      </trkpt>
      <trkpt lat="47.26498" lon="-2.28609">
        <ele>38.22752478173</ele>
        <time>2021-05-22T11:59:03.723Z</time>
      </trkpt>
      <trkpt lat="47.26569" lon="-2.2869">
        <ele>37.75807411593</ele>
        <time>2021-05-22T11:59:13.414Z</time>
      </trkpt>
      <trkpt lat="47.26621" lon="-2.28756">
        <ele>37.42617858255</ele>
        <time>2021-05-22T11:59:23.128Z</time>
      </trkpt>
      <trkpt lat="47.26709" lon="-2.2885">
        <ele>37.20079001016</ele>
        <time>2021-05-22T11:59:32.878Z</time>
      </trkpt>
      <trkpt lat="47.26796" lon="-2.28915">
        <ele>36.88039975272</ele>
        <time>2021-05-22T11:59:42.661Z</time>
      </trkpt>
      <trkpt lat="47.26933" lon="-2.28992">
        <ele>36.67866558612</ele>
        <time>2021-05-22T11:59:52.493Z</time>
      </trkpt>
      <trkpt lat="47.26904" lon="-2.29005">
        <ele>36.60169459268</ele>
        <time>2021-05-22T12:00:02.335Z</time>
      </trkpt>
      <trkpt lat="47.26898" lon="-2.29007">
        <ele>36.61600829645</ele>
        <time>2021-05-22T12:00:12.179Z</time>
      </trkpt>
      <trkpt lat="47.26866" lon="-2.29034">
        <ele>36.70616992943</ele>
        <time>2021-05-22T12:00:22.035Z</time>
      </trkpt>
      <trkpt lat="47.26635" lon="-2.29264">
        <ele>37.07667620118</ele>
        <time>2021-05-22T12:00:31.984Z</time>
      </trkpt>
      <trkpt lat="47.26529" lon="-2.29327">
        <ele>37.40726380875</ele>
        <time>2021-05-22T12:00:41.971Z</time>
      </trkpt>
      <trkpt lat="47.26497" lon="-2.29339">
        <ele>37.60607684718</ele>
        <time>2021-05-22T12:00:51.969Z</time>
      </trkpt>
      <trkpt lat="47.26462" lon="-2.29335">
        <ele>37.83751142644</ele>
        <time>2021-05-22T12:01:01.979Z</time>
      </trkpt>
      <trkpt lat="47.26408" lon="-2.29305">
        <ele>38.0054097465</ele>
        <time>2021-05-22T12:01:12.008Z</time>
      </trkpt>
      <trkpt lat="47.26379" lon="-2.29286">
        <ele>38.12966898223</ele>
        <time>2021-05-22T12:01:22.048Z</time>
      </trkpt>
      <trkpt lat="47.26331" lon="-2.29269">
        <ele>38.14104613709</ele>
        <time>2021-05-22T12:01:32.104Z</time>
      </trkpt>
      <trkpt lat="47.26287" lon="-2.29279">
        <ele>38.14785596932</ele>
        <time>2021-05-22T12:01:42.175Z</time>
      </trkpt>
      <trkpt lat="47.26187" lon="-2.29362">
        <ele>38.08020632226</ele>
        <time>2021-05-22T12:01:52.285Z</time>
      </trkpt>
      <trkpt lat="47.2616" lon="-2.29366">
        <ele>37.95391199305</ele>
        <time>2021-05-22T12:02:02.404Z</time>
      </trkpt>
      <trkpt lat="47.26138" lon="-2.29354">
        <ele>37.67748524741</ele>
        <time>2021-05-22T12:02:12.530Z</time>
      </trkpt>
      <trkpt lat="47.26136" lon="-2.29353">
        <ele>37.4382850991</ele>
        <time>2021-05-22T12:02:22.657Z</time>
      </trkpt>
      <trkpt lat="47.26124" lon="-2.29422">
        <ele>37.17721007558</ele>
        <time>2021-05-22T12:02:32.800Z</time>
      </trkpt>
      <trkpt lat="47.26123" lon="-2.29439">
        <ele>36.81623172882</ele>
        <time>2021-05-22T12:02:42.947Z</time>
      </trkpt>
      <trkpt lat="47.26127" lon="-2.29468">
        <ele>36.37805711688</ele>
        <time>2021-05-22T12:02:53.101Z</time>
      </trkpt>
      <trkpt lat="47.26138" lon="-2.29494">
        <ele>35.86305787608</ele>
        <time>2021-05-22T12:03:03.262Z</time>
      </trkpt>
      <trkpt lat="47.26149" lon="-2.29516">
        <ele>35.30321190488</ele>
        <time>2021-05-22T12:03:13.429Z</time>
      </trkpt>
      <trkpt lat="47.26155" lon="-2.29522">
        <ele>34.67491055018</ele>
        <time>2021-05-22T12:03:23.598Z</time>
      </trkpt>
      <trkpt lat="47.26178" lon="-2.29534">
        <ele>34.01974574356</ele>
        <time>2021-05-22T12:03:33.776Z</time>
      </trkpt>
      <trkpt lat="47.26187" lon="-2.29542">
        <ele>33.27782625501</ele>
        <time>2021-05-22T12:03:43.957Z</time>
      </trkpt>
      <trkpt lat="47.26194" lon="-2.2957">
        <ele>32.46692911561</ele>
        <time>2021-05-22T12:03:54.145Z</time>
      </trkpt>
      <trkpt lat="47.2619" lon="-2.29572">
        <ele>31.5692066352</ele>
        <time>2021-05-22T12:04:04.334Z</time>
      </trkpt>
      <trkpt lat="47.26183" lon="-2.29574">
        <ele>30.62587349004</ele>
        <time>2021-05-22T12:04:14.526Z</time>
      </trkpt>
      <trkpt lat="47.26149" lon="-2.29587">
        <ele>29.63632494186</ele>
        <time>2021-05-22T12:04:24.729Z</time>
      </trkpt>
      <trkpt lat="47.26108" lon="-2.29609">
        <ele>28.58701619078</ele>
        <time>2021-05-22T12:04:34.947Z</time>
      </trkpt>
      <trkpt lat="47.25953" lon="-2.29632">
        <ele>27.3246271922</ele>
        <time>2021-05-22T12:04:45.217Z</time>
      </trkpt>
      <trkpt lat="47.25946" lon="-2.29625">
        <ele>26.40161031083</ele>
        <time>2021-05-22T12:04:55.490Z</time>
      </trkpt>
      <trkpt lat="47.25938" lon="-2.29631">
        <ele>25.53924469011</ele>
        <time>2021-05-22T12:05:05.766Z</time>
      </trkpt>
      <trkpt lat="47.25936" lon="-2.29638">
        <ele>24.79441730428</ele>
        <time>2021-05-22T12:05:16.043Z</time>
      </trkpt>
      <trkpt lat="47.25924" lon="-2.29724">
        <ele>24.08103998745</ele>
        <time>2021-05-22T12:05:26.340Z</time>
      </trkpt>
      <trkpt lat="47.25928" lon="-2.29762">
        <ele>23.57579545598</ele>
        <time>2021-05-22T12:05:36.646Z</time>
      </trkpt>
      <trkpt lat="47.25953" lon="-2.29812">
        <ele>23.25846398851</ele>
        <time>2021-05-22T12:05:46.966Z</time>
      </trkpt>
      <trkpt lat="47.25977" lon="-2.29896">
        <ele>23.17161595881</ele>
        <time>2021-05-22T12:05:57.307Z</time>
      </trkpt>
      <trkpt lat="47.25985" lon="-2.29923">
        <ele>23.30504300735</ele>
        <time>2021-05-22T12:06:07.655Z</time>
      </trkpt>
      <trkpt lat="47.25969" lon="-2.29939">
        <ele>23.60955829776</ele>
        <time>2021-05-22T12:06:18.009Z</time>
      </trkpt>
      <trkpt lat="47.25853" lon="-2.29937">
        <ele>24.23903756931</ele>
        <time>2021-05-22T12:06:28.402Z</time>
      </trkpt>
      <trkpt lat="47.25778" lon="-2.29929">
        <ele>24.98493472346</ele>
        <time>2021-05-22T12:06:38.820Z</time>
      </trkpt>
      <trkpt lat="47.25654" lon="-2.29884">
        <ele>26.00920392322</ele>
        <time>2021-05-22T12:06:49.280Z</time>
      </trkpt>
      <trkpt lat="47.25584" lon="-2.2981">
        <ele>27.04582806876</ele>
        <time>2021-05-22T12:06:59.769Z</time>
      </trkpt>
      <trkpt lat="47.25537" lon="-2.29749">
        <ele>28.16982395582</ele>
        <time>2021-05-22T12:07:10.279Z</time>
      </trkpt>
      <trkpt lat="47.2552" lon="-2.29736">
        <ele>29.2835030061</ele>
        <time>2021-05-22T12:07:20.795Z</time>
      </trkpt>
      <trkpt lat="47.25535" lon="-2.29727">
        <ele>30.36800984305</ele>
        <time>2021-05-22T12:07:31.317Z</time>
      </trkpt>
      <trkpt lat="47.2552" lon="-2.29736">
        <ele>29.2835030061</ele>
        <time>2021-05-22T12:07:41.844Z</time>
      </trkpt>
      <trkpt lat="47.25483" lon="-2.29746">
        <ele>32.49391397043</ele>
        <time>2021-05-22T12:07:52.384Z</time>
      </trkpt>
      <trkpt lat="47.25457" lon="-2.29618">
        <ele>33.5615087034</ele>
        <time>2021-05-22T12:08:02.954Z</time>
      </trkpt>
      <trkpt lat="47.25432" lon="-2.29535">
        <ele>34.5134344171</ele>
        <time>2021-05-22T12:08:13.545Z</time>
      </trkpt>
      <trkpt lat="47.25428" lon="-2.29487">
        <ele>35.41769279774</ele>
        <time>2021-05-22T12:08:24.147Z</time>
      </trkpt>
      <trkpt lat="47.25425" lon="-2.29202">
        <ele>36.23031174907</ele>
        <time>2021-05-22T12:08:34.813Z</time>
      </trkpt>
      <trkpt lat="47.25428" lon="-2.29181">
        <ele>36.95072715901</ele>
        <time>2021-05-22T12:08:45.484Z</time>
      </trkpt>
      <trkpt lat="47.25414" lon="-2.29189">
        <ele>37.54861187013</ele>
        <time>2021-05-22T12:08:56.160Z</time>
      </trkpt>
      <trkpt lat="47.25409" lon="-2.29192">
        <ele>38.02582877776</ele>
        <time>2021-05-22T12:09:06.838Z</time>
      </trkpt>
      <trkpt lat="47.25392" lon="-2.29211">
        <ele>38.37758258331</ele>
        <time>2021-05-22T12:09:17.523Z</time>
      </trkpt>
      <trkpt lat="47.25373" lon="-2.29239">
        <ele>38.62544311814</ele>
        <time>2021-05-22T12:09:28.217Z</time>
      </trkpt>
      <trkpt lat="47.2536" lon="-2.29297">
        <ele>38.79227904151</ele>
        <time>2021-05-22T12:09:38.925Z</time>
      </trkpt>
      <trkpt lat="47.25357" lon="-2.29338">
        <ele>38.83949618007</ele>
        <time>2021-05-22T12:09:49.643Z</time>
      </trkpt>
      <trkpt lat="47.25345" lon="-2.29397">
        <ele>38.68620357384</ele>
        <time>2021-05-22T12:10:00.374Z</time>
      </trkpt>
      <trkpt lat="47.25347" lon="-2.29466">
        <ele>38.4373681764</ele>
        <time>2021-05-22T12:10:11.121Z</time>
      </trkpt>
      <trkpt lat="47.25337" lon="-2.29503">
        <ele>38.26937124342</ele>
        <time>2021-05-22T12:10:21.877Z</time>
      </trkpt>
      <trkpt lat="47.25321" lon="-2.29527">
        <ele>38.04419687918</ele>
        <time>2021-05-22T12:10:32.641Z</time>
      </trkpt>
      <trkpt lat="47.25276" lon="-2.29543">
        <ele>37.7969673773</ele>
        <time>2021-05-22T12:10:43.420Z</time>
      </trkpt>
      <trkpt lat="47.25214" lon="-2.29588">
        <ele>37.32598832406</ele>
        <time>2021-05-22T12:10:54.222Z</time>
      </trkpt>
      <trkpt lat="47.25192" lon="-2.29636">
        <ele>36.83321273548</ele>
        <time>2021-05-22T12:11:05.037Z</time>
      </trkpt>
      <trkpt lat="47.25193" lon="-2.29737">
        <ele>36.3378604791</ele>
        <time>2021-05-22T12:11:15.875Z</time>
      </trkpt>
      <trkpt lat="47.25193" lon="-2.29743">
        <ele>35.93680057593</ele>
        <time>2021-05-22T12:11:26.715Z</time>
      </trkpt>
      <trkpt lat="47.25192" lon="-2.29753">
        <ele>35.57199696051</ele>
        <time>2021-05-22T12:11:37.557Z</time>
      </trkpt>
      <trkpt lat="47.25189" lon="-2.29752">
        <ele>35.25691425513</ele>
        <time>2021-05-22T12:11:48.400Z</time>
      </trkpt>
      <trkpt lat="47.25186" lon="-2.2977">
        <ele>34.99164409591</ele>
        <time>2021-05-22T12:11:59.247Z</time>
      </trkpt>
      <trkpt lat="47.25182" lon="-2.29806">
        <ele>34.78596064952</ele>
        <time>2021-05-22T12:12:10.103Z</time>
      </trkpt>
      <trkpt lat="47.25188" lon="-2.29874">
        <ele>34.64273154345</ele>
        <time>2021-05-22T12:12:20.974Z</time>
      </trkpt>
      <trkpt lat="47.25188" lon="-2.29906">
        <ele>34.51928151287</ele>
        <time>2021-05-22T12:12:31.852Z</time>
      </trkpt>
      <trkpt lat="47.25184" lon="-2.29924">
        <ele>34.498651601</ele>
        <time>2021-05-22T12:12:42.735Z</time>
      </trkpt>
      <trkpt lat="47.2517" lon="-2.29929">
        <ele>34.5405476009</ele>
        <time>2021-05-22T12:12:53.623Z</time>
      </trkpt>
      <trkpt lat="47.25103" lon="-2.29902">
        <ele>34.73609704801</ele>
        <time>2021-05-22T12:13:04.534Z</time>
      </trkpt>
      <trkpt lat="47.25092" lon="-2.299">
        <ele>34.95388330988</ele>
        <time>2021-05-22T12:13:15.448Z</time>
      </trkpt>
      <trkpt lat="47.25087" lon="-2.29902">
        <ele>35.20296885633</ele>
        <time>2021-05-22T12:13:26.364Z</time>
      </trkpt>
      <trkpt lat="47.25076" lon="-2.30039">
        <ele>35.50548411463</ele>
        <time>2021-05-22T12:13:37.311Z</time>
      </trkpt>
      <trkpt lat="47.25068" lon="-2.30062">
        <ele>35.80186037675</ele>
        <time>2021-05-22T12:13:48.264Z</time>
      </trkpt>
      <trkpt lat="47.25064" lon="-2.3006">
        <ele>36.11497238498</ele>
        <time>2021-05-22T12:13:59.219Z</time>
      </trkpt>
      <trkpt lat="47.25054" lon="-2.30057">
        <ele>36.44356530006</ele>
        <time>2021-05-22T12:14:10.177Z</time>
      </trkpt>
      <trkpt lat="47.25011" lon="-2.30057">
        <ele>36.7886411389</ele>
        <time>2021-05-22T12:14:21.150Z</time>
      </trkpt>
      <trkpt lat="47.2496" lon="-2.30055">
        <ele>37.07949129576</ele>
        <time>2021-05-22T12:14:32.140Z</time>
      </trkpt>
      <trkpt lat="47.2492" lon="-2.30056">
        <ele>37.3402273516</ele>
        <time>2021-05-22T12:14:43.143Z</time>
      </trkpt>
      <trkpt lat="47.24908" lon="-2.30047">
        <ele>37.53792182942</ele>
        <time>2021-05-22T12:14:54.150Z</time>
      </trkpt>
      <trkpt lat="47.24903" lon="-2.30043">
        <ele>37.66948213443</ele>
        <time>2021-05-22T12:15:05.159Z</time>
      </trkpt>
      <trkpt lat="47.24863" lon="-2.29824">
        <ele>37.71350168631</ele>
        <time>2021-05-22T12:15:16.220Z</time>
      </trkpt>
      <trkpt lat="47.24861" lon="-2.29825">
        <ele>37.73658162412</ele>
        <time>2021-05-22T12:15:27.281Z</time>
      </trkpt>
      <trkpt lat="47.24853" lon="-2.29835">
        <ele>37.69562425849</ele>
        <time>2021-05-22T12:15:38.346Z</time>
      </trkpt>
      <trkpt lat="47.24835" lon="-2.29844">
        <ele>37.60717947307</ele>
        <time>2021-05-22T12:15:49.417Z</time>
      </trkpt>
      <trkpt lat="47.24801" lon="-2.29854">
        <ele>37.45329639533</ele>
        <time>2021-05-22T12:16:00.500Z</time>
      </trkpt>
      <trkpt lat="47.24766" lon="-2.29878">
        <ele>37.22156360641</ele>
        <time>2021-05-22T12:16:11.596Z</time>
      </trkpt>
      <trkpt lat="47.24745" lon="-2.29894">
        <ele>36.99013060938</ele>
        <time>2021-05-22T12:16:22.700Z</time>
      </trkpt>
      <trkpt lat="47.24628" lon="-2.29935">
        <ele>36.66028787399</ele>
        <time>2021-05-22T12:16:33.844Z</time>
      </trkpt>
      <trkpt lat="47.24606" lon="-2.29946">
        <ele>36.28932077469</ele>
        <time>2021-05-22T12:16:44.996Z</time>
      </trkpt>
      <trkpt lat="47.24601" lon="-2.29948">
        <ele>35.93927707369</ele>
        <time>2021-05-22T12:16:56.149Z</time>
      </trkpt>
      <trkpt lat="47.24599" lon="-2.2995">
        <ele>35.58246433701</ele>
        <time>2021-05-22T12:17:07.303Z</time>
      </trkpt>
      <trkpt lat="47.24579" lon="-2.29919">
        <ele>35.24873623126</ele>
        <time>2021-05-22T12:17:18.467Z</time>
      </trkpt>
      <trkpt lat="47.24571" lon="-2.29899">
        <ele>34.90221391079</ele>
        <time>2021-05-22T12:17:29.636Z</time>
      </trkpt>
      <trkpt lat="47.24566" lon="-2.29879">
        <ele>34.58051472478</ele>
        <time>2021-05-22T12:17:40.810Z</time>
      </trkpt>
      <trkpt lat="47.2456" lon="-2.29877">
        <ele>34.29063607347</ele>
        <time>2021-05-22T12:17:51.986Z</time>
      </trkpt>
      <trkpt lat="47.24491" lon="-2.29846">
        <ele>34.04100183578</ele>
        <time>2021-05-22T12:18:03.186Z</time>
      </trkpt>
      <trkpt lat="47.24472" lon="-2.2981">
        <ele>33.82167668329</ele>
        <time>2021-05-22T12:18:14.396Z</time>
      </trkpt>
      <trkpt lat="47.24462" lon="-2.29783">
        <ele>33.6858641165</ele>
        <time>2021-05-22T12:18:25.613Z</time>
      </trkpt>
      <trkpt lat="47.24458" lon="-2.29758">
        <ele>33.60762468435</ele>
        <time>2021-05-22T12:18:36.836Z</time>
      </trkpt>
      <trkpt lat="47.24448" lon="-2.29729">
        <ele>33.62154792205</ele>
        <time>2021-05-22T12:18:48.067Z</time>
      </trkpt>
      <trkpt lat="47.24439" lon="-2.29679">
        <ele>33.78249607639</ele>
        <time>2021-05-22T12:18:59.309Z</time>
      </trkpt>
      <trkpt lat="47.24434" lon="-2.29682">
        <ele>34.02106555619</ele>
        <time>2021-05-22T12:19:10.553Z</time>
      </trkpt>
      <trkpt lat="47.24395" lon="-2.29705">
        <ele>34.32938720235</ele>
        <time>2021-05-22T12:19:21.811Z</time>
      </trkpt>
      <trkpt lat="47.24364" lon="-2.29793">
        <ele>34.82529707047</ele>
        <time>2021-05-22T12:19:33.092Z</time>
      </trkpt>
      <trkpt lat="47.24319" lon="-2.29821">
        <ele>35.38535579983</ele>
        <time>2021-05-22T12:19:44.389Z</time>
      </trkpt>
      <trkpt lat="47.24316" lon="-2.29885">
        <ele>36.06429536165</ele>
        <time>2021-05-22T12:19:55.700Z</time>
      </trkpt>
      <trkpt lat="47.24265" lon="-2.29926">
        <ele>36.77409142688</ele>
        <time>2021-05-22T12:20:07.031Z</time>
      </trkpt>
      <trkpt lat="47.24247" lon="-2.29945">
        <ele>37.65388825556</ele>
        <time>2021-05-22T12:20:18.369Z</time>
      </trkpt>
      <trkpt lat="47.24157" lon="-2.29987">
        <ele>38.81714087577</ele>
        <time>2021-05-22T12:20:29.739Z</time>
      </trkpt>
      <trkpt lat="47.24149" lon="-2.29991">
        <ele>39.75554024422</ele>
        <time>2021-05-22T12:20:41.112Z</time>
      </trkpt>
      <trkpt lat="47.24151" lon="-2.29977">
        <ele>40.73525023138</ele>
        <time>2021-05-22T12:20:52.488Z</time>
      </trkpt>
      <trkpt lat="47.24151" lon="-2.29932">
        <ele>41.70106540033</ele>
        <time>2021-05-22T12:21:03.874Z</time>
      </trkpt>
      <trkpt lat="47.24144" lon="-2.29859">
        <ele>42.64246086903</ele>
        <time>2021-05-22T12:21:15.277Z</time>
      </trkpt>
      <trkpt lat="47.24147" lon="-2.29833">
        <ele>43.46395882965</ele>
        <time>2021-05-22T12:21:26.686Z</time>
      </trkpt>
      <trkpt lat="47.24146" lon="-2.29832">
        <ele>44.16590579823</ele>
        <time>2021-05-22T12:21:38.095Z</time>
      </trkpt>
      <trkpt lat="47.24143" lon="-2.29827">
        <ele>44.75068951763</ele>
        <time>2021-05-22T12:21:49.506Z</time>
      </trkpt>
      <trkpt lat="47.2413" lon="-2.29823">
        <ele>45.20132652239</ele>
        <time>2021-05-22T12:22:00.921Z</time>
      </trkpt>
      <trkpt lat="47.24098" lon="-2.29831">
        <ele>45.49890835224</ele>
        <time>2021-05-22T12:22:12.347Z</time>
      </trkpt>
      <trkpt lat="47.24078" lon="-2.29829">
        <ele>45.6439318026</ele>
        <time>2021-05-22T12:22:23.780Z</time>
      </trkpt>
      <trkpt lat="47.24078" lon="-2.29826">
        <ele>45.62141034174</ele>
        <time>2021-05-22T12:22:35.213Z</time>
      </trkpt>
      <trkpt lat="47.24078" lon="-2.29829">
        <ele>45.6439318026</ele>
        <time>2021-05-22T12:22:46.647Z</time>
      </trkpt>
      <trkpt lat="47.24079" lon="-2.29847">
        <ele>45.00964329912</ele>
        <time>2021-05-22T12:22:58.085Z</time>
      </trkpt>
      <trkpt lat="47.2408" lon="-2.29861">
        <ele>44.4374898974</ele>
        <time>2021-05-22T12:23:09.526Z</time>
      </trkpt>
      <trkpt lat="47.24076" lon="-2.29877">
        <ele>43.67764980374</ele>
        <time>2021-05-22T12:23:20.971Z</time>
      </trkpt>
      <trkpt lat="47.24063" lon="-2.29976">
        <ele>42.7567908562</ele>
        <time>2021-05-22T12:23:32.439Z</time>
      </trkpt>
      <trkpt lat="47.24061" lon="-2.29995">
        <ele>41.67429291676</ele>
        <time>2021-05-22T12:23:43.911Z</time>
      </trkpt>
      <trkpt lat="47.2405" lon="-2.3009">
        <ele>40.30182190649</ele>
        <time>2021-05-22T12:23:55.405Z</time>
      </trkpt>
      <trkpt lat="47.24048" lon="-2.30106">
        <ele>38.95618954995</ele>
        <time>2021-05-22T12:24:06.903Z</time>
      </trkpt>
      <trkpt lat="47.24042" lon="-2.30167">
        <ele>37.54286569948</ele>
        <time>2021-05-22T12:24:18.415Z</time>
      </trkpt>
      <trkpt lat="47.24038" lon="-2.30208">
        <ele>36.00685661998</ele>
        <time>2021-05-22T12:24:29.936Z</time>
      </trkpt>
      <trkpt lat="47.24024" lon="-2.30294">
        <ele>34.19512769173</ele>
        <time>2021-05-22T12:24:41.477Z</time>
      </trkpt>
      <trkpt lat="47.24022" lon="-2.30306">
        <ele>32.53112584792</ele>
        <time>2021-05-22T12:24:53.021Z</time>
      </trkpt>
      <trkpt lat="47.23973" lon="-2.30374">
        <ele>30.84033919864</ele>
        <time>2021-05-22T12:25:04.588Z</time>
      </trkpt>
      <trkpt lat="47.23944" lon="-2.3041">
        <ele>29.16556273118</ele>
        <time>2021-05-22T12:25:16.167Z</time>
      </trkpt>
      <trkpt lat="47.23919" lon="-2.30447">
        <ele>27.47975746892</ele>
        <time>2021-05-22T12:25:27.758Z</time>
      </trkpt>
      <trkpt lat="47.23951" lon="-2.30533">
        <ele>25.82916205406</ele>
        <time>2021-05-22T12:25:39.372Z</time>
      </trkpt>
      <trkpt lat="47.23927" lon="-2.30578">
        <ele>24.19293108515</ele>
        <time>2021-05-22T12:25:50.999Z</time>
      </trkpt>
      <trkpt lat="47.23922" lon="-2.30587">
        <ele>22.63674783842</ele>
        <time>2021-05-22T12:26:02.628Z</time>
      </trkpt>
      <trkpt lat="47.2392" lon="-2.3059">
        <ele>21.1840187671</ele>
        <time>2021-05-22T12:26:14.258Z</time>
      </trkpt>
      <trkpt lat="47.23914" lon="-2.30607">
        <ele>19.79385982333</ele>
        <time>2021-05-22T12:26:25.892Z</time>
      </trkpt>
      <trkpt lat="47.23903" lon="-2.30671">
        <ele>18.35015178964</ele>
        <time>2021-05-22T12:26:37.541Z</time>
      </trkpt>
      <trkpt lat="47.23896" lon="-2.30706">
        <ele>17.09102492406</ele>
        <time>2021-05-22T12:26:49.199Z</time>
      </trkpt>
      <trkpt lat="47.23896" lon="-2.30709">
        <ele>10.95632270008</ele>
        <time>2021-05-22T12:27:00.857Z</time>
      </trkpt>
      <trkpt lat="47.23892" lon="-2.3071">
        <ele>11.81095348798</ele>
        <time>2021-05-22T12:27:12.517Z</time>
      </trkpt>
      <trkpt lat="47.23886" lon="-2.30713">
        <ele>12.68090252488</ele>
        <time>2021-05-22T12:27:24.179Z</time>
      </trkpt>
      <trkpt lat="47.23868" lon="-2.30706">
        <ele>13.58180608742</ele>
        <time>2021-05-22T12:27:35.847Z</time>
      </trkpt>
      <trkpt lat="47.23862" lon="-2.30709">
        <ele>14.48619972672</ele>
        <time>2021-05-22T12:27:47.517Z</time>
      </trkpt>
      <trkpt lat="47.23855" lon="-2.30701">
        <ele>15.45079941105</ele>
        <time>2021-05-22T12:27:59.190Z</time>
      </trkpt>
      <trkpt lat="47.23845" lon="-2.30687">
        <ele>16.44990480007</ele>
        <time>2021-05-22T12:28:10.868Z</time>
      </trkpt>
      <trkpt lat="47.23837" lon="-2.3067">
        <ele>18.29735569227</ele>
        <time>2021-05-22T12:28:22.550Z</time>
      </trkpt>
      <trkpt lat="47.23829" lon="-2.30634">
        <ele>19.29223350328</ele>
        <time>2021-05-22T12:28:34.241Z</time>
      </trkpt>
      <trkpt lat="47.23823" lon="-2.30582">
        <ele>20.97660097368</ele>
        <time>2021-05-22T12:28:45.944Z</time>
      </trkpt>
      <trkpt lat="47.23821" lon="-2.30574">
        <ele>21.20751680336</ele>
        <time>2021-05-22T12:28:57.649Z</time>
      </trkpt>
      <trkpt lat="47.23821" lon="-2.30573">
        <ele>16.75001341794</ele>
        <time>2021-05-22T12:29:09.354Z</time>
      </trkpt>
      <trkpt lat="47.23812" lon="-2.30516">
        <ele>21.18190832474</ele>
        <time>2021-05-22T12:29:21.073Z</time>
      </trkpt>
      <trkpt lat="47.23807" lon="-2.30505">
        <ele>21.09536018499</ele>
        <time>2021-05-22T12:29:32.795Z</time>
      </trkpt>
      <trkpt lat="47.23803" lon="-2.30486">
        <ele>20.88182559416</ele>
        <time>2021-05-22T12:29:44.521Z</time>
      </trkpt>
      <trkpt lat="47.23797" lon="-2.30477">
        <ele>20.54973747182</ele>
        <time>2021-05-22T12:29:56.250Z</time>
      </trkpt>
      <trkpt lat="47.23795" lon="-2.3047">
        <ele>20.16801890103</ele>
        <time>2021-05-22T12:30:07.981Z</time>
      </trkpt>
      <trkpt lat="47.23797" lon="-2.30456">
        <ele>19.78848111634</ele>
        <time>2021-05-22T12:30:19.715Z</time>
      </trkpt>
      <trkpt lat="47.23788" lon="-2.30454">
        <ele>19.2620148047</ele>
        <time>2021-05-22T12:30:31.452Z</time>
      </trkpt>
      <trkpt lat="47.23785" lon="-2.30449">
        <ele>18.73421152003</ele>
        <time>2021-05-22T12:30:43.190Z</time>
      </trkpt>
      <trkpt lat="47.2377" lon="-2.30414">
        <ele>17.65130993978</ele>
        <time>2021-05-22T12:30:54.938Z</time>
      </trkpt>
      <trkpt lat="47.23768" lon="-2.30388">
        <ele>17.12743369726</ele>
        <time>2021-05-22T12:31:06.692Z</time>
      </trkpt>
      <trkpt lat="47.23765" lon="-2.30376">
        <ele>16.59004109696</ele>
        <time>2021-05-22T12:31:18.449Z</time>
      </trkpt>
      <trkpt lat="47.23749" lon="-2.30358">
        <ele>15.98100775986</ele>
        <time>2021-05-22T12:31:30.212Z</time>
      </trkpt>
      <trkpt lat="47.23747" lon="-2.30353">
        <ele>15.50911944058</ele>
        <time>2021-05-22T12:31:41.977Z</time>
      </trkpt>
      <trkpt lat="47.23746" lon="-2.30334">
        <ele>15.06376644311</ele>
        <time>2021-05-22T12:31:53.746Z</time>
      </trkpt>
      <trkpt lat="47.23744" lon="-2.30318">
        <ele>14.72128090424</ele>
        <time>2021-05-22T12:32:05.519Z</time>
      </trkpt>
      <trkpt lat="47.23744" lon="-2.30298">
        <ele>14.34585031905</ele>
        <time>2021-05-22T12:32:17.296Z</time>
      </trkpt>
      <trkpt lat="47.23732" lon="-2.30277">
        <ele>14.25873527225</ele>
        <time>2021-05-22T12:32:29.080Z</time>
      </trkpt>
      <trkpt lat="47.23717" lon="-2.30229">
        <ele>14.36987788081</ele>
        <time>2021-05-22T12:32:40.876Z</time>
      </trkpt>
      <trkpt lat="47.23701" lon="-2.30204">
        <ele>14.44325488187</ele>
        <time>2021-05-22T12:32:52.679Z</time>
      </trkpt>
      <trkpt lat="47.23689" lon="-2.30169">
        <ele>14.65112182718</ele>
        <time>2021-05-22T12:33:04.491Z</time>
      </trkpt>
      <trkpt lat="47.23685" lon="-2.30155">
        <ele>14.83099263967</ele>
        <time>2021-05-22T12:33:16.307Z</time>
      </trkpt>
      <trkpt lat="47.23677" lon="-2.30159">
        <ele>15.94525165491</ele>
        <time>2021-05-22T12:33:28.125Z</time>
      </trkpt>
      <trkpt lat="47.23685" lon="-2.30155">
        <ele>14.83099263967</ele>
        <time>2021-05-22T12:33:39.946Z</time>
      </trkpt>
      <trkpt lat="47.23672" lon="-2.30142">
        <ele>15.21683749438</ele>
        <time>2021-05-22T12:33:51.773Z</time>
      </trkpt>
      <trkpt lat="47.23664" lon="-2.30132">
        <ele>15.4683394736</ele>
        <time>2021-05-22T12:34:03.603Z</time>
      </trkpt>
      <trkpt lat="47.23648" lon="-2.30127">
        <ele>15.6616733416</ele>
        <time>2021-05-22T12:34:15.438Z</time>
      </trkpt>
      <trkpt lat="47.23607" lon="-2.30103">
        <ele>16.17149845474</ele>
        <time>2021-05-22T12:34:27.288Z</time>
      </trkpt>
      <trkpt lat="47.23597" lon="-2.30103">
        <ele>16.32267951664</ele>
        <time>2021-05-22T12:34:39.142Z</time>
      </trkpt>
      <trkpt lat="47.23582" lon="-2.30108">
        <ele>16.38718078825</ele>
        <time>2021-05-22T12:34:51.001Z</time>
      </trkpt>
      <trkpt lat="47.23565" lon="-2.30114">
        <ele>16.4039209986</ele>
        <time>2021-05-22T12:35:02.866Z</time>
      </trkpt>
      <trkpt lat="47.23558" lon="-2.30094">
        <ele>16.75026334188</ele>
        <time>2021-05-22T12:35:14.736Z</time>
      </trkpt>
      <trkpt lat="47.23552" lon="-2.30075">
        <ele>16.92315224813</ele>
        <time>2021-05-22T12:35:26.610Z</time>
      </trkpt>
      <trkpt lat="47.2355" lon="-2.30049">
        <ele>17.08938002984</ele>
        <time>2021-05-22T12:35:38.490Z</time>
      </trkpt>
      <trkpt lat="47.23547" lon="-2.30037">
        <ele>16.99177498771</ele>
        <time>2021-05-22T12:35:50.373Z</time>
      </trkpt>
      <trkpt lat="47.23534" lon="-2.30021">
        <ele>16.84403563414</ele>
        <time>2021-05-22T12:36:02.262Z</time>
      </trkpt>
      <trkpt lat="47.23513" lon="-2.30002">
        <ele>16.61151515694</ele>
        <time>2021-05-22T12:36:14.159Z</time>
      </trkpt>
      <trkpt lat="47.23506" lon="-2.29995">
        <ele>15.3425474079</ele>
        <time>2021-05-22T12:36:26.059Z</time>
      </trkpt>
      <trkpt lat="47.23505" lon="-2.29995">
        <ele>14.85413613897</ele>
        <time>2021-05-22T12:36:37.959Z</time>
      </trkpt>
      <trkpt lat="47.2348" lon="-2.29996">
        <ele>14.61481374151</ele>
        <time>2021-05-22T12:36:49.868Z</time>
      </trkpt>
      <trkpt lat="47.23475" lon="-2.29984">
        <ele>14.10730104793</ele>
        <time>2021-05-22T12:37:01.780Z</time>
      </trkpt>
      <trkpt lat="47.23462" lon="-2.29965">
        <ele>13.49664102923</ele>
        <time>2021-05-22T12:37:13.698Z</time>
      </trkpt>
      <trkpt lat="47.23456" lon="-2.29952">
        <ele>12.54567690079</ele>
        <time>2021-05-22T12:37:25.619Z</time>
      </trkpt>
      <trkpt lat="47.23441" lon="-2.29944">
        <ele>12.0715465541</ele>
        <time>2021-05-22T12:37:37.546Z</time>
      </trkpt>
      <trkpt lat="47.23426" lon="-2.29924">
        <ele>11.80776925759</ele>
        <time>2021-05-22T12:37:49.480Z</time>
      </trkpt>
      <trkpt lat="47.23421" lon="-2.29925">
        <ele>11.50525531362</ele>
        <time>2021-05-22T12:38:01.415Z</time>
      </trkpt>
      <trkpt lat="47.23401" lon="-2.29916">
        <ele>11.32098382692</ele>
        <time>2021-05-22T12:38:13.357Z</time>
      </trkpt>
      <trkpt lat="47.23385" lon="-2.29896">
        <ele>11.28394297746</ele>
        <time>2021-05-22T12:38:25.306Z</time>
      </trkpt>
      <trkpt lat="47.23377" lon="-2.29883">
        <ele>11.36636223541</ele>
        <time>2021-05-22T12:38:37.259Z</time>
      </trkpt>
      <trkpt lat="47.23368" lon="-2.29873">
        <ele>11.50571093973</ele>
        <time>2021-05-22T12:38:49.216Z</time>
      </trkpt>
      <trkpt lat="47.23349" lon="-2.29856">
        <ele>11.61164967807</ele>
        <time>2021-05-22T12:39:01.180Z</time>
      </trkpt>
      <trkpt lat="47.23347" lon="-2.29849">
        <ele>11.91255197811</ele>
        <time>2021-05-22T12:39:13.146Z</time>
      </trkpt>
      <trkpt lat="47.23349" lon="-2.29843">
        <ele>12.35771666842</ele>
        <time>2021-05-22T12:39:25.114Z</time>
      </trkpt>
      <trkpt lat="47.23354" lon="-2.29843">
        <ele>12.95503190917</ele>
        <time>2021-05-22T12:39:37.083Z</time>
      </trkpt>
      <trkpt lat="47.23375" lon="-2.29859">
        <ele>13.76681123401</ele>
        <time>2021-05-22T12:39:49.060Z</time>
      </trkpt>
      <trkpt lat="47.2339" lon="-2.29853">
        <ele>14.52674506135</ele>
        <time>2021-05-22T12:40:01.042Z</time>
      </trkpt>
      <trkpt lat="47.2339" lon="-2.29852">
        <ele>15.29180874837</ele>
        <time>2021-05-22T12:40:13.025Z</time>
      </trkpt>
      <trkpt lat="47.23394" lon="-2.29845">
        <ele>16.10628848166</ele>
        <time>2021-05-22T12:40:25.010Z</time>
      </trkpt>
      <trkpt lat="47.23398" lon="-2.29838">
        <ele>16.95361030877</ele>
        <time>2021-05-22T12:40:36.997Z</time>
      </trkpt>
      <trkpt lat="47.23401" lon="-2.29842">
        <ele>17.83782505783</ele>
        <time>2021-05-22T12:40:48.985Z</time>
      </trkpt>
      <trkpt lat="47.23404" lon="-2.29836">
        <ele>18.71399403875</ele>
        <time>2021-05-22T12:41:00.975Z</time>
      </trkpt>
      <trkpt lat="47.23405" lon="-2.29836">
        <ele>19.58596375697</ele>
        <time>2021-05-22T12:41:12.965Z</time>
      </trkpt>
      <trkpt lat="47.23419" lon="-2.29842">
        <ele>20.50718532491</ele>
        <time>2021-05-22T12:41:24.960Z</time>
      </trkpt>
      <trkpt lat="47.23422" lon="-2.29844">
        <ele>21.33135701079</ele>
        <time>2021-05-22T12:41:36.956Z</time>
      </trkpt>
      <trkpt lat="47.23437" lon="-2.29853">
        <ele>22.1736996132</ele>
        <time>2021-05-22T12:41:48.958Z</time>
      </trkpt>
      <trkpt lat="47.23444" lon="-2.29861">
        <ele>22.87833745582</ele>
        <time>2021-05-22T12:42:00.962Z</time>
      </trkpt>
      <trkpt lat="47.23445" lon="-2.29866">
        <ele>24.59656306082</ele>
        <time>2021-05-22T12:42:12.968Z</time>
      </trkpt>
      <trkpt lat="47.23456" lon="-2.2986">
        <ele>24.65092022462</ele>
        <time>2021-05-22T12:42:24.978Z</time>
      </trkpt>
      <trkpt lat="47.23469" lon="-2.29849">
        <ele>24.55282956419</ele>
        <time>2021-05-22T12:42:36.993Z</time>
      </trkpt>
      <trkpt lat="47.23468" lon="-2.2984">
        <ele>24.19202201403</ele>
        <time>2021-05-22T12:42:49.010Z</time>
      </trkpt>
      <trkpt lat="47.23465" lon="-2.29814">
        <ele>23.02149394777</ele>
        <time>2021-05-22T12:43:01.033Z</time>
      </trkpt>
      <trkpt lat="47.23467" lon="-2.29801">
        <ele>22.28465086796</ele>
        <time>2021-05-22T12:43:13.059Z</time>
      </trkpt>
      <trkpt lat="47.23486" lon="-2.2977">
        <ele>21.46638380461</ele>
        <time>2021-05-22T12:43:25.094Z</time>
      </trkpt>
      <trkpt lat="47.23487" lon="-2.29754">
        <ele>20.46504475782</ele>
        <time>2021-05-22T12:43:37.133Z</time>
      </trkpt>
      <trkpt lat="47.23501" lon="-2.29739">
        <ele>18.71788691065</ele>
        <time>2021-05-22T12:43:49.178Z</time>
      </trkpt>
      <trkpt lat="47.23507" lon="-2.29719">
        <ele>17.80677945718</ele>
        <time>2021-05-22T12:44:01.228Z</time>
      </trkpt>
      <trkpt lat="47.2351" lon="-2.29706">
        <ele>16.89438980204</ele>
        <time>2021-05-22T12:44:13.281Z</time>
      </trkpt>
      <trkpt lat="47.23512" lon="-2.2968">
        <ele>15.96574914217</ele>
        <time>2021-05-22T12:44:25.340Z</time>
      </trkpt>
      <trkpt lat="47.2351" lon="-2.29656">
        <ele>15.10512031923</ele>
        <time>2021-05-22T12:44:37.404Z</time>
      </trkpt>
      <trkpt lat="47.23507" lon="-2.29636">
        <ele>13.75746028572</ele>
        <time>2021-05-22T12:44:49.473Z</time>
      </trkpt>
      <trkpt lat="47.23503" lon="-2.29622">
        <ele>13.22296438646</ele>
        <time>2021-05-22T12:45:01.545Z</time>
      </trkpt>
      <trkpt lat="47.23502" lon="-2.29611">
        <ele>12.89143356786</ele>
        <time>2021-05-22T12:45:13.620Z</time>
      </trkpt>
      <trkpt lat="47.23506" lon="-2.29601">
        <ele>12.76448485389</ele>
        <time>2021-05-22T12:45:25.697Z</time>
      </trkpt>
      <trkpt lat="47.23509" lon="-2.29599">
        <ele>14.50897649061</ele>
        <time>2021-05-22T12:45:37.775Z</time>
      </trkpt>
      <trkpt lat="47.23512" lon="-2.29597">
        <ele>15.31246861954</ele>
        <time>2021-05-22T12:45:49.855Z</time>
      </trkpt>
      <trkpt lat="47.23537" lon="-2.29596">
        <ele>16.43782740347</ele>
        <time>2021-05-22T12:46:01.943Z</time>
      </trkpt>
      <trkpt lat="47.23556" lon="-2.29592">
        <ele>18.52388522647</ele>
        <time>2021-05-22T12:46:14.037Z</time>
      </trkpt>
      <trkpt lat="47.23567" lon="-2.29572">
        <ele>19.55394957112</ele>
        <time>2021-05-22T12:46:26.137Z</time>
      </trkpt>
      <trkpt lat="47.23557" lon="-2.29569">
        <ele>19.1188279477</ele>
        <time>2021-05-22T12:46:38.241Z</time>
      </trkpt>
      <trkpt lat="47.23557" lon="-2.29562">
        <ele>19.8488590115</ele>
        <time>2021-05-22T12:46:50.346Z</time>
      </trkpt>
      <trkpt lat="47.23557" lon="-2.29569">
        <ele>19.1188279477</ele>
        <time>2021-05-22T12:47:02.453Z</time>
      </trkpt>
      <trkpt lat="47.23567" lon="-2.29572">
        <ele>19.55394957112</ele>
        <time>2021-05-22T12:47:14.563Z</time>
      </trkpt>
      <trkpt lat="47.23568" lon="-2.29567">
        <ele>21.60453623712</ele>
        <time>2021-05-22T12:47:26.674Z</time>
      </trkpt>
      <trkpt lat="47.23575" lon="-2.29555">
        <ele>22.62577595153</ele>
        <time>2021-05-22T12:47:38.789Z</time>
      </trkpt>
      <trkpt lat="47.23584" lon="-2.29555">
        <ele>24.1418954726</ele>
        <time>2021-05-22T12:47:50.907Z</time>
      </trkpt>
      <trkpt lat="47.23591" lon="-2.29554">
        <ele>24.99821482243</ele>
        <time>2021-05-22T12:48:03.027Z</time>
      </trkpt>
      <trkpt lat="47.23591" lon="-2.29543">
        <ele>25.82864862607</ele>
        <time>2021-05-22T12:48:15.150Z</time>
      </trkpt>
      <trkpt lat="47.2359" lon="-2.29418">
        <ele>26.77720459944</ele>
        <time>2021-05-22T12:48:27.301Z</time>
      </trkpt>
      <trkpt lat="47.23588" lon="-2.2924">
        <ele>27.20848800764</ele>
        <time>2021-05-22T12:48:39.493Z</time>
      </trkpt>
      <trkpt lat="47.23599" lon="-2.29218">
        <ele>27.98893099291</ele>
        <time>2021-05-22T12:48:51.691Z</time>
      </trkpt>
      <trkpt lat="47.2361" lon="-2.29209">
        <ele>28.65351159492</ele>
        <time>2021-05-22T12:49:03.893Z</time>
      </trkpt>
      <trkpt lat="47.23674" lon="-2.29192">
        <ele>29.30695968728</ele>
        <time>2021-05-22T12:49:16.117Z</time>
      </trkpt>
      <trkpt lat="47.23679" lon="-2.29191">
        <ele>29.74662313597</ele>
        <time>2021-05-22T12:49:28.342Z</time>
      </trkpt>
      <trkpt lat="47.23723" lon="-2.29175">
        <ele>30.17041638772</ele>
        <time>2021-05-22T12:49:40.582Z</time>
      </trkpt>
      <trkpt lat="47.23769" lon="-2.29153">
        <ele>30.39851397289</ele>
        <time>2021-05-22T12:49:52.839Z</time>
      </trkpt>
      <trkpt lat="47.23786" lon="-2.29152">
        <ele>30.43392543059</ele>
        <time>2021-05-22T12:50:05.101Z</time>
      </trkpt>
      <trkpt lat="47.23792" lon="-2.29119">
        <ele>30.34455861324</ele>
        <time>2021-05-22T12:50:17.371Z</time>
      </trkpt>
      <trkpt lat="47.23804" lon="-2.28996">
        <ele>30.12028627757</ele>
        <time>2021-05-22T12:50:29.669Z</time>
      </trkpt>
      <trkpt lat="47.23808" lon="-2.28971">
        <ele>29.80088098682</ele>
        <time>2021-05-22T12:50:41.973Z</time>
      </trkpt>
      <trkpt lat="47.23811" lon="-2.28953">
        <ele>29.33421443799</ele>
        <time>2021-05-22T12:50:54.281Z</time>
      </trkpt>
      <trkpt lat="47.23812" lon="-2.28949">
        <ele>28.78400299734</ele>
        <time>2021-05-22T12:51:06.590Z</time>
      </trkpt>
      <trkpt lat="47.23819" lon="-2.28916">
        <ele>28.07477322081</ele>
        <time>2021-05-22T12:51:18.907Z</time>
      </trkpt>
      <trkpt lat="47.23816" lon="-2.28915">
        <ele>27.34850219898</ele>
        <time>2021-05-22T12:51:31.225Z</time>
      </trkpt>
      <trkpt lat="47.23808" lon="-2.28913">
        <ele>26.55096332349</ele>
        <time>2021-05-22T12:51:43.546Z</time>
      </trkpt>
      <trkpt lat="47.23796" lon="-2.28911">
        <ele>25.69480643944</ele>
        <time>2021-05-22T12:51:55.871Z</time>
      </trkpt>
      <trkpt lat="47.23774" lon="-2.28914">
        <ele>24.7314421974</ele>
        <time>2021-05-22T12:52:08.203Z</time>
      </trkpt>
      <trkpt lat="47.23772" lon="-2.28866">
        <ele>23.72419896225</ele>
        <time>2021-05-22T12:52:20.546Z</time>
      </trkpt>
      <trkpt lat="47.23767" lon="-2.28833">
        <ele>22.83730328353</ele>
        <time>2021-05-22T12:52:32.897Z</time>
      </trkpt>
      <trkpt lat="47.23767" lon="-2.28796">
        <ele>22.06028952147</ele>
        <time>2021-05-22T12:52:45.256Z</time>
      </trkpt>
      <trkpt lat="47.23764" lon="-2.28761">
        <ele>21.37278763895</ele>
        <time>2021-05-22T12:52:57.623Z</time>
      </trkpt>
      <trkpt lat="47.23761" lon="-2.28729">
        <ele>20.68856273566</ele>
        <time>2021-05-22T12:53:09.998Z</time>
      </trkpt>
      <trkpt lat="47.23766" lon="-2.28692">
        <ele>20.08216999697</ele>
        <time>2021-05-22T12:53:22.381Z</time>
      </trkpt>
      <trkpt lat="47.23754" lon="-2.28693">
        <ele>19.3807216405</ele>
        <time>2021-05-22T12:53:34.768Z</time>
      </trkpt>
      <trkpt lat="47.23766" lon="-2.28692">
        <ele>20.08216999697</ele>
        <time>2021-05-22T12:53:47.159Z</time>
      </trkpt>
      <trkpt lat="47.2378" lon="-2.28641">
        <ele>18.47406904361</ele>
        <time>2021-05-22T12:53:59.563Z</time>
      </trkpt>
      <trkpt lat="47.23791" lon="-2.28629">
        <ele>18.09762223133</ele>
        <time>2021-05-22T12:54:11.971Z</time>
      </trkpt>
      <trkpt lat="47.23791" lon="-2.2861">
        <ele>17.69486487793</ele>
        <time>2021-05-22T12:54:24.384Z</time>
      </trkpt>
      <trkpt lat="47.23784" lon="-2.28595">
        <ele>17.28878082317</ele>
        <time>2021-05-22T12:54:36.801Z</time>
      </trkpt>
      <trkpt lat="47.23781" lon="-2.28578">
        <ele>16.93096575429</ele>
        <time>2021-05-22T12:54:49.222Z</time>
      </trkpt>
      <trkpt lat="47.23784" lon="-2.2853">
        <ele>16.56599356365</ele>
        <time>2021-05-22T12:55:01.654Z</time>
      </trkpt>
      <trkpt lat="47.23779" lon="-2.28515">
        <ele>16.24004246938</ele>
        <time>2021-05-22T12:55:14.089Z</time>
      </trkpt>
      <trkpt lat="47.23765" lon="-2.28492">
        <ele>15.86395958504</ele>
        <time>2021-05-22T12:55:26.531Z</time>
      </trkpt>
      <trkpt lat="47.23755" lon="-2.28479">
        <ele>15.59911741295</ele>
        <time>2021-05-22T12:55:38.978Z</time>
      </trkpt>
      <trkpt lat="47.23755" lon="-2.28466">
        <ele>15.50494790243</ele>
        <time>2021-05-22T12:55:51.428Z</time>
      </trkpt>
      <trkpt lat="47.2377" lon="-2.28432">
        <ele>15.58568621131</ele>
        <time>2021-05-22T12:56:03.887Z</time>
      </trkpt>
      <trkpt lat="47.23769" lon="-2.28419">
        <ele>15.58837206055</ele>
        <time>2021-05-22T12:56:16.349Z</time>
      </trkpt>
      <trkpt lat="47.23766" lon="-2.28397">
        <ele>15.58253465166</ele>
        <time>2021-05-22T12:56:28.816Z</time>
      </trkpt>
      <trkpt lat="47.23759" lon="-2.28372">
        <ele>15.57762289432</ele>
        <time>2021-05-22T12:56:41.289Z</time>
      </trkpt>
      <trkpt lat="47.23772" lon="-2.28363">
        <ele>15.7486544522</ele>
        <time>2021-05-22T12:56:53.767Z</time>
      </trkpt>
      <trkpt lat="47.23784" lon="-2.28347">
        <ele>15.92098286819</ele>
        <time>2021-05-22T12:57:06.250Z</time>
      </trkpt>
      <trkpt lat="47.23775" lon="-2.28327">
        <ele>15.88685357578</ele>
        <time>2021-05-22T12:57:18.739Z</time>
      </trkpt>
      <trkpt lat="47.23784" lon="-2.28304">
        <ele>15.91409203922</ele>
        <time>2021-05-22T12:57:31.234Z</time>
      </trkpt>
      <trkpt lat="47.23794" lon="-2.28299">
        <ele>15.99259198455</ele>
        <time>2021-05-22T12:57:43.732Z</time>
      </trkpt>
      <trkpt lat="47.23801" lon="-2.28288">
        <ele>15.9835044167</ele>
        <time>2021-05-22T12:57:56.234Z</time>
      </trkpt>
      <trkpt lat="47.2381" lon="-2.28286">
        <ele>15.94739112489</ele>
        <time>2021-05-22T12:58:08.739Z</time>
      </trkpt>
      <trkpt lat="47.23817" lon="-2.28285">
        <ele>15.82838694764</ele>
        <time>2021-05-22T12:58:21.246Z</time>
      </trkpt>
      <trkpt lat="47.23823" lon="-2.28272">
        <ele>15.58885905373</ele>
        <time>2021-05-22T12:58:33.757Z</time>
      </trkpt>
      <trkpt lat="47.23823" lon="-2.28247">
        <ele>15.22561985151</ele>
        <time>2021-05-22T12:58:46.274Z</time>
      </trkpt>
      <trkpt lat="47.2382" lon="-2.28228">
        <ele>14.77071446927</ele>
        <time>2021-05-22T12:58:58.795Z</time>
      </trkpt>
      <trkpt lat="47.23817" lon="-2.28212">
        <ele>14.24896253669</ele>
        <time>2021-05-22T12:59:11.320Z</time>
      </trkpt>
      <trkpt lat="47.23822" lon="-2.28119">
        <ele>13.53558175205</ele>
        <time>2021-05-22T12:59:23.866Z</time>
      </trkpt>
      <trkpt lat="47.23831" lon="-2.28104">
        <ele>12.93360930399</ele>
        <time>2021-05-22T12:59:36.416Z</time>
      </trkpt>
      <trkpt lat="47.23832" lon="-2.28102">
        <ele>12.32634456941</ele>
        <time>2021-05-22T12:59:48.967Z</time>
      </trkpt>
      <trkpt lat="47.23827" lon="-2.28089">
        <ele>11.69013480233</ele>
        <time>2021-05-22T13:00:01.521Z</time>
      </trkpt>
      <trkpt lat="47.23823" lon="-2.28071">
        <ele>11.04089989951</ele>
        <time>2021-05-22T13:00:14.080Z</time>
      </trkpt>
      <trkpt lat="47.23823" lon="-2.28048">
        <ele>10.41770468787</ele>
        <time>2021-05-22T13:00:26.644Z</time>
      </trkpt>
      <trkpt lat="47.23827" lon="-2.28017">
        <ele>9.90049335624</ele>
        <time>2021-05-22T13:00:39.215Z</time>
      </trkpt>
      <trkpt lat="47.23834" lon="-2.27986">
        <ele>9.35801069437</ele>
        <time>2021-05-22T13:00:51.794Z</time>
      </trkpt>
      <trkpt lat="47.23847" lon="-2.27948">
        <ele>8.82651222332</ele>
        <time>2021-05-22T13:01:04.382Z</time>
      </trkpt>
      <trkpt lat="47.23837" lon="-2.27963">
        <ele>8.42603750259</ele>
        <time>2021-05-22T13:01:16.975Z</time>
      </trkpt>
      <trkpt lat="47.23822" lon="-2.27991">
        <ele>8.05620817674</ele>
        <time>2021-05-22T13:01:29.576Z</time>
      </trkpt>
      <trkpt lat="47.23814" lon="-2.28002">
        <ele>7.69508092595</ele>
        <time>2021-05-22T13:01:42.181Z</time>
      </trkpt>
      <trkpt lat="47.23805" lon="-2.28007">
        <ele>7.40810965932</ele>
        <time>2021-05-22T13:01:54.789Z</time>
      </trkpt>
      <trkpt lat="47.238" lon="-2.27973">
        <ele>7.2568794261</ele>
        <time>2021-05-22T13:02:07.405Z</time>
      </trkpt>
      <trkpt lat="47.23798" lon="-2.27961">
        <ele>7.15309993641</ele>
        <time>2021-05-22T13:02:20.024Z</time>
      </trkpt>
      <trkpt lat="47.23804" lon="-2.2794">
        <ele>7.14111081607</ele>
        <time>2021-05-22T13:02:32.648Z</time>
      </trkpt>
      <trkpt lat="47.23799" lon="-2.27892">
        <ele>7.18855812352</ele>
        <time>2021-05-22T13:02:45.283Z</time>
      </trkpt>
      <trkpt lat="47.23793" lon="-2.27841">
        <ele>7.3077718129</ele>
        <time>2021-05-22T13:02:57.930Z</time>
      </trkpt>
      <trkpt lat="47.23798" lon="-2.27828">
        <ele>7.52967449915</ele>
        <time>2021-05-22T13:03:10.580Z</time>
      </trkpt>
      <trkpt lat="47.23809" lon="-2.27814">
        <ele>7.84286158966</ele>
        <time>2021-05-22T13:03:23.235Z</time>
      </trkpt>
      <trkpt lat="47.23811" lon="-2.27807">
        <ele>8.19936016217</ele>
        <time>2021-05-22T13:03:35.892Z</time>
      </trkpt>
      <trkpt lat="47.23805" lon="-2.27801">
        <ele>8.60175235638</ele>
        <time>2021-05-22T13:03:48.551Z</time>
      </trkpt>
      <trkpt lat="47.23799" lon="-2.27798">
        <ele>9.05554717759</ele>
        <time>2021-05-22T13:04:01.212Z</time>
      </trkpt>
      <trkpt lat="47.23784" lon="-2.27806">
        <ele>9.49732599859</ele>
        <time>2021-05-22T13:04:13.878Z</time>
      </trkpt>
      <trkpt lat="47.23785" lon="-2.27795">
        <ele>10.06286200806</ele>
        <time>2021-05-22T13:04:26.547Z</time>
      </trkpt>
      <trkpt lat="47.23785" lon="-2.27792">
        <ele>10.63625710264</ele>
        <time>2021-05-22T13:04:39.217Z</time>
      </trkpt>
      <trkpt lat="47.23777" lon="-2.27769">
        <ele>11.22462948628</ele>
        <time>2021-05-22T13:04:51.892Z</time>
      </trkpt>
      <trkpt lat="47.23784" lon="-2.2776">
        <ele>11.87415147619</ele>
        <time>2021-05-22T13:05:04.571Z</time>
      </trkpt>
      <trkpt lat="47.2378" lon="-2.27749">
        <ele>12.43269537836</ele>
        <time>2021-05-22T13:05:17.252Z</time>
      </trkpt>
      <trkpt lat="47.23777" lon="-2.27728">
        <ele>12.95259066612</ele>
        <time>2021-05-22T13:05:29.938Z</time>
      </trkpt>
      <trkpt lat="47.23782" lon="-2.27706">
        <ele>13.44592484126</ele>
        <time>2021-05-22T13:05:42.630Z</time>
      </trkpt>
      <trkpt lat="47.23794" lon="-2.27678">
        <ele>13.90438946821</ele>
        <time>2021-05-22T13:05:55.329Z</time>
      </trkpt>
      <trkpt lat="47.23811" lon="-2.27656">
        <ele>14.31532271769</ele>
        <time>2021-05-22T13:06:08.036Z</time>
      </trkpt>
      <trkpt lat="47.23844" lon="-2.27645">
        <ele>14.6521084901</ele>
        <time>2021-05-22T13:06:20.754Z</time>
      </trkpt>
      <trkpt lat="47.23875" lon="-2.27632">
        <ele>14.7208511999</ele>
        <time>2021-05-22T13:06:33.483Z</time>
      </trkpt>
      <trkpt lat="47.23871" lon="-2.27611">
        <ele>14.56277451617</ele>
        <time>2021-05-22T13:06:46.217Z</time>
      </trkpt>
      <trkpt lat="47.23863" lon="-2.27614">
        <ele>14.42257730823</ele>
        <time>2021-05-22T13:06:58.953Z</time>
      </trkpt>
      <trkpt lat="47.23855" lon="-2.27616">
        <ele>14.16450431995</ele>
        <time>2021-05-22T13:07:11.692Z</time>
      </trkpt>
      <trkpt lat="47.23853" lon="-2.27617">
        <ele>13.81496275931</ele>
        <time>2021-05-22T13:07:24.432Z</time>
      </trkpt>
      <trkpt lat="47.23853" lon="-2.27613">
        <ele>13.34170753358</ele>
        <time>2021-05-22T13:07:37.173Z</time>
      </trkpt>
      <trkpt lat="47.23862" lon="-2.27605">
        <ele>12.78982672761</ele>
        <time>2021-05-22T13:07:49.917Z</time>
      </trkpt>
      <trkpt lat="47.23866" lon="-2.27597">
        <ele>12.18499241782</ele>
        <time>2021-05-22T13:08:02.663Z</time>
      </trkpt>
      <trkpt lat="47.2388" lon="-2.27584">
        <ele>11.54561495208</ele>
        <time>2021-05-22T13:08:15.415Z</time>
      </trkpt>
      <trkpt lat="47.2389" lon="-2.27577">
        <ele>10.96851666538</ele>
        <time>2021-05-22T13:08:28.171Z</time>
      </trkpt>
      <trkpt lat="47.23906" lon="-2.27555">
        <ele>10.35322814775</ele>
        <time>2021-05-22T13:08:40.934Z</time>
      </trkpt>
      <trkpt lat="47.23927" lon="-2.27541">
        <ele>9.85902155348</ele>
        <time>2021-05-22T13:08:53.705Z</time>
      </trkpt>
      <trkpt lat="47.23933" lon="-2.27535">
        <ele>9.38098536065</ele>
        <time>2021-05-22T13:09:06.478Z</time>
      </trkpt>
      <trkpt lat="47.23938" lon="-2.27525">
        <ele>8.94736710678</ele>
        <time>2021-05-22T13:09:19.254Z</time>
      </trkpt>
      <trkpt lat="47.23938" lon="-2.27525">
        <ele>8.66201718974</ele>
        <time>2021-05-22T13:09:32.030Z</time>
      </trkpt>
      <trkpt lat="47.23944" lon="-2.27508">
        <ele>8.45807664567</ele>
        <time>2021-05-22T13:09:44.810Z</time>
      </trkpt>
      <trkpt lat="47.23947" lon="-2.27499">
        <ele>7.0897694271</ele>
        <time>2021-05-22T13:09:57.593Z</time>
      </trkpt>
      <trkpt lat="47.23972" lon="-2.27438">
        <ele>7.68054033233</ele>
        <time>2021-05-22T13:10:10.392Z</time>
      </trkpt>
      <trkpt lat="47.23984" lon="-2.27392">
        <ele>8.3322252099</ele>
        <time>2021-05-22T13:10:23.202Z</time>
      </trkpt>
      <trkpt lat="47.23997" lon="-2.27334">
        <ele>9.25877478781</ele>
        <time>2021-05-22T13:10:36.026Z</time>
      </trkpt>
      <trkpt lat="47.24001" lon="-2.27278">
        <ele>10.33377434926</ele>
        <time>2021-05-22T13:10:48.863Z</time>
      </trkpt>
      <trkpt lat="47.23993" lon="-2.27206">
        <ele>11.42838590405</ele>
        <time>2021-05-22T13:11:01.716Z</time>
      </trkpt>
      <trkpt lat="47.23984" lon="-2.27151">
        <ele>12.5004745136</ele>
        <time>2021-05-22T13:11:14.582Z</time>
      </trkpt>
      <trkpt lat="47.23992" lon="-2.27105">
        <ele>13.9501327752</ele>
        <time>2021-05-22T13:11:27.459Z</time>
      </trkpt>
      <trkpt lat="47.24013" lon="-2.27035">
        <ele>15.43114619941</ele>
        <time>2021-05-22T13:11:40.353Z</time>
      </trkpt>
      <trkpt lat="47.24052" lon="-2.27005">
        <ele>17.11380791474</ele>
        <time>2021-05-22T13:11:53.262Z</time>
      </trkpt>
      <trkpt lat="47.24086" lon="-2.26999">
        <ele>18.72386284478</ele>
        <time>2021-05-22T13:12:06.182Z</time>
      </trkpt>
      <trkpt lat="47.24101" lon="-2.26995">
        <ele>18.92434654787</ele>
        <time>2021-05-22T13:12:19.107Z</time>
      </trkpt>
      <trkpt lat="47.24102" lon="-2.26874">
        <ele>22.20215296725</ele>
        <time>2021-05-22T13:12:32.060Z</time>
      </trkpt>
      <trkpt lat="47.24106" lon="-2.26841">
        <ele>23.80418380717</ele>
        <time>2021-05-22T13:12:45.021Z</time>
      </trkpt>
      <trkpt lat="47.24106" lon="-2.26841">
        <ele>25.27341839637</ele>
        <time>2021-05-22T13:12:57.982Z</time>
      </trkpt>
      <trkpt lat="47.24117" lon="-2.26795">
        <ele>26.70820086438</ele>
        <time>2021-05-22T13:13:10.954Z</time>
      </trkpt>
      <trkpt lat="47.24131" lon="-2.26756">
        <ele>28.0304327115</ele>
        <time>2021-05-22T13:13:23.936Z</time>
      </trkpt>
      <trkpt lat="47.24148" lon="-2.26723">
        <ele>29.26729962943</ele>
        <time>2021-05-22T13:13:36.927Z</time>
      </trkpt>
      <trkpt lat="47.2416" lon="-2.26703">
        <ele>30.35361147887</ele>
        <time>2021-05-22T13:13:49.924Z</time>
      </trkpt>
      <trkpt lat="47.24174" lon="-2.26683">
        <ele>31.26842952536</ele>
        <time>2021-05-22T13:14:02.927Z</time>
      </trkpt>
      <trkpt lat="47.24182" lon="-2.26672">
        <ele>32.04510831494</ele>
        <time>2021-05-22T13:14:15.934Z</time>
      </trkpt>
      <trkpt lat="47.24221" lon="-2.26634">
        <ele>32.66901170599</ele>
        <time>2021-05-22T13:14:28.957Z</time>
      </trkpt>
      <trkpt lat="47.24267" lon="-2.2659">
        <ele>33.17063331783</ele>
        <time>2021-05-22T13:14:41.998Z</time>
      </trkpt>
      <trkpt lat="47.24267" lon="-2.2659">
        <ele>33.63484240094</ele>
        <time>2021-05-22T13:14:55.039Z</time>
      </trkpt>
      <trkpt lat="47.24295" lon="-2.26563">
        <ele>34.05603382916</ele>
        <time>2021-05-22T13:15:08.091Z</time>
      </trkpt>
      <trkpt lat="47.2434" lon="-2.26521">
        <ele>34.38537240662</ele>
        <time>2021-05-22T13:15:21.161Z</time>
      </trkpt>
      <trkpt lat="47.24385" lon="-2.26485">
        <ele>34.67045470711</ele>
        <time>2021-05-22T13:15:34.248Z</time>
      </trkpt>
      <trkpt lat="47.24413" lon="-2.26465">
        <ele>34.87321043148</ele>
        <time>2021-05-22T13:15:47.346Z</time>
      </trkpt>
      <trkpt lat="47.24413" lon="-2.26465">
        <ele>34.96846068499</ele>
        <time>2021-05-22T13:16:00.444Z</time>
      </trkpt>
      <trkpt lat="47.24489" lon="-2.26421">
        <ele>35.00380313566</ele>
        <time>2021-05-22T13:16:13.569Z</time>
      </trkpt>
      <trkpt lat="47.24527" lon="-2.26404">
        <ele>34.93806695629</ele>
        <time>2021-05-22T13:16:26.707Z</time>
      </trkpt>
      <trkpt lat="47.24579" lon="-2.26384">
        <ele>34.94951612478</ele>
        <time>2021-05-22T13:16:39.863Z</time>
      </trkpt>
      <trkpt lat="47.2462" lon="-2.26381">
        <ele>34.90934238608</ele>
        <time>2021-05-22T13:16:53.033Z</time>
      </trkpt>
      <trkpt lat="47.24639" lon="-2.26385">
        <ele>34.86728188138</ele>
        <time>2021-05-22T13:17:06.209Z</time>
      </trkpt>
      <trkpt lat="47.24659" lon="-2.26392">
        <ele>34.83857820648</ele>
        <time>2021-05-22T13:17:19.392Z</time>
      </trkpt>
      <trkpt lat="47.24725" lon="-2.26426">
        <ele>34.75505592557</ele>
        <time>2021-05-22T13:17:32.598Z</time>
      </trkpt>
      <trkpt lat="47.24771" lon="-2.26447">
        <ele>34.73079746531</ele>
        <time>2021-05-22T13:17:45.820Z</time>
      </trkpt>
      <trkpt lat="47.2479" lon="-2.26453">
        <ele>34.72125438219</ele>
        <time>2021-05-22T13:17:59.049Z</time>
      </trkpt>
      <trkpt lat="47.24809" lon="-2.26458">
        <ele>34.69994807315</ele>
        <time>2021-05-22T13:18:12.284Z</time>
      </trkpt>
      <trkpt lat="47.24832" lon="-2.26458">
        <ele>34.71966466516</ele>
        <time>2021-05-22T13:18:25.527Z</time>
      </trkpt>
      <trkpt lat="47.24928" lon="-2.26435">
        <ele>34.64185465923</ele>
        <time>2021-05-22T13:18:38.802Z</time>
      </trkpt>
      <trkpt lat="47.24928" lon="-2.2643">
        <ele>34.65286856622</ele>
        <time>2021-05-22T13:18:52.079Z</time>
      </trkpt>
      <trkpt lat="47.2493" lon="-2.26426">
        <ele>34.6753157736</ele>
        <time>2021-05-22T13:19:05.357Z</time>
      </trkpt>
      <trkpt lat="47.24934" lon="-2.26424">
        <ele>34.70611512712</ele>
        <time>2021-05-22T13:19:18.636Z</time>
      </trkpt>
      <trkpt lat="47.24938" lon="-2.26426">
        <ele>34.74080700614</ele>
        <time>2021-05-22T13:19:31.916Z</time>
      </trkpt>
      <trkpt lat="47.24941" lon="-2.26431">
        <ele>34.79068891157</ele>
        <time>2021-05-22T13:19:45.198Z</time>
      </trkpt>
      <trkpt lat="47.24964" lon="-2.26427">
        <ele>34.84567030496</ele>
        <time>2021-05-22T13:19:58.488Z</time>
      </trkpt>
      <trkpt lat="47.24962" lon="-2.26401">
        <ele>34.82205783778</ele>
        <time>2021-05-22T13:20:11.784Z</time>
      </trkpt>
      <trkpt lat="47.25001" lon="-2.2637">
        <ele>34.74327955363</ele>
        <time>2021-05-22T13:20:25.095Z</time>
      </trkpt>
      <trkpt lat="47.25014" lon="-2.26363">
        <ele>34.66974530225</ele>
        <time>2021-05-22T13:20:38.410Z</time>
      </trkpt>
      <trkpt lat="47.25008" lon="-2.26282">
        <ele>34.56574452772</ele>
        <time>2021-05-22T13:20:51.744Z</time>
      </trkpt>
      <trkpt lat="47.25006" lon="-2.26274">
        <ele>34.42802255097</ele>
        <time>2021-05-22T13:21:05.080Z</time>
      </trkpt>
      <trkpt lat="47.25004" lon="-2.26267">
        <ele>34.22822988028</ele>
        <time>2021-05-22T13:21:18.417Z</time>
      </trkpt>
      <trkpt lat="47.25" lon="-2.26254">
        <ele>33.97255654235</ele>
        <time>2021-05-22T13:21:31.758Z</time>
      </trkpt>
      <trkpt lat="47.24994" lon="-2.26165">
        <ele>33.63152923517</ele>
        <time>2021-05-22T13:21:45.119Z</time>
      </trkpt>
      <trkpt lat="47.2499" lon="-2.26113">
        <ele>33.04995890339</ele>
        <time>2021-05-22T13:21:58.492Z</time>
      </trkpt>
      <trkpt lat="47.24992" lon="-2.26077">
        <ele>32.35248321164</ele>
        <time>2021-05-22T13:22:11.873Z</time>
      </trkpt>
      <trkpt lat="47.24998" lon="-2.26054">
        <ele>31.59981646284</ele>
        <time>2021-05-22T13:22:25.260Z</time>
      </trkpt>
      <trkpt lat="47.25015" lon="-2.26021">
        <ele>30.75973412996</ele>
        <time>2021-05-22T13:22:38.656Z</time>
      </trkpt>
      <trkpt lat="47.25019" lon="-2.26005">
        <ele>29.86056165767</ele>
        <time>2021-05-22T13:22:52.056Z</time>
      </trkpt>
      <trkpt lat="47.25025" lon="-2.25954">
        <ele>28.82121882712</ele>
        <time>2021-05-22T13:23:05.468Z</time>
      </trkpt>
      <trkpt lat="47.25043" lon="-2.25877">
        <ele>27.54499484876</ele>
        <time>2021-05-22T13:23:18.898Z</time>
      </trkpt>
      <trkpt lat="47.25052" lon="-2.25867">
        <ele>26.27947716956</ele>
        <time>2021-05-22T13:23:32.332Z</time>
      </trkpt>
      <trkpt lat="47.25059" lon="-2.25848">
        <ele>24.91139258273</ele>
        <time>2021-05-22T13:23:45.771Z</time>
      </trkpt>
      <trkpt lat="47.25062" lon="-2.25828">
        <ele>23.46383680659</ele>
        <time>2021-05-22T13:23:59.215Z</time>
      </trkpt>
      <trkpt lat="47.25062" lon="-2.25828">
        <ele>22.02531747822</ele>
        <time>2021-05-22T13:24:12.659Z</time>
      </trkpt>
      <trkpt lat="47.25065" lon="-2.25811">
        <ele>20.51857833299</ele>
        <time>2021-05-22T13:24:26.107Z</time>
      </trkpt>
      <trkpt lat="47.25063" lon="-2.25707">
        <ele>18.6917176891</ele>
        <time>2021-05-22T13:24:39.578Z</time>
      </trkpt>
      <trkpt lat="47.2507" lon="-2.2568">
        <ele>17.26787229871</ele>
        <time>2021-05-22T13:24:53.056Z</time>
      </trkpt>
      <trkpt lat="47.25086" lon="-2.2566">
        <ele>15.92731277658</ele>
        <time>2021-05-22T13:25:06.541Z</time>
      </trkpt>
      <trkpt lat="47.25089" lon="-2.2565">
        <ele>14.67175268993</ele>
        <time>2021-05-22T13:25:20.028Z</time>
      </trkpt>
      <trkpt lat="47.25093" lon="-2.2562">
        <ele>13.42740195154</ele>
        <time>2021-05-22T13:25:33.522Z</time>
      </trkpt>
      <trkpt lat="47.25095" lon="-2.25607">
        <ele>12.34560266585</ele>
        <time>2021-05-22T13:25:47.019Z</time>
      </trkpt>
      <trkpt lat="47.25109" lon="-2.25596">
        <ele>11.43548150941</ele>
        <time>2021-05-22T13:26:00.521Z</time>
      </trkpt>
      <trkpt lat="47.25118" lon="-2.25602">
        <ele>10.73855850133</ele>
        <time>2021-05-22T13:26:14.027Z</time>
      </trkpt>
      <trkpt lat="47.25119" lon="-2.25602">
        <ele>10.11466780201</ele>
        <time>2021-05-22T13:26:27.533Z</time>
      </trkpt>
      <trkpt lat="47.25128" lon="-2.25583">
        <ele>9.52750214881</ele>
        <time>2021-05-22T13:26:41.044Z</time>
      </trkpt>
      <trkpt lat="47.2514" lon="-2.25574">
        <ele>9.1701925698</ele>
        <time>2021-05-22T13:26:54.560Z</time>
      </trkpt>
      <trkpt lat="47.2515" lon="-2.25573">
        <ele>8.98132182832</ele>
        <time>2021-05-22T13:27:08.079Z</time>
      </trkpt>
      <trkpt lat="47.25156" lon="-2.25541">
        <ele>8.74692138448</ele>
        <time>2021-05-22T13:27:21.606Z</time>
      </trkpt>
      <trkpt lat="47.25173" lon="-2.25513">
        <ele>8.70664396796</ele>
        <time>2021-05-22T13:27:35.141Z</time>
      </trkpt>
      <trkpt lat="47.25197" lon="-2.25519">
        <ele>8.97102894074</ele>
        <time>2021-05-22T13:27:48.684Z</time>
      </trkpt>
      <trkpt lat="47.25205" lon="-2.25512">
        <ele>9.13324427158</ele>
        <time>2021-05-22T13:28:02.230Z</time>
      </trkpt>
      <trkpt lat="47.25206" lon="-2.25499">
        <ele>9.29104379343</ele>
        <time>2021-05-22T13:28:15.779Z</time>
      </trkpt>
      <trkpt lat="47.25218" lon="-2.25486">
        <ele>9.56604605194</ele>
        <time>2021-05-22T13:28:29.333Z</time>
      </trkpt>
      <trkpt lat="47.25236" lon="-2.25459">
        <ele>9.88467473053</ele>
        <time>2021-05-22T13:28:42.896Z</time>
      </trkpt>
      <trkpt lat="47.25241" lon="-2.25444">
        <ele>10.18468946423</ele>
        <time>2021-05-22T13:28:56.463Z</time>
      </trkpt>
      <trkpt lat="47.25242" lon="-2.25424">
        <ele>10.47574572121</ele>
        <time>2021-05-22T13:29:10.034Z</time>
      </trkpt>
      <trkpt lat="47.25252" lon="-2.25414">
        <ele>10.82815893956</ele>
        <time>2021-05-22T13:29:23.609Z</time>
      </trkpt>
      <trkpt lat="47.25255" lon="-2.25404">
        <ele>11.13628536669</ele>
        <time>2021-05-22T13:29:37.187Z</time>
      </trkpt>
      <trkpt lat="47.25265" lon="-2.25411">
        <ele>11.4940583458</ele>
        <time>2021-05-22T13:29:50.768Z</time>
      </trkpt>
      <trkpt lat="47.25274" lon="-2.254">
        <ele>11.76749008793</ele>
        <time>2021-05-22T13:30:04.353Z</time>
      </trkpt>
      <trkpt lat="47.2527" lon="-2.25379">
        <ele>11.95426361746</ele>
        <time>2021-05-22T13:30:17.943Z</time>
      </trkpt>
      <trkpt lat="47.25277" lon="-2.25369">
        <ele>12.14985563776</ele>
        <time>2021-05-22T13:30:31.536Z</time>
      </trkpt>
      <trkpt lat="47.25279" lon="-2.25369">
        <ele>12.33960370048</ele>
        <time>2021-05-22T13:30:45.130Z</time>
      </trkpt>
      <trkpt lat="47.25282" lon="-2.25383">
        <ele>12.53469646828</ele>
        <time>2021-05-22T13:30:58.727Z</time>
      </trkpt>
      <trkpt lat="47.2529" lon="-2.25396">
        <ele>12.68911985485</ele>
        <time>2021-05-22T13:31:12.328Z</time>
      </trkpt>
      <trkpt lat="47.25318" lon="-2.25419">
        <ele>12.80547906988</ele>
        <time>2021-05-22T13:31:25.940Z</time>
      </trkpt>
      <trkpt lat="47.25327" lon="-2.25414">
        <ele>12.81600487703</ele>
        <time>2021-05-22T13:31:39.555Z</time>
      </trkpt>
      <trkpt lat="47.25341" lon="-2.25412">
        <ele>12.82615004809</ele>
        <time>2021-05-22T13:31:53.175Z</time>
      </trkpt>
      <trkpt lat="47.25347" lon="-2.25404">
        <ele>12.77337105008</ele>
        <time>2021-05-22T13:32:06.798Z</time>
      </trkpt>
      <trkpt lat="47.25354" lon="-2.25384">
        <ele>12.65195693526</ele>
        <time>2021-05-22T13:32:20.426Z</time>
      </trkpt>
      <trkpt lat="47.25351" lon="-2.25379">
        <ele>12.54302565876</ele>
        <time>2021-05-22T13:32:34.056Z</time>
      </trkpt>
      <trkpt lat="47.25345" lon="-2.25374">
        <ele>12.41547367955</ele>
        <time>2021-05-22T13:32:47.688Z</time>
      </trkpt>
      <trkpt lat="47.25343" lon="-2.25373">
        <ele>12.27715956394</ele>
        <time>2021-05-22T13:33:01.320Z</time>
      </trkpt>
      <trkpt lat="47.25343" lon="-2.25325">
        <ele>12.10055004392</ele>
        <time>2021-05-22T13:33:14.963Z</time>
      </trkpt>
      <trkpt lat="47.25349" lon="-2.25313">
        <ele>11.97322614293</ele>
        <time>2021-05-22T13:33:28.610Z</time>
      </trkpt>
      <trkpt lat="47.25355" lon="-2.25306">
        <ele>11.84960817562</ele>
        <time>2021-05-22T13:33:42.259Z</time>
      </trkpt>
      <trkpt lat="47.25357" lon="-2.25291">
        <ele>11.71515618703</ele>
        <time>2021-05-22T13:33:55.912Z</time>
      </trkpt>
      <trkpt lat="47.25358" lon="-2.25263">
        <ele>11.58860134534</ele>
        <time>2021-05-22T13:34:09.571Z</time>
      </trkpt>
      <trkpt lat="47.25357" lon="-2.25255">
        <ele>11.45467336865</ele>
        <time>2021-05-22T13:34:23.232Z</time>
      </trkpt>
      <trkpt lat="47.2535" lon="-2.25243">
        <ele>11.30282163542</ele>
        <time>2021-05-22T13:34:36.897Z</time>
      </trkpt>
      <trkpt lat="47.25336" lon="-2.25234">
        <ele>11.1240451953</ele>
        <time>2021-05-22T13:34:50.567Z</time>
      </trkpt>
      <trkpt lat="47.25336" lon="-2.25228">
        <ele>11.0601081199</ele>
        <time>2021-05-22T13:35:04.238Z</time>
      </trkpt>
      <trkpt lat="47.25345" lon="-2.25219">
        <ele>11.07587680595</ele>
        <time>2021-05-22T13:35:17.913Z</time>
      </trkpt>
      <trkpt lat="47.25347" lon="-2.25212">
        <ele>11.08202282874</ele>
        <time>2021-05-22T13:35:31.589Z</time>
      </trkpt>
      <trkpt lat="47.25345" lon="-2.25195">
        <ele>11.08706755001</ele>
        <time>2021-05-22T13:35:45.269Z</time>
      </trkpt>
      <trkpt lat="47.25353" lon="-2.25189">
        <ele>11.18743098298</ele>
        <time>2021-05-22T13:35:58.952Z</time>
      </trkpt>
      <trkpt lat="47.2536" lon="-2.25167">
        <ele>11.32092139591</ele>
        <time>2021-05-22T13:36:12.641Z</time>
      </trkpt>
      <trkpt lat="47.2536" lon="-2.25167">
        <ele>11.49197888713</ele>
        <time>2021-05-22T13:36:26.330Z</time>
      </trkpt>
      <trkpt lat="47.25362" lon="-2.25162">
        <ele>11.71584639366</ele>
        <time>2021-05-22T13:36:40.020Z</time>
      </trkpt>
      <trkpt lat="47.25362" lon="-2.25151">
        <ele>11.98153858242</ele>
        <time>2021-05-22T13:36:53.713Z</time>
      </trkpt>
      <trkpt lat="47.25359" lon="-2.25132">
        <ele>12.2814191344</ele>
        <time>2021-05-22T13:37:07.410Z</time>
      </trkpt>
      <trkpt lat="47.25362" lon="-2.25119">
        <ele>12.65918227116</ele>
        <time>2021-05-22T13:37:21.110Z</time>
      </trkpt>
      <trkpt lat="47.25372" lon="-2.25112">
        <ele>13.1296810722</ele>
        <time>2021-05-22T13:37:34.814Z</time>
      </trkpt>
      <trkpt lat="47.25375" lon="-2.25107">
        <ele>13.59602466484</ele>
        <time>2021-05-22T13:37:48.519Z</time>
      </trkpt>
      <trkpt lat="47.25376" lon="-2.251">
        <ele>14.085778816</ele>
        <time>2021-05-22T13:38:02.226Z</time>
      </trkpt>
      <trkpt lat="47.25379" lon="-2.2509">
        <ele>14.61676358052</ele>
        <time>2021-05-22T13:38:15.935Z</time>
      </trkpt>
      <trkpt lat="47.25382" lon="-2.25084">
        <ele>15.17840959113</ele>
        <time>2021-05-22T13:38:29.646Z</time>
      </trkpt>
      <trkpt lat="47.25384" lon="-2.25073">
        <ele>15.75096609829</ele>
        <time>2021-05-22T13:38:43.360Z</time>
      </trkpt>
      <trkpt lat="47.25384" lon="-2.2505">
        <ele>16.31437883307</ele>
        <time>2021-05-22T13:38:57.079Z</time>
      </trkpt>
      <trkpt lat="47.25397" lon="-2.25036">
        <ele>17.00358429987</ele>
        <time>2021-05-22T13:39:10.803Z</time>
      </trkpt>
      <trkpt lat="47.25394" lon="-2.24969">
        <ele>17.55226351209</ele>
        <time>2021-05-22T13:39:24.543Z</time>
      </trkpt>
      <trkpt lat="47.25394" lon="-2.24969">
        <ele>18.0884534032</ele>
        <time>2021-05-22T13:39:38.283Z</time>
      </trkpt>
      <trkpt lat="47.25397" lon="-2.24952">
        <ele>18.56854542777</ele>
        <time>2021-05-22T13:39:52.027Z</time>
      </trkpt>
      <trkpt lat="47.25403" lon="-2.24941">
        <ele>19.05979626838</ele>
        <time>2021-05-22T13:40:05.774Z</time>
      </trkpt>
      <trkpt lat="47.25429" lon="-2.24904">
        <ele>19.48800962902</ele>
        <time>2021-05-22T13:40:19.533Z</time>
      </trkpt>
      <trkpt lat="47.25446" lon="-2.24887">
        <ele>19.86908770992</ele>
        <time>2021-05-22T13:40:33.299Z</time>
      </trkpt>
      <trkpt lat="47.25456" lon="-2.24888">
        <ele>20.29372800718</ele>
        <time>2021-05-22T13:40:47.068Z</time>
      </trkpt>
      <trkpt lat="47.25462" lon="-2.24893">
        <ele>20.69228787648</ele>
        <time>2021-05-22T13:41:00.839Z</time>
      </trkpt>
      <trkpt lat="47.25469" lon="-2.24902">
        <ele>21.06453014662</ele>
        <time>2021-05-22T13:41:14.613Z</time>
      </trkpt>
      <trkpt lat="47.25476" lon="-2.2491">
        <ele>21.34424877331</ele>
        <time>2021-05-22T13:41:28.390Z</time>
      </trkpt>
      <trkpt lat="47.25494" lon="-2.24911">
        <ele>21.48648254422</ele>
        <time>2021-05-22T13:41:42.174Z</time>
      </trkpt>
      <trkpt lat="47.25503" lon="-2.24919">
        <ele>21.53368239845</ele>
        <time>2021-05-22T13:41:55.961Z</time>
      </trkpt>
      <trkpt lat="47.25521" lon="-2.24928">
        <ele>21.44750679251</ele>
        <time>2021-05-22T13:42:09.754Z</time>
      </trkpt>
      <trkpt lat="47.25529" lon="-2.24925">
        <ele>21.27482375136</ele>
        <time>2021-05-22T13:42:23.550Z</time>
      </trkpt>
      <trkpt lat="47.25532" lon="-2.24914">
        <ele>20.9946066144</ele>
        <time>2021-05-22T13:42:37.349Z</time>
      </trkpt>
      <trkpt lat="47.25559" lon="-2.24878">
        <ele>20.53536786161</ele>
        <time>2021-05-22T13:42:51.160Z</time>
      </trkpt>
      <trkpt lat="47.25575" lon="-2.24849">
        <ele>20.05552550022</ele>
        <time>2021-05-22T13:43:04.979Z</time>
      </trkpt>
      <trkpt lat="47.25585" lon="-2.24829">
        <ele>19.6159624683</ele>
        <time>2021-05-22T13:43:18.804Z</time>
      </trkpt>
      <trkpt lat="47.25596" lon="-2.24797">
        <ele>19.22726835763</ele>
        <time>2021-05-22T13:43:32.637Z</time>
      </trkpt>
      <trkpt lat="47.25614" lon="-2.24747">
        <ele>18.85648921078</ele>
        <time>2021-05-22T13:43:46.483Z</time>
      </trkpt>
      <trkpt lat="47.25616" lon="-2.24711">
        <ele>18.24863352792</ele>
        <time>2021-05-22T13:44:00.337Z</time>
      </trkpt>
      <trkpt lat="47.25626" lon="-2.24609">
        <ele>17.47254090286</ele>
        <time>2021-05-22T13:44:14.214Z</time>
      </trkpt>
      <trkpt lat="47.25624" lon="-2.24584">
        <ele>16.93569866661</ele>
        <time>2021-05-22T13:44:28.097Z</time>
      </trkpt>
      <trkpt lat="47.25625" lon="-2.24558">
        <ele>16.40478439065</ele>
        <time>2021-05-22T13:44:41.986Z</time>
      </trkpt>
      <trkpt lat="47.25622" lon="-2.2453">
        <ele>15.84396333464</ele>
        <time>2021-05-22T13:44:55.882Z</time>
      </trkpt>
      <trkpt lat="47.25623" lon="-2.2451">
        <ele>15.37224663474</ele>
        <time>2021-05-22T13:45:09.782Z</time>
      </trkpt>
      <trkpt lat="47.25614" lon="-2.24496">
        <ele>14.86080107534</ele>
        <time>2021-05-22T13:45:23.687Z</time>
      </trkpt>
      <trkpt lat="47.25616" lon="-2.24478">
        <ele>14.51240901985</ele>
        <time>2021-05-22T13:45:37.596Z</time>
      </trkpt>
      <trkpt lat="47.25608" lon="-2.24463">
        <ele>14.17546906544</ele>
        <time>2021-05-22T13:45:51.509Z</time>
      </trkpt>
      <trkpt lat="47.25611" lon="-2.2443">
        <ele>13.92740552202</ele>
        <time>2021-05-22T13:46:05.430Z</time>
      </trkpt>
      <trkpt lat="47.25607" lon="-2.24408">
        <ele>13.65797065521</ele>
        <time>2021-05-22T13:46:19.356Z</time>
      </trkpt>
      <trkpt lat="47.25608" lon="-2.24397">
        <ele>13.47100927153</ele>
        <time>2021-05-22T13:46:33.284Z</time>
      </trkpt>
      <trkpt lat="47.25608" lon="-2.24397">
        <ele>13.33401050129</ele>
        <time>2021-05-22T13:46:47.212Z</time>
      </trkpt>
      <trkpt lat="47.25618" lon="-2.24372">
        <ele>13.28490557273</ele>
        <time>2021-05-22T13:47:01.147Z</time>
      </trkpt>
      <trkpt lat="47.2562" lon="-2.2435">
        <ele>13.22269218614</ele>
        <time>2021-05-22T13:47:15.087Z</time>
      </trkpt>
      <trkpt lat="47.2562" lon="-2.24316">
        <ele>13.15355533182</ele>
        <time>2021-05-22T13:47:29.035Z</time>
      </trkpt>
      <trkpt lat="47.2562" lon="-2.24316">
        <ele>13.16157058435</ele>
        <time>2021-05-22T13:47:42.983Z</time>
      </trkpt>
      <trkpt lat="47.25616" lon="-2.24307">
        <ele>13.1324063319</ele>
        <time>2021-05-22T13:47:56.933Z</time>
      </trkpt>
      <trkpt lat="47.25623" lon="-2.24255">
        <ele>13.19619387748</ele>
        <time>2021-05-22T13:48:10.895Z</time>
      </trkpt>
      <trkpt lat="47.25623" lon="-2.24241">
        <ele>13.22343452862</ele>
        <time>2021-05-22T13:48:24.860Z</time>
      </trkpt>
      <trkpt lat="47.25623" lon="-2.24218">
        <ele>13.24615727434</ele>
        <time>2021-05-22T13:48:38.831Z</time>
      </trkpt>
      <trkpt lat="47.25633" lon="-2.24186">
        <ele>13.36413201911</ele>
        <time>2021-05-22T13:48:52.810Z</time>
      </trkpt>
      <trkpt lat="47.25631" lon="-2.24148">
        <ele>13.42921386259</ele>
        <time>2021-05-22T13:49:06.797Z</time>
      </trkpt>
      <trkpt lat="47.25645" lon="-2.24064">
        <ele>13.5126173837</ele>
        <time>2021-05-22T13:49:20.804Z</time>
      </trkpt>
      <trkpt lat="47.25644" lon="-2.24049">
        <ele>13.55669046548</ele>
        <time>2021-05-22T13:49:34.814Z</time>
      </trkpt>
      <trkpt lat="47.25641" lon="-2.24044">
        <ele>13.58458084198</ele>
        <time>2021-05-22T13:49:48.826Z</time>
      </trkpt>
      <trkpt lat="47.2563" lon="-2.24036">
        <ele>13.54353380712</ele>
        <time>2021-05-22T13:50:02.842Z</time>
      </trkpt>
      <trkpt lat="47.25623" lon="-2.24027">
        <ele>13.51723779125</ele>
        <time>2021-05-22T13:50:16.861Z</time>
      </trkpt>
      <trkpt lat="47.25622" lon="-2.24015">
        <ele>13.51613608604</ele>
        <time>2021-05-22T13:50:30.883Z</time>
      </trkpt>
      <trkpt lat="47.25626" lon="-2.23997">
        <ele>13.53217660975</ele>
        <time>2021-05-22T13:50:44.909Z</time>
      </trkpt>
      <trkpt lat="47.25643" lon="-2.23968">
        <ele>13.56119019288</ele>
        <time>2021-05-22T13:50:58.944Z</time>
      </trkpt>
      <trkpt lat="47.25644" lon="-2.23963">
        <ele>13.49651172955</ele>
        <time>2021-05-22T13:51:12.980Z</time>
      </trkpt>
      <trkpt lat="47.25644" lon="-2.23963">
        <ele>13.39195549281</ele>
        <time>2021-05-22T13:51:27.016Z</time>
      </trkpt>
      <trkpt lat="47.25651" lon="-2.23929">
        <ele>13.3022485008</ele>
        <time>2021-05-22T13:51:41.060Z</time>
      </trkpt>
      <trkpt lat="47.25647" lon="-2.23911">
        <ele>13.07571155575</ele>
        <time>2021-05-22T13:51:55.108Z</time>
      </trkpt>
      <trkpt lat="47.25651" lon="-2.23859">
        <ele>12.86269465116</ele>
        <time>2021-05-22T13:52:09.168Z</time>
      </trkpt>
      <trkpt lat="47.25641" lon="-2.23814">
        <ele>12.46397202905</ele>
        <time>2021-05-22T13:52:23.239Z</time>
      </trkpt>
      <trkpt lat="47.25645" lon="-2.23776">
        <ele>12.21347825719</ele>
        <time>2021-05-22T13:52:37.318Z</time>
      </trkpt>
      <trkpt lat="47.2565" lon="-2.23715">
        <ele>11.89591799753</ele>
        <time>2021-05-22T13:52:51.411Z</time>
      </trkpt>
      <trkpt lat="47.25651" lon="-2.23688">
        <ele>11.51822601709</ele>
        <time>2021-05-22T13:53:05.511Z</time>
      </trkpt>
      <trkpt lat="47.2565" lon="-2.23681">
        <ele>11.13581891258</ele>
        <time>2021-05-22T13:53:19.612Z</time>
      </trkpt>
      <trkpt lat="47.2565" lon="-2.23674">
        <ele>10.74599108884</ele>
        <time>2021-05-22T13:53:33.715Z</time>
      </trkpt>
      <trkpt lat="47.2565" lon="-2.23674">
        <ele>10.3583746669</ele>
        <time>2021-05-22T13:53:47.818Z</time>
      </trkpt>
      <trkpt lat="47.2565" lon="-2.23668">
        <ele>9.96051813249</ele>
        <time>2021-05-22T13:54:01.922Z</time>
      </trkpt>
      <trkpt lat="47.25655" lon="-2.23634">
        <ele>9.52915754592</ele>
        <time>2021-05-22T13:54:16.034Z</time>
      </trkpt>
      <trkpt lat="47.25661" lon="-2.2361">
        <ele>9.15812766189</ele>
        <time>2021-05-22T13:54:30.152Z</time>
      </trkpt>
      <trkpt lat="47.2566" lon="-2.23601">
        <ele>8.78431636154</ele>
        <time>2021-05-22T13:54:44.272Z</time>
      </trkpt>
      <trkpt lat="47.2565" lon="-2.2357">
        <ele>8.39383759583</ele>
        <time>2021-05-22T13:54:58.400Z</time>
      </trkpt>
      <trkpt lat="47.25646" lon="-2.23547">
        <ele>8.07567900435</ele>
        <time>2021-05-22T13:55:12.533Z</time>
      </trkpt>
      <trkpt lat="47.25645" lon="-2.23527">
        <ele>7.82774049467</ele>
        <time>2021-05-22T13:55:26.671Z</time>
      </trkpt>
      <trkpt lat="47.25645" lon="-2.23527">
        <ele>7.5923056681</ele>
        <time>2021-05-22T13:55:40.809Z</time>
      </trkpt>
      <trkpt lat="47.25644" lon="-2.23511">
        <ele>7.40332897599</ele>
        <time>2021-05-22T13:55:54.950Z</time>
      </trkpt>
      <trkpt lat="47.25634" lon="-2.23474">
        <ele>7.19148428959</ele>
        <time>2021-05-22T13:56:09.100Z</time>
      </trkpt>
      <trkpt lat="47.2563" lon="-2.23383">
        <ele>7.12723361193</ele>
        <time>2021-05-22T13:56:23.271Z</time>
      </trkpt>
      <trkpt lat="47.25625" lon="-2.23349">
        <ele>7.06650154402</ele>
        <time>2021-05-22T13:56:37.450Z</time>
      </trkpt>
      <trkpt lat="47.25611" lon="-2.23284">
        <ele>6.9410591972</ele>
        <time>2021-05-22T13:56:51.644Z</time>
      </trkpt>
      <trkpt lat="47.25603" lon="-2.23241">
        <ele>6.83205996567</ele>
        <time>2021-05-22T13:57:05.848Z</time>
      </trkpt>
      <trkpt lat="47.25605" lon="-2.23223">
        <ele>6.82506559636</ele>
        <time>2021-05-22T13:57:20.057Z</time>
      </trkpt>
      <trkpt lat="47.25607" lon="-2.23218">
        <ele>6.84410514741</ele>
        <time>2021-05-22T13:57:34.267Z</time>
      </trkpt>
      <trkpt lat="47.25608" lon="-2.23207">
        <ele>6.88941715149</ele>
        <time>2021-05-22T13:57:48.479Z</time>
      </trkpt>
      <trkpt lat="47.25605" lon="-2.23191">
        <ele>6.94652018813</ele>
        <time>2021-05-22T13:58:02.695Z</time>
      </trkpt>
      <trkpt lat="47.25608" lon="-2.23179">
        <ele>7.07270411865</ele>
        <time>2021-05-22T13:58:16.914Z</time>
      </trkpt>
      <trkpt lat="47.25606" lon="-2.23162">
        <ele>7.18974852778</ele>
        <time>2021-05-22T13:58:31.137Z</time>
      </trkpt>
      <trkpt lat="47.25596" lon="-2.23073">
        <ele>7.30535708061</ele>
        <time>2021-05-22T13:58:45.381Z</time>
      </trkpt>
      <trkpt lat="47.25589" lon="-2.23032">
        <ele>7.52406605716</ele>
        <time>2021-05-22T13:58:59.634Z</time>
      </trkpt>
      <trkpt lat="47.25589" lon="-2.23003">
        <ele>7.85849380144</ele>
        <time>2021-05-22T13:59:13.894Z</time>
      </trkpt>
      <trkpt lat="47.25593" lon="-2.22966">
        <ele>8.28750024582</ele>
        <time>2021-05-22T13:59:28.162Z</time>
      </trkpt>
      <trkpt lat="47.25603" lon="-2.22922">
        <ele>8.66207393501</ele>
        <time>2021-05-22T13:59:42.441Z</time>
      </trkpt>
      <trkpt lat="47.25658" lon="-2.22941">
        <ele>9.108643115</ele>
        <time>2021-05-22T13:59:56.739Z</time>
      </trkpt>
      <trkpt lat="47.25665" lon="-2.22942">
        <ele>9.47466127004</ele>
        <time>2021-05-22T14:00:11.039Z</time>
      </trkpt>
      <trkpt lat="47.25669" lon="-2.22897">
        <ele>9.83862674039</ele>
        <time>2021-05-22T14:00:25.349Z</time>
      </trkpt>
      <trkpt lat="47.25678" lon="-2.22873">
        <ele>10.15940985458</ele>
        <time>2021-05-22T14:00:39.666Z</time>
      </trkpt>
      <trkpt lat="47.25685" lon="-2.22863">
        <ele>10.45752338663</ele>
        <time>2021-05-22T14:00:53.986Z</time>
      </trkpt>
      <trkpt lat="47.25697" lon="-2.2285">
        <ele>10.71587305177</ele>
        <time>2021-05-22T14:01:08.311Z</time>
      </trkpt>
      <trkpt lat="47.2572" lon="-2.22834">
        <ele>10.93377435147</ele>
        <time>2021-05-22T14:01:22.644Z</time>
      </trkpt>
      <trkpt lat="47.25781" lon="-2.2279">
        <ele>11.15645589983</ele>
        <time>2021-05-22T14:01:37.000Z</time>
      </trkpt>
      <trkpt lat="47.25781" lon="-2.2279">
        <ele>11.32876284164</ele>
        <time>2021-05-22T14:01:51.356Z</time>
      </trkpt>
      <trkpt lat="47.25795" lon="-2.22779">
        <ele>11.47358550862</ele>
        <time>2021-05-22T14:02:05.717Z</time>
      </trkpt>
      <trkpt lat="47.25806" lon="-2.2277">
        <ele>11.5593829241</ele>
        <time>2021-05-22T14:02:20.082Z</time>
      </trkpt>
      <trkpt lat="47.25809" lon="-2.22761">
        <ele>11.63912965957</ele>
        <time>2021-05-22T14:02:34.450Z</time>
      </trkpt>
      <trkpt lat="47.258" lon="-2.22666">
        <ele>11.74015354079</ele>
        <time>2021-05-22T14:02:48.839Z</time>
      </trkpt>
      <trkpt lat="47.25803" lon="-2.22626">
        <ele>11.50790575808</ele>
        <time>2021-05-22T14:03:03.238Z</time>
      </trkpt>
      <trkpt lat="47.25812" lon="-2.22548">
        <ele>11.36769902104</ele>
        <time>2021-05-22T14:03:17.654Z</time>
      </trkpt>
      <trkpt lat="47.25821" lon="-2.22488">
        <ele>11.14064396828</ele>
        <time>2021-05-22T14:03:32.084Z</time>
      </trkpt>
      <trkpt lat="47.25824" lon="-2.22473">
        <ele>10.93690055311</ele>
        <time>2021-05-22T14:03:46.518Z</time>
      </trkpt>
      <trkpt lat="47.25847" lon="-2.22379">
        <ele>10.84568841342</ele>
        <time>2021-05-22T14:04:00.975Z</time>
      </trkpt>
      <trkpt lat="47.25856" lon="-2.2235">
        <ele>10.60209602676</ele>
        <time>2021-05-22T14:04:15.439Z</time>
      </trkpt>
      <trkpt lat="47.25868" lon="-2.22333">
        <ele>10.30370251196</ele>
        <time>2021-05-22T14:04:29.909Z</time>
      </trkpt>
      <trkpt lat="47.25876" lon="-2.22327">
        <ele>10.05948610798</ele>
        <time>2021-05-22T14:04:44.382Z</time>
      </trkpt>
      <trkpt lat="47.25886" lon="-2.22327">
        <ele>9.82776886469</ele>
        <time>2021-05-22T14:04:58.858Z</time>
      </trkpt>
      <trkpt lat="47.25899" lon="-2.22334">
        <ele>9.59538589163</ele>
        <time>2021-05-22T14:05:13.338Z</time>
      </trkpt>
      <trkpt lat="47.25941" lon="-2.22366">
        <ele>9.344958349</ele>
        <time>2021-05-22T14:05:27.834Z</time>
      </trkpt>
      <trkpt lat="47.25979" lon="-2.22395">
        <ele>9.23708596819</ele>
        <time>2021-05-22T14:05:42.345Z</time>
      </trkpt>
      <trkpt lat="47.26022" lon="-2.22422">
        <ele>9.06867146232</ele>
        <time>2021-05-22T14:05:56.871Z</time>
      </trkpt>
      <trkpt lat="47.26059" lon="-2.2244">
        <ele>8.84663668658</ele>
        <time>2021-05-22T14:06:11.410Z</time>
      </trkpt>
      <trkpt lat="47.26103" lon="-2.22458">
        <ele>8.39470895058</ele>
        <time>2021-05-22T14:06:25.964Z</time>
      </trkpt>
      <trkpt lat="47.26103" lon="-2.22458">
        <ele>8.12750765966</ele>
        <time>2021-05-22T14:06:40.518Z</time>
      </trkpt>
      <trkpt lat="47.26112" lon="-2.22461">
        <ele>7.83536604918</ele>
        <time>2021-05-22T14:06:55.076Z</time>
      </trkpt>
      <trkpt lat="47.26112" lon="-2.22461">
        <ele>7.56200538561</ele>
        <time>2021-05-22T14:07:09.634Z</time>
      </trkpt>
      <trkpt lat="47.26303" lon="-2.22534">
        <ele>7.30883316127</ele>
        <time>2021-05-22T14:07:24.257Z</time>
      </trkpt>
      <trkpt lat="47.26304" lon="-2.22524">
        <ele>6.84866868283</ele>
        <time>2021-05-22T14:07:38.883Z</time>
      </trkpt>
      <trkpt lat="47.26318" lon="-2.22528">
        <ele>6.40053239611</ele>
        <time>2021-05-22T14:07:53.514Z</time>
      </trkpt>
      <trkpt lat="47.26318" lon="-2.22528">
        <ele>6.14656157903</ele>
        <time>2021-05-22T14:08:08.145Z</time>
      </trkpt>
      <trkpt lat="47.26353" lon="-2.22538">
        <ele>5.90952670304</ele>
        <time>2021-05-22T14:08:22.787Z</time>
      </trkpt>
      <trkpt lat="47.26376" lon="-2.22539">
        <ele>5.65672354481</ele>
        <time>2021-05-22T14:08:37.437Z</time>
      </trkpt>
      <trkpt lat="47.26402" lon="-2.22535">
        <ele>5.43210817102</ele>
        <time>2021-05-22T14:08:52.096Z</time>
      </trkpt>
      <trkpt lat="47.26402" lon="-2.22535">
        <ele>5.27477650417</ele>
        <time>2021-05-22T14:09:06.755Z</time>
      </trkpt>
      <trkpt lat="47.2643" lon="-2.22525">
        <ele>5.12163144384</ele>
        <time>2021-05-22T14:09:21.423Z</time>
      </trkpt>
      <trkpt lat="47.26461" lon="-2.22512">
        <ele>5.04668820985</ele>
        <time>2021-05-22T14:09:36.102Z</time>
      </trkpt>
      <trkpt lat="47.26468" lon="-2.22512">
        <ele>4.96989410296</ele>
        <time>2021-05-22T14:09:50.783Z</time>
      </trkpt>
      <trkpt lat="47.26468" lon="-2.22512">
        <ele>4.90099480119</ele>
        <time>2021-05-22T14:10:05.464Z</time>
      </trkpt>
      <trkpt lat="47.26473" lon="-2.22511">
        <ele>4.85349247943</ele>
        <time>2021-05-22T14:10:20.147Z</time>
      </trkpt>
      <trkpt lat="47.26498" lon="-2.225">
        <ele>4.8311750337</ele>
        <time>2021-05-22T14:10:34.839Z</time>
      </trkpt>
      <trkpt lat="47.26507" lon="-2.22491">
        <ele>4.78133875346</ele>
        <time>2021-05-22T14:10:49.535Z</time>
      </trkpt>
      <trkpt lat="47.26518" lon="-2.22477">
        <ele>4.73802487526</ele>
        <time>2021-05-22T14:11:04.235Z</time>
      </trkpt>
      <trkpt lat="47.26531" lon="-2.22461">
        <ele>4.70822172637</ele>
        <time>2021-05-22T14:11:18.941Z</time>
      </trkpt>
      <trkpt lat="47.26549" lon="-2.22429">
        <ele>4.66087439193</ele>
        <time>2021-05-22T14:11:33.656Z</time>
      </trkpt>
      <trkpt lat="47.26556" lon="-2.22424">
        <ele>4.65139748434</ele>
        <time>2021-05-22T14:11:48.374Z</time>
      </trkpt>
      <trkpt lat="47.26559" lon="-2.22414">
        <ele>4.64988419187</ele>
        <time>2021-05-22T14:12:03.094Z</time>
      </trkpt>
      <trkpt lat="47.2656" lon="-2.22407">
        <ele>4.67512272592</ele>
        <time>2021-05-22T14:12:17.816Z</time>
      </trkpt>
      <trkpt lat="47.26566" lon="-2.22398">
        <ele>4.73753042887</ele>
        <time>2021-05-22T14:12:32.541Z</time>
      </trkpt>
      <trkpt lat="47.26586" lon="-2.22366">
        <ele>4.83965610271</ele>
        <time>2021-05-22T14:12:47.276Z</time>
      </trkpt>
      <trkpt lat="47.26603" lon="-2.22329">
        <ele>4.96892542469</ele>
        <time>2021-05-22T14:13:02.021Z</time>
      </trkpt>
      <trkpt lat="47.26637" lon="-2.2227">
        <ele>5.10725031258</ele>
        <time>2021-05-22T14:13:16.783Z</time>
      </trkpt>
      <trkpt lat="47.26637" lon="-2.2227">
        <ele>5.38084960101</ele>
        <time>2021-05-22T14:13:31.545Z</time>
      </trkpt>
      <trkpt lat="47.26669" lon="-2.22215">
        <ele>5.54011955618</ele>
        <time>2021-05-22T14:13:46.324Z</time>
      </trkpt>
      <trkpt lat="47.26677" lon="-2.22223">
        <ele>5.79881534203</ele>
        <time>2021-05-22T14:14:01.106Z</time>
      </trkpt>
      <trkpt lat="47.267" lon="-2.22177">
        <ele>6.41853452878</ele>
        <time>2021-05-22T14:14:15.901Z</time>
      </trkpt>
      <trkpt lat="47.26713" lon="-2.22157">
        <ele>6.69986451715</ele>
        <time>2021-05-22T14:14:30.703Z</time>
      </trkpt>
      <trkpt lat="47.26727" lon="-2.2212">
        <ele>6.48669549759</ele>
        <time>2021-05-22T14:14:45.514Z</time>
      </trkpt>
      <trkpt lat="47.26735" lon="-2.22127">
        <ele>6.6794079354</ele>
        <time>2021-05-22T14:15:00.328Z</time>
      </trkpt>
      <trkpt lat="47.26739" lon="-2.22112">
        <ele>6.9044161025</ele>
        <time>2021-05-22T14:15:15.146Z</time>
      </trkpt>
      <trkpt lat="47.26739" lon="-2.22112">
        <ele>7.09247258804</ele>
        <time>2021-05-22T14:15:29.964Z</time>
      </trkpt>
      <trkpt lat="47.26735" lon="-2.22127">
        <ele>6.6794079354</ele>
        <time>2021-05-22T14:15:44.786Z</time>
      </trkpt>
      <trkpt lat="47.26733" lon="-2.22125">
        <ele>7.44788716372</ele>
        <time>2021-05-22T14:15:59.608Z</time>
      </trkpt>
      <trkpt lat="47.26727" lon="-2.2212">
        <ele>6.95344208541</ele>
        <time>2021-05-22T14:16:14.432Z</time>
      </trkpt>
      <trkpt lat="47.26743" lon="-2.22073">
        <ele>7.21927494738</ele>
        <time>2021-05-22T14:16:29.268Z</time>
      </trkpt>
      <trkpt lat="47.26755" lon="-2.22039">
        <ele>7.51281888804</ele>
        <time>2021-05-22T14:16:44.113Z</time>
      </trkpt>
      <trkpt lat="47.26819" lon="-2.21788">
        <ele>7.83249959667</ele>
        <time>2021-05-22T14:16:59.019Z</time>
      </trkpt>
      <trkpt lat="47.26819" lon="-2.21788">
        <ele>7.98355756816</ele>
        <time>2021-05-22T14:17:13.925Z</time>
      </trkpt>
      <trkpt lat="47.26837" lon="-2.21719">
        <ele>8.07747129724</ele>
        <time>2021-05-22T14:17:28.848Z</time>
      </trkpt>
      <trkpt lat="47.26837" lon="-2.21719">
        <ele>8.26349886913</ele>
        <time>2021-05-22T14:17:43.771Z</time>
      </trkpt>
      <trkpt lat="47.26849" lon="-2.21656">
        <ele>8.4150243902</ele>
        <time>2021-05-22T14:17:58.709Z</time>
      </trkpt>
      <trkpt lat="47.26858" lon="-2.21641">
        <ele>8.68298052264</ele>
        <time>2021-05-22T14:18:13.651Z</time>
      </trkpt>
      <trkpt lat="47.26856" lon="-2.21625">
        <ele>8.89710023369</ele>
        <time>2021-05-22T14:18:28.597Z</time>
      </trkpt>
      <trkpt lat="47.26857" lon="-2.21618">
        <ele>9.08978710527</ele>
        <time>2021-05-22T14:18:43.544Z</time>
      </trkpt>
      <trkpt lat="47.26862" lon="-2.21588">
        <ele>9.28528013935</ele>
        <time>2021-05-22T14:18:58.498Z</time>
      </trkpt>
      <trkpt lat="47.26862" lon="-2.21588">
        <ele>9.40789311005</ele>
        <time>2021-05-22T14:19:13.452Z</time>
      </trkpt>
      <trkpt lat="47.26868" lon="-2.21563">
        <ele>9.53090001595</ele>
        <time>2021-05-22T14:19:28.412Z</time>
      </trkpt>
      <trkpt lat="47.26871" lon="-2.21544">
        <ele>9.5548155035</ele>
        <time>2021-05-22T14:19:43.377Z</time>
      </trkpt>
      <trkpt lat="47.2688" lon="-2.21493">
        <ele>9.53018358697</ele>
        <time>2021-05-22T14:19:58.354Z</time>
      </trkpt>
      <trkpt lat="47.26883" lon="-2.21471">
        <ele>9.54185375504</ele>
        <time>2021-05-22T14:20:13.336Z</time>
      </trkpt>
      <trkpt lat="47.26909" lon="-2.21319">
        <ele>9.58175428112</ele>
        <time>2021-05-22T14:20:28.353Z</time>
      </trkpt>
      <trkpt lat="47.26916" lon="-2.21297">
        <ele>9.66480771117</ele>
        <time>2021-05-22T14:20:43.376Z</time>
      </trkpt>
      <trkpt lat="47.2698" lon="-2.21207">
        <ele>9.79653792086</ele>
        <time>2021-05-22T14:20:58.429Z</time>
      </trkpt>
      <trkpt lat="47.2698" lon="-2.21207">
        <ele>9.86128760833</ele>
        <time>2021-05-22T14:21:13.482Z</time>
      </trkpt>
      <trkpt lat="47.27023" lon="-2.2114">
        <ele>9.91705997939</ele>
        <time>2021-05-22T14:21:28.556Z</time>
      </trkpt>
      <trkpt lat="47.27023" lon="-2.2114">
        <ele>9.99870340594</ele>
        <time>2021-05-22T14:21:43.630Z</time>
      </trkpt>
      <trkpt lat="47.27051" lon="-2.21056">
        <ele>10.06677954934</ele>
        <time>2021-05-22T14:21:58.725Z</time>
      </trkpt>
      <trkpt lat="47.27061" lon="-2.21046">
        <ele>9.92481848872</ele>
        <time>2021-05-22T14:22:13.824Z</time>
      </trkpt>
      <trkpt lat="47.27067" lon="-2.2104">
        <ele>9.78162181804</ele>
        <time>2021-05-22T14:22:28.925Z</time>
      </trkpt>
      <trkpt lat="47.27066" lon="-2.21032">
        <ele>9.6348623684</ele>
        <time>2021-05-22T14:22:44.028Z</time>
      </trkpt>
      <trkpt lat="47.27068" lon="-2.21028">
        <ele>9.43967546212</ele>
        <time>2021-05-22T14:22:59.132Z</time>
      </trkpt>
      <trkpt lat="47.27066" lon="-2.21023">
        <ele>9.19563654118</ele>
        <time>2021-05-22T14:23:14.238Z</time>
      </trkpt>
      <trkpt lat="47.27065" lon="-2.2101">
        <ele>8.87061243293</ele>
        <time>2021-05-22T14:23:29.347Z</time>
      </trkpt>
      <trkpt lat="47.27105" lon="-2.2088">
        <ele>8.45734941113</ele>
        <time>2021-05-22T14:23:44.488Z</time>
      </trkpt>
      <trkpt lat="47.27112" lon="-2.20818">
        <ele>7.95773930415</ele>
        <time>2021-05-22T14:23:59.643Z</time>
      </trkpt>
      <trkpt lat="47.27112" lon="-2.20818">
        <ele>7.49492960796</ele>
        <time>2021-05-22T14:24:14.798Z</time>
      </trkpt>
      <trkpt lat="47.27127" lon="-2.20702">
        <ele>7.04042279617</ele>
        <time>2021-05-22T14:24:29.980Z</time>
      </trkpt>
      <trkpt lat="47.27127" lon="-2.20702">
        <ele>6.77542951177</ele>
        <time>2021-05-22T14:24:45.162Z</time>
      </trkpt>
      <trkpt lat="47.2713" lon="-2.20693">
        <ele>7.04828832429</ele>
        <time>2021-05-22T14:25:00.346Z</time>
      </trkpt>
      <trkpt lat="47.27127" lon="-2.20702">
        <ele>7.04042279617</ele>
        <time>2021-05-22T14:25:15.532Z</time>
      </trkpt>
      <trkpt lat="47.27134" lon="-2.207">
        <ele>7.55380147016</ele>
        <time>2021-05-22T14:25:30.720Z</time>
      </trkpt>
    </trkseg>
  </trk>
</gpx>